Wetterdaten: Donnerstag, 22.06.2017
Datum Zeit Temp. A. Pool Temp. Feuchte A. Luftdruck Regen Wind Richtung Richtung Sonnenschein ET UV Solar Taupunkt Windchill Windben Empfang
22.06.2017 00:00 20,7 C 26,7 C 78 % 1012,9 hPa 0,0 l/m 1,8 km/h (1 Bft) SW 230 0 min 0,000 mm 0,0 UV-I 0 W/m 16,7 C 20,7 C 3,2 km/h (1 Bft) 91,67 %
22.06.2017 00:02 20,7 C 26,7 C 78 % 1013,0 hPa 0,0 l/m 1,9 km/h (1 Bft) SW 230 0 min 0,000 mm 0,0 UV-I 0 W/m 16,7 C 20,7 C 4,8 km/h (1 Bft) 100,00 %
22.06.2017 00:04 20,7 C 26,7 C 78 % 1012,9 hPa 0,0 l/m 3,3 km/h (1 Bft) SW 230 0 min 0,000 mm 0,0 UV-I 0 W/m 16,7 C 20,7 C 4,8 km/h (1 Bft) 93,62 %
22.06.2017 00:06 20,8 C 26,7 C 77 % 1012,9 hPa 0,0 l/m 2,4 km/h (1 Bft) SW 230 0 min 0,000 mm 0,0 UV-I 0 W/m 16,6 C 20,8 C 4,8 km/h (1 Bft) 96,00 %
22.06.2017 00:08 20,8 C 26,7 C 77 % 1012,9 hPa 0,0 l/m 1,1 km/h (1 Bft) SW 230 0 min 0,000 mm 0,0 UV-I 0 W/m 16,6 C 20,8 C 3,2 km/h (1 Bft) 96,00 %
22.06.2017 00:10 20,8 C 26,7 C 77 % 1012,9 hPa 0,0 l/m 1,8 km/h (1 Bft) SW 230 0 min 0,000 mm 0,0 UV-I 0 W/m 16,6 C 20,8 C 3,2 km/h (1 Bft) 95,74 %
22.06.2017 00:12 20,8 C 26,7 C 77 % 1012,9 hPa 0,0 l/m 1,6 km/h (1 Bft) SW 230 0 min 0,000 mm 0,0 UV-I 0 W/m 16,6 C 20,8 C 3,2 km/h (1 Bft) 93,62 %
22.06.2017 00:14 20,7 C 26,7 C 77 % 1012,9 hPa 0,0 l/m 2,5 km/h (1 Bft) SW 230 0 min 0,000 mm 0,0 UV-I 0 W/m 16,5 C 20,7 C 4,8 km/h (1 Bft) 92,00 %
22.06.2017 00:16 20,7 C 26,7 C 78 % 1012,9 hPa 0,0 l/m 2,4 km/h (1 Bft) SW 227 0 min 0,000 mm 0,0 UV-I 0 W/m 16,7 C 20,7 C 3,2 km/h (1 Bft) 94,74 %
22.06.2017 00:18 20,7 C 26,7 C 78 % 1012,9 hPa 0,0 l/m 2,4 km/h (1 Bft) SW 226 0 min 0,000 mm 0,0 UV-I 0 W/m 16,7 C 20,7 C 3,2 km/h (1 Bft) 94,00 %
22.06.2017 00:20 20,8 C 26,7 C 78 % 1012,8 hPa 0,0 l/m 1,7 km/h (1 Bft) SW 225 0 min 0,000 mm 0,0 UV-I 0 W/m 16,8 C 20,8 C 4,8 km/h (1 Bft) 95,74 %
22.06.2017 00:22 20,8 C 26,7 C 77 % 1012,8 hPa 0,0 l/m 2,3 km/h (1 Bft) SW 220 0 min 0,000 mm 0,0 UV-I 0 W/m 16,6 C 20,8 C 3,2 km/h (1 Bft) 95,74 %
22.06.2017 00:24 20,8 C 26,7 C 77 % 1012,8 hPa 0,0 l/m 2,0 km/h (1 Bft) S-SW 200 0 min 0,000 mm 0,0 UV-I 0 W/m 16,6 C 20,8 C 4,8 km/h (1 Bft) 95,74 %
22.06.2017 00:26 20,8 C 26,7 C 77 % 1012,8 hPa 0,0 l/m 0,9 km/h (0 Bft) S-SW 200 0 min 0,000 mm 0,0 UV-I 0 W/m 16,6 C 20,8 C 1,6 km/h (1 Bft) 96,00 %
22.06.2017 00:28 20,9 C 26,7 C 77 % 1012,8 hPa 0,0 l/m 0,7 km/h (0 Bft) S-SW 200 0 min 0,000 mm 0,0 UV-I 0 W/m 16,7 C 20,9 C 3,2 km/h (1 Bft) 97,87 %
22.06.2017 00:30 20,9 C 26,7 C 77 % 1012,8 hPa 0,0 l/m 0,7 km/h (0 Bft) S-SW 200 0 min 0,000 mm 0,0 UV-I 0 W/m 16,7 C 20,9 C 1,6 km/h (1 Bft) 95,74 %
22.06.2017 00:32 20,9 C 26,7 C 77 % 1012,8 hPa 0,0 l/m 0,2 km/h (0 Bft) S-SW 200 0 min 0,000 mm 0,0 UV-I 0 W/m 16,7 C 20,9 C 1,6 km/h (1 Bft) 95,74 %
22.06.2017 00:34 21,0 C 26,7 C 76 % 1012,7 hPa 0,0 l/m 0,0 km/h (0 Bft) S-SW 200 0 min 0,000 mm 0,0 UV-I 0 W/m 16,6 C 21,0 C 0,0 km/h (0 Bft) 95,74 %
22.06.2017 00:36 20,9 C 26,7 C 76 % 1012,7 hPa 0,0 l/m 0,3 km/h (0 Bft) S-SW 200 0 min 0,000 mm 0,0 UV-I 0 W/m 16,5 C 20,9 C 1,6 km/h (1 Bft) 97,87 %
22.06.2017 00:38 20,9 C 26,7 C 77 % 1012,7 hPa 0,0 l/m 0,2 km/h (0 Bft) S-SW 200 0 min 0,000 mm 0,0 UV-I 0 W/m 16,7 C 20,9 C 1,6 km/h (1 Bft) 93,75 %
22.06.2017 00:40 20,8 C 26,7 C 77 % 1012,7 hPa 0,0 l/m 0,0 km/h (0 Bft) S-SW 200 0 min 0,000 mm 0,0 UV-I 0 W/m 16,6 C 20,8 C 0,0 km/h (0 Bft) 95,74 %
22.06.2017 00:42 20,8 C 26,7 C 77 % 1012,7 hPa 0,0 l/m 0,1 km/h (0 Bft) S-SW 200 0 min 0,000 mm 0,0 UV-I 0 W/m 16,6 C 20,8 C 1,6 km/h (1 Bft) 95,74 %
22.06.2017 00:44 20,8 C 26,7 C 77 % 1012,7 hPa 0,0 l/m 1,0 km/h (0 Bft) S-SW 200 0 min 0,000 mm 0,0 UV-I 0 W/m 16,6 C 20,8 C 3,2 km/h (1 Bft) 95,74 %
22.06.2017 00:46 20,7 C 26,1 C 77 % 1012,7 hPa 0,0 l/m 1,9 km/h (1 Bft) S-SW 200 0 min 0,000 mm 0,0 UV-I 0 W/m 16,5 C 20,7 C 3,2 km/h (1 Bft) 97,87 %
22.06.2017 00:48 20,7 C 26,1 C 77 % 1012,7 hPa 0,0 l/m 2,5 km/h (1 Bft) S-SW 200 0 min 0,000 mm 0,0 UV-I 0 W/m 16,5 C 20,7 C 3,2 km/h (1 Bft) 97,37 %
22.06.2017 00:50 20,6 C 26,1 C 78 % 1012,7 hPa 0,0 l/m 2,4 km/h (1 Bft) S-SW 200 0 min 0,000 mm 0,0 UV-I 0 W/m 16,6 C 20,6 C 3,2 km/h (1 Bft) 96,23 %
22.06.2017 00:52 20,5 C 26,1 C 78 % 1012,8 hPa 0,0 l/m 2,0 km/h (1 Bft) S-SW 200 0 min 0,000 mm 0,0 UV-I 0 W/m 16,5 C 20,5 C 3,2 km/h (1 Bft) 93,62 %
22.06.2017 00:54 20,4 C 26,1 C 78 % 1012,7 hPa 0,0 l/m 2,0 km/h (1 Bft) S-SW 200 0 min 0,000 mm 0,0 UV-I 0 W/m 16,4 C 20,4 C 3,2 km/h (1 Bft) 97,87 %
22.06.2017 00:56 20,3 C 26,1 C 79 % 1012,7 hPa 0,0 l/m 1,3 km/h (1 Bft) S-SW 200 0 min 0,000 mm 0,0 UV-I 0 W/m 16,5 C 20,3 C 3,2 km/h (1 Bft) 93,62 %
22.06.2017 00:58 20,3 C 26,1 C 79 % 1012,7 hPa 0,0 l/m 0,6 km/h (0 Bft) S-SW 200 0 min 0,000 mm 0,0 UV-I 0 W/m 16,5 C 20,3 C 1,6 km/h (1 Bft) 93,62 %
22.06.2017 01:00 20,2 C 26,1 C 79 % 1012,7 hPa 0,0 l/m 0,6 km/h (0 Bft) S-SW 200 0 min 0,000 mm 0,0 UV-I 0 W/m 16,4 C 20,2 C 1,6 km/h (1 Bft) 95,74 %
22.06.2017 01:02 20,2 C 26,1 C 79 % 1012,8 hPa 0,0 l/m 1,4 km/h (1 Bft) S-SW 200 0 min 0,000 mm 0,0 UV-I 0 W/m 16,4 C 20,2 C 3,2 km/h (1 Bft) 97,37 %
22.06.2017 01:04 20,2 C 26,1 C 80 % 1012,8 hPa 0,0 l/m 1,8 km/h (1 Bft) S-SW 200 0 min 0,000 mm 0,0 UV-I 0 W/m 16,6 C 20,2 C 3,2 km/h (1 Bft) 95,74 %
22.06.2017 01:06 20,2 C 26,1 C 80 % 1012,8 hPa 0,0 l/m 0,9 km/h (0 Bft) S-SW 200 0 min 0,000 mm 0,0 UV-I 0 W/m 16,6 C 20,2 C 3,2 km/h (1 Bft) 95,74 %
22.06.2017 01:08 20,2 C 26,1 C 80 % 1012,9 hPa 0,0 l/m 0,3 km/h (0 Bft) S-SW 200 0 min 0,000 mm 0,0 UV-I 0 W/m 16,6 C 20,2 C 1,6 km/h (1 Bft) 97,87 %
22.06.2017 01:10 20,2 C 26,1 C 80 % 1012,8 hPa 0,0 l/m 0,0 km/h (0 Bft) S-SW 200 0 min 0,000 mm 0,0 UV-I 0 W/m 16,6 C 20,2 C 0,0 km/h (0 Bft) 95,74 %
22.06.2017 01:12 20,1 C 26,1 C 80 % 1012,9 hPa 0,0 l/m 0,0 km/h (0 Bft) S-SW 200 0 min 0,000 mm 0,0 UV-I 0 W/m 16,5 C 20,1 C 0,0 km/h (0 Bft) 97,92 %
22.06.2017 01:14 19,9 C 26,1 C 80 % 1012,8 hPa 0,0 l/m 3,9 km/h (1 Bft) S-SW 200 0 min 0,000 mm 0,0 UV-I 0 W/m 16,3 C 19,9 C 6,4 km/h (2 Bft) 94,00 %
22.06.2017 01:16 19,6 C 26,1 C 81 % 1012,8 hPa 0,0 l/m 5,4 km/h (1 Bft) NO 51 0 min 0,000 mm 0,0 UV-I 0 W/m 16,2 C 19,6 C 6,4 km/h (2 Bft) 98,00 %
22.06.2017 01:18 19,4 C 26,1 C 82 % 1012,8 hPa 0,0 l/m 5,0 km/h (1 Bft) NO 51 0 min 0,000 mm 0,0 UV-I 0 W/m 16,2 C 19,4 C 6,4 km/h (2 Bft) 100,00 %
22.06.2017 01:20 19,2 C 26,1 C 83 % 1012,8 hPa 0,0 l/m 4,3 km/h (1 Bft) NO 51 0 min 0,000 mm 0,0 UV-I 0 W/m 16,2 C 19,2 C 4,8 km/h (1 Bft) 98,00 %
22.06.2017 01:22 19,2 C 26,1 C 83 % 1012,8 hPa 0,0 l/m 2,0 km/h (1 Bft) NO 51 0 min 0,000 mm 0,0 UV-I 0 W/m 16,2 C 19,2 C 3,2 km/h (1 Bft) 100,00 %
22.06.2017 01:24 19,2 C 26,1 C 84 % 1012,8 hPa 0,0 l/m 0,0 km/h (0 Bft) NO 51 0 min 0,000 mm 0,0 UV-I 0 W/m 16,4 C 19,2 C 0,0 km/h (0 Bft) 97,87 %
22.06.2017 01:26 19,3 C 26,1 C 83 % 1012,8 hPa 0,0 l/m 0,3 km/h (0 Bft) NO 51 0 min 0,000 mm 0,0 UV-I 0 W/m 16,3 C 19,3 C 1,6 km/h (1 Bft) 100,00 %
22.06.2017 01:28 19,4 C 26,1 C 83 % 1012,8 hPa 0,0 l/m 0,0 km/h (0 Bft) NO 51 0 min 0,000 mm 0,0 UV-I 0 W/m 16,4 C 19,4 C 0,0 km/h (0 Bft) 97,87 %
22.06.2017 01:30 19,4 C 26,1 C 83 % 1012,8 hPa 0,0 l/m 0,0 km/h (0 Bft) NO 51 0 min 0,000 mm 0,0 UV-I 0 W/m 16,4 C 19,4 C 0,0 km/h (0 Bft) 100,00 %
22.06.2017 01:32 19,4 C 26,1 C 82 % 1012,8 hPa 0,0 l/m 0,0 km/h (0 Bft) NO 51 0 min 0,000 mm 0,0 UV-I 0 W/m 16,2 C 19,4 C 0,0 km/h (0 Bft) 97,87 %
22.06.2017 01:34 19,3 C 26,1 C 82 % 1012,8 hPa 0,0 l/m 0,7 km/h (0 Bft) NO 51 0 min 0,000 mm 0,0 UV-I 0 W/m 16,1 C 19,3 C 3,2 km/h (1 Bft) 93,62 %
22.06.2017 01:36 19,3 C 26,1 C 83 % 1012,8 hPa 0,0 l/m 2,8 km/h (1 Bft) NO 51 0 min 0,000 mm 0,0 UV-I 0 W/m 16,3 C 19,3 C 3,2 km/h (1 Bft) 98,00 %
22.06.2017 01:38 19,3 C 26,1 C 83 % 1012,8 hPa 0,0 l/m 2,0 km/h (1 Bft) NO 51 0 min 0,000 mm 0,0 UV-I 0 W/m 16,3 C 19,3 C 3,2 km/h (1 Bft) 95,74 %
22.06.2017 01:40 19,2 C 26,1 C 83 % 1012,8 hPa 0,0 l/m 0,6 km/h (0 Bft) NO 51 0 min 0,000 mm 0,0 UV-I 0 W/m 16,2 C 19,2 C 3,2 km/h (1 Bft) 97,87 %
22.06.2017 01:42 19,2 C 26,1 C 83 % 1012,8 hPa 0,0 l/m 1,5 km/h (1 Bft) NO 51 0 min 0,000 mm 0,0 UV-I 0 W/m 16,2 C 19,2 C 3,2 km/h (1 Bft) 97,87 %
22.06.2017 01:44 19,2 C 26,1 C 83 % 1012,8 hPa 0,0 l/m 0,0 km/h (0 Bft) NO 51 0 min 0,000 mm 0,0 UV-I 0 W/m 16,2 C 19,2 C 1,6 km/h (1 Bft) 95,74 %
22.06.2017 01:46 19,1 C 26,1 C 83 % 1012,9 hPa 0,0 l/m 0,0 km/h (0 Bft) NO 51 0 min 0,000 mm 0,0 UV-I 0 W/m 16,1 C 19,1 C 0,0 km/h (0 Bft) 94,00 %
22.06.2017 01:48 19,1 C 26,1 C 83 % 1012,9 hPa 0,0 l/m 1,1 km/h (1 Bft) NO 51 0 min 0,000 mm 0,0 UV-I 0 W/m 16,1 C 19,1 C 3,2 km/h (1 Bft) 93,62 %
22.06.2017 01:50 19,1 C 26,1 C 83 % 1012,9 hPa 0,0 l/m 2,9 km/h (1 Bft) NO 51 0 min 0,000 mm 0,0 UV-I 0 W/m 16,1 C 19,1 C 4,8 km/h (1 Bft) 97,87 %
22.06.2017 01:52 19,1 C 26,1 C 83 % 1012,9 hPa 0,0 l/m 2,3 km/h (1 Bft) NO 51 0 min 0,000 mm 0,0 UV-I 0 W/m 16,1 C 19,1 C 4,8 km/h (1 Bft) 94,87 %
22.06.2017 01:54 19,1 C 26,1 C 83 % 1012,9 hPa 0,0 l/m 1,5 km/h (1 Bft) NO 51 0 min 0,000 mm 0,0 UV-I 0 W/m 16,1 C 19,1 C 3,2 km/h (1 Bft) 95,74 %
22.06.2017 01:56 19,1 C 26,1 C 84 % 1012,9 hPa 0,0 l/m 1,8 km/h (1 Bft) NO 51 0 min 0,000 mm 0,0 UV-I 0 W/m 16,3 C 19,1 C 3,2 km/h (1 Bft) 95,83 %
22.06.2017 01:58 19,1 C 26,1 C 83 % 1012,9 hPa 0,0 l/m 2,6 km/h (1 Bft) NO 51 0 min 0,000 mm 0,0 UV-I 0 W/m 16,1 C 19,1 C 3,2 km/h (1 Bft) 97,87 %
22.06.2017 02:00 19,1 C 26,1 C 83 % 1012,9 hPa 0,0 l/m 1,4 km/h (1 Bft) NO 51 0 min 0,000 mm 0,0 UV-I 0 W/m 16,1 C 19,1 C 3,2 km/h (1 Bft) 97,87 %
22.06.2017 02:02 19,1 C 26,1 C 83 % 1012,9 hPa 0,0 l/m 2,0 km/h (1 Bft) NO 55 0 min 0,000 mm 0,0 UV-I 0 W/m 16,1 C 19,1 C 3,2 km/h (1 Bft) 95,74 %
22.06.2017 02:04 19,0 C 26,1 C 83 % 1012,9 hPa 0,0 l/m 0,6 km/h (0 Bft) NO 55 0 min 0,000 mm 0,0 UV-I 0 W/m 16,0 C 19,0 C 3,2 km/h (1 Bft) 93,62 %
22.06.2017 02:06 18,9 C 26,1 C 83 % 1012,9 hPa 0,0 l/m 0,2 km/h (0 Bft) NO 55 0 min 0,000 mm 0,0 UV-I 0 W/m 15,9 C 18,9 C 1,6 km/h (1 Bft) 97,87 %
22.06.2017 02:08 18,8 C 26,1 C 84 % 1012,8 hPa 0,0 l/m 1,0 km/h (0 Bft) NO 55 0 min 0,000 mm 0,0 UV-I 0 W/m 16,0 C 18,8 C 3,2 km/h (1 Bft) 93,62 %
22.06.2017 02:10 18,8 C 26,1 C 84 % 1012,8 hPa 0,0 l/m 3,7 km/h (1 Bft) NO 56 0 min 0,000 mm 0,0 UV-I 0 W/m 16,0 C 18,8 C 4,8 km/h (1 Bft) 95,74 %
22.06.2017 02:12 18,8 C 26,1 C 84 % 1012,8 hPa 0,0 l/m 2,6 km/h (1 Bft) NO 55 0 min 0,000 mm 0,0 UV-I 0 W/m 16,0 C 18,8 C 4,8 km/h (1 Bft) 95,74 %
22.06.2017 02:14 18,8 C 26,1 C 84 % 1012,8 hPa 0,0 l/m 0,2 km/h (0 Bft) NO 56 0 min 0,000 mm 0,0 UV-I 0 W/m 16,0 C 18,8 C 1,6 km/h (1 Bft) 93,62 %
22.06.2017 02:16 18,9 C 26,1 C 84 % 1013,0 hPa 0,0 l/m 2,4 km/h (1 Bft) NO 55 0 min 0,000 mm 0,0 UV-I 0 W/m 16,1 C 18,9 C 4,8 km/h (1 Bft) 97,87 %
22.06.2017 02:18 18,8 C 26,1 C 83 % 1013,0 hPa 0,0 l/m 3,7 km/h (1 Bft) NO 55 0 min 0,000 mm 0,0 UV-I 0 W/m 15,8 C 18,8 C 4,8 km/h (1 Bft) 97,87 %
22.06.2017 02:20 18,7 C 26,1 C 83 % 1013,1 hPa 0,0 l/m 4,0 km/h (1 Bft) NO 56 0 min 0,000 mm 0,0 UV-I 0 W/m 15,8 C 18,7 C 4,8 km/h (1 Bft) 97,87 %
22.06.2017 02:22 18,4 C 26,1 C 84 % 1013,1 hPa 0,0 l/m 3,4 km/h (1 Bft) O-NO 58 0 min 0,000 mm 0,0 UV-I 0 W/m 15,6 C 18,4 C 4,8 km/h (1 Bft) 98,00 %
22.06.2017 02:24 18,3 C 26,1 C 84 % 1013,1 hPa 0,0 l/m 2,8 km/h (1 Bft) O-NO 74 0 min 0,000 mm 0,0 UV-I 0 W/m 15,5 C 18,3 C 4,8 km/h (1 Bft) 97,92 %
22.06.2017 02:26 18,2 C 26,1 C 85 % 1013,1 hPa 0,0 l/m 1,9 km/h (1 Bft) O-NO 76 0 min 0,000 mm 0,0 UV-I 0 W/m 15,6 C 18,2 C 3,2 km/h (1 Bft) 100,00 %
22.06.2017 02:28 18,2 C 26,1 C 86 % 1013,1 hPa 0,0 l/m 1,0 km/h (0 Bft) O 79 0 min 0,000 mm 0,0 UV-I 0 W/m 15,8 C 18,2 C 3,2 km/h (1 Bft) 97,87 %
22.06.2017 02:30 18,1 C 26,1 C 85 % 1013,1 hPa 0,0 l/m 1,1 km/h (1 Bft) O 79 0 min 0,000 mm 0,0 UV-I 0 W/m 15,5 C 18,1 C 3,2 km/h (1 Bft) 100,00 %
22.06.2017 02:32 18,1 C 26,1 C 85 % 1013,0 hPa 0,0 l/m 0,4 km/h (0 Bft) O 79 0 min 0,000 mm 0,0 UV-I 0 W/m 15,5 C 18,1 C 1,6 km/h (1 Bft) 97,87 %
22.06.2017 02:34 18,1 C 26,1 C 86 % 1013,1 hPa 0,0 l/m 1,2 km/h (1 Bft) O 79 0 min 0,000 mm 0,0 UV-I 0 W/m 15,7 C 18,1 C 3,2 km/h (1 Bft) 100,00 %
22.06.2017 02:36 18,1 C 26,1 C 86 % 1013,1 hPa 0,0 l/m 3,0 km/h (1 Bft) O 83 0 min 0,000 mm 0,0 UV-I 0 W/m 15,7 C 18,1 C 4,8 km/h (1 Bft) 98,00 %
22.06.2017 02:38 18,3 C 26,1 C 86 % 1013,1 hPa 0,0 l/m 1,9 km/h (1 Bft) O 86 0 min 0,000 mm 0,0 UV-I 0 W/m 15,9 C 18,3 C 4,8 km/h (1 Bft) 97,87 %
22.06.2017 02:40 18,3 C 26,1 C 85 % 1013,1 hPa 0,0 l/m 1,3 km/h (1 Bft) O 86 0 min 0,000 mm 0,0 UV-I 0 W/m 15,7 C 18,3 C 3,2 km/h (1 Bft) 97,87 %
22.06.2017 02:42 18,3 C 26,1 C 84 % 1013,1 hPa 0,0 l/m 0,3 km/h (0 Bft) O 86 0 min 0,000 mm 0,0 UV-I 0 W/m 15,5 C 18,3 C 1,6 km/h (1 Bft) 95,83 %
22.06.2017 02:44 18,3 C 26,1 C 83 % 1013,2 hPa 0,0 l/m 1,3 km/h (1 Bft) O 86 0 min 0,000 mm 0,0 UV-I 0 W/m 15,4 C 18,3 C 3,2 km/h (1 Bft) 100,00 %
22.06.2017 02:46 18,4 C 26,1 C 83 % 1013,2 hPa 0,0 l/m 0,0 km/h (0 Bft) O 86 0 min 0,000 mm 0,0 UV-I 0 W/m 15,5 C 18,4 C 1,6 km/h (1 Bft) 100,00 %
22.06.2017 02:48 18,5 C 26,1 C 83 % 1013,2 hPa 0,0 l/m 0,0 km/h (0 Bft) O 86 0 min 0,000 mm 0,0 UV-I 0 W/m 15,6 C 18,5 C 1,6 km/h (1 Bft) 100,00 %
22.06.2017 02:50 18,6 C 26,1 C 83 % 1013,2 hPa 0,0 l/m 0,1 km/h (0 Bft) O 86 0 min 0,000 mm 0,0 UV-I 0 W/m 15,7 C 18,6 C 1,6 km/h (1 Bft) 100,00 %
22.06.2017 02:52 18,6 C 26,1 C 83 % 1013,2 hPa 0,0 l/m 0,0 km/h (0 Bft) O 86 0 min 0,000 mm 0,0 UV-I 0 W/m 15,7 C 18,6 C 0,0 km/h (0 Bft) 97,87 %
22.06.2017 02:54 18,6 C 26,1 C 83 % 1013,3 hPa 0,0 l/m 0,0 km/h (0 Bft) O 86 0 min 0,000 mm 0,0 UV-I 0 W/m 15,7 C 18,6 C 0,0 km/h (0 Bft) 95,74 %
22.06.2017 02:56 18,6 C 26,1 C 83 % 1013,2 hPa 0,0 l/m 0,0 km/h (0 Bft) O 86 0 min 0,000 mm 0,0 UV-I 0 W/m 15,7 C 18,6 C 1,6 km/h (1 Bft) 97,87 %
22.06.2017 02:58 18,6 C 26,1 C 83 % 1013,3 hPa 0,0 l/m 0,9 km/h (0 Bft) O 86 0 min 0,000 mm 0,0 UV-I 0 W/m 15,7 C 18,6 C 3,2 km/h (1 Bft) 97,87 %
22.06.2017 03:00 18,6 C 26,1 C 83 % 1013,3 hPa 0,0 l/m 1,5 km/h (1 Bft) O 86 0 min 0,000 mm 0,0 UV-I 0 W/m 15,7 C 18,6 C 3,2 km/h (1 Bft) 100,00 %
22.06.2017 03:02 18,4 C 26,1 C 83 % 1013,3 hPa 0,0 l/m 0,2 km/h (0 Bft) O 86 0 min 0,000 mm 0,0 UV-I 0 W/m 15,5 C 18,4 C 1,6 km/h (1 Bft) 97,87 %
22.06.2017 03:04 18,4 C 26,1 C 83 % 1013,2 hPa 0,0 l/m 0,4 km/h (0 Bft) O 86 0 min 0,000 mm 0,0 UV-I 0 W/m 15,5 C 18,4 C 1,6 km/h (1 Bft) 96,00 %
22.06.2017 03:06 18,3 C 26,1 C 83 % 1013,3 hPa 0,0 l/m 0,3 km/h (0 Bft) O 86 0 min 0,000 mm 0,0 UV-I 0 W/m 15,4 C 18,3 C 1,6 km/h (1 Bft) 100,00 %
22.06.2017 03:08 18,3 C 26,1 C 83 % 1013,3 hPa 0,0 l/m 0,6 km/h (0 Bft) O 86 0 min 0,000 mm 0,0 UV-I 0 W/m 15,4 C 18,3 C 3,2 km/h (1 Bft) 95,74 %
22.06.2017 03:10 18,4 C 26,1 C 82 % 1013,3 hPa 0,0 l/m 1,2 km/h (1 Bft) O 86 0 min 0,000 mm 0,0 UV-I 0 W/m 15,3 C 18,4 C 3,2 km/h (1 Bft) 100,00 %
22.06.2017 03:12 18,5 C 26,1 C 82 % 1013,3 hPa 0,0 l/m 0,5 km/h (0 Bft) O 86 0 min 0,000 mm 0,0 UV-I 0 W/m 15,4 C 18,5 C 1,6 km/h (1 Bft) 97,87 %
22.06.2017 03:14 18,5 C 26,1 C 81 % 1013,3 hPa 0,0 l/m 0,2 km/h (0 Bft) O 86 0 min 0,000 mm 0,0 UV-I 0 W/m 15,2 C 18,5 C 1,6 km/h (1 Bft) 97,92 %
22.06.2017 03:16 18,5 C 26,1 C 80 % 1013,3 hPa 0,0 l/m 0,3 km/h (0 Bft) O 86 0 min 0,000 mm 0,0 UV-I 0 W/m 15,0 C 18,5 C 1,6 km/h (1 Bft) 97,56 %
22.06.2017 03:18 18,4 C 26,1 C 80 % 1013,3 hPa 0,0 l/m 0,7 km/h (0 Bft) O 86 0 min 0,000 mm 0,0 UV-I 0 W/m 14,9 C 18,4 C 1,6 km/h (1 Bft) 95,74 %
22.06.2017 03:20 18,4 C 26,1 C 80 % 1013,3 hPa 0,0 l/m 1,2 km/h (1 Bft) O 86 0 min 0,000 mm 0,0 UV-I 0 W/m 14,9 C 18,4 C 3,2 km/h (1 Bft) 100,00 %
22.06.2017 03:22 18,4 C 26,1 C 81 % 1013,3 hPa 0,0 l/m 1,6 km/h (1 Bft) O 86 0 min 0,000 mm 0,0 UV-I 0 W/m 15,1 C 18,4 C 3,2 km/h (1 Bft) 93,75 %
22.06.2017 03:24 18,5 C 26,1 C 81 % 1013,3 hPa 0,0 l/m 0,3 km/h (0 Bft) O 86 0 min 0,000 mm 0,0 UV-I 0 W/m 15,2 C 18,5 C 1,6 km/h (1 Bft) 100,00 %
22.06.2017 03:26 18,4 C 26,1 C 81 % 1013,3 hPa 0,0 l/m 1,0 km/h (0 Bft) O 86 0 min 0,000 mm 0,0 UV-I 0 W/m 15,1 C 18,4 C 3,2 km/h (1 Bft) 95,74 %
22.06.2017 03:28 18,4 C 26,1 C 81 % 1013,2 hPa 0,0 l/m 1,4 km/h (1 Bft) O 86 0 min 0,000 mm 0,0 UV-I 0 W/m 15,1 C 18,4 C 3,2 km/h (1 Bft) 100,00 %
22.06.2017 03:30 18,3 C 26,1 C 81 % 1013,3 hPa 0,0 l/m 1,5 km/h (1 Bft) O 89 0 min 0,000 mm 0,0 UV-I 0 W/m 15,0 C 18,3 C 3,2 km/h (1 Bft) 97,87 %
22.06.2017 03:32 18,3 C 26,1 C 81 % 1013,2 hPa 0,0 l/m 1,1 km/h (1 Bft) O 89 0 min 0,000 mm 0,0 UV-I 0 W/m 15,0 C 18,3 C 3,2 km/h (1 Bft) 94,74 %
22.06.2017 03:34 18,3 C 26,1 C 81 % 1013,2 hPa 0,0 l/m 1,9 km/h (1 Bft) O 96 0 min 0,000 mm 0,0 UV-I 0 W/m 15,0 C 18,3 C 4,8 km/h (1 Bft) 97,87 %
22.06.2017 03:36 18,2 C 26,1 C 81 % 1013,2 hPa 0,0 l/m 2,5 km/h (1 Bft) O 96 0 min 0,000 mm 0,0 UV-I 0 W/m 14,9 C 18,2 C 4,8 km/h (1 Bft) 97,87 %
22.06.2017 03:38 18,2 C 26,1 C 81 % 1013,2 hPa 0,0 l/m 1,9 km/h (1 Bft) O 96 0 min 0,000 mm 0,0 UV-I 0 W/m 14,9 C 18,2 C 3,2 km/h (1 Bft) 98,00 %
22.06.2017 03:40 18,2 C 26,1 C 81 % 1013,2 hPa 0,0 l/m 2,5 km/h (1 Bft) O 96 0 min 0,000 mm 0,0 UV-I 0 W/m 14,9 C 18,2 C 4,8 km/h (1 Bft) 100,00 %
22.06.2017 03:42 18,3 C 26,1 C 81 % 1013,3 hPa 0,0 l/m 2,0 km/h (1 Bft) O 101 0 min 0,000 mm 0,0 UV-I 0 W/m 15,0 C 18,3 C 4,8 km/h (1 Bft) 94,00 %
22.06.2017 03:44 18,3 C 26,1 C 81 % 1013,3 hPa 0,0 l/m 1,0 km/h (0 Bft) O 101 0 min 0,000 mm 0,0 UV-I 0 W/m 15,0 C 18,3 C 3,2 km/h (1 Bft) 93,62 %
22.06.2017 03:46 18,3 C 26,1 C 80 % 1013,3 hPa 0,0 l/m 0,6 km/h (0 Bft) O 101 0 min 0,000 mm 0,0 UV-I 0 W/m 14,8 C 18,3 C 1,6 km/h (1 Bft) 91,67 %
22.06.2017 03:48 18,3 C 26,1 C 80 % 1013,3 hPa 0,0 l/m 1,7 km/h (1 Bft) O 101 0 min 0,000 mm 0,0 UV-I 0 W/m 14,8 C 18,3 C 4,8 km/h (1 Bft) 93,62 %
22.06.2017 03:50 18,3 C 26,1 C 80 % 1013,2 hPa 0,0 l/m 2,5 km/h (1 Bft) O-SO 107 0 min 0,000 mm 0,0 UV-I 0 W/m 14,8 C 18,3 C 4,8 km/h (1 Bft) 89,36 %
22.06.2017 03:52 18,4 C 26,1 C 79 % 1013,2 hPa 0,0 l/m 0,2 km/h (0 Bft) O-SO 107 0 min 0,000 mm 0,0 UV-I 0 W/m 14,7 C 18,4 C 1,6 km/h (1 Bft) 93,62 %
22.06.2017 03:54 18,4 C 26,1 C 79 % 1013,2 hPa 0,0 l/m 0,4 km/h (0 Bft) O-SO 107 0 min 0,000 mm 0,0 UV-I 0 W/m 14,7 C 18,4 C 1,6 km/h (1 Bft) 93,62 %
22.06.2017 03:56 18,4 C 26,1 C 79 % 1013,2 hPa 0,0 l/m 0,2 km/h (0 Bft) O-SO 107 0 min 0,000 mm 0,0 UV-I 0 W/m 14,7 C 18,4 C 1,6 km/h (1 Bft) 89,36 %
22.06.2017 03:58 18,4 C 26,1 C 79 % 1013,1 hPa 0,0 l/m 0,0 km/h (0 Bft) O-SO 107 0 min 0,000 mm 0,0 UV-I 0 W/m 14,7 C 18,4 C 1,6 km/h (1 Bft) 97,87 %
22.06.2017 04:00 18,4 C 26,1 C 78 % 1013,0 hPa 0,0 l/m 0,0 km/h (0 Bft) O-SO 107 0 min 0,000 mm 0,0 UV-I 0 W/m 14,5 C 18,4 C 0,0 km/h (0 Bft) 91,49 %
22.06.2017 04:02 18,4 C 26,1 C 78 % 1013,1 hPa 0,0 l/m 0,1 km/h (0 Bft) O-SO 107 0 min 0,000 mm 0,0 UV-I 0 W/m 14,5 C 18,4 C 1,6 km/h (1 Bft) 92,31 %
22.06.2017 04:04 18,4 C 26,1 C 78 % 1013,0 hPa 0,0 l/m 0,4 km/h (0 Bft) O-SO 107 0 min 0,000 mm 0,0 UV-I 0 W/m 14,5 C 18,4 C 1,6 km/h (1 Bft) 87,23 %
22.06.2017 04:06 18,4 C 26,1 C 78 % 1013,1 hPa 0,0 l/m 0,3 km/h (0 Bft) O-SO 107 0 min 0,000 mm 0,0 UV-I 0 W/m 14,5 C 18,4 C 1,6 km/h (1 Bft) 91,49 %
22.06.2017 04:08 18,4 C 26,1 C 78 % 1013,1 hPa 0,0 l/m 1,1 km/h (1 Bft) O-SO 107 0 min 0,000 mm 0,0 UV-I 0 W/m 14,5 C 18,4 C 3,2 km/h (1 Bft) 93,62 %
22.06.2017 04:10 18,4 C 26,1 C 78 % 1013,0 hPa 0,0 l/m 1,2 km/h (1 Bft) O-SO 108 0 min 0,000 mm 0,0 UV-I 0 W/m 14,5 C 18,4 C 3,2 km/h (1 Bft) 95,45 %
22.06.2017 04:12 18,5 C 26,1 C 78 % 1013,0 hPa 0,0 l/m 0,8 km/h (0 Bft) O-SO 108 0 min 0,000 mm 0,0 UV-I 0 W/m 14,6 C 18,5 C 3,2 km/h (1 Bft) 93,62 %
22.06.2017 04:14 18,5 C 26,1 C 77 % 1013,0 hPa 0,0 l/m 0,0 km/h (0 Bft) O-SO 108 0 min 0,000 mm 0,0 UV-I 0 W/m 14,4 C 18,5 C 0,0 km/h (0 Bft) 93,62 %
22.06.2017 04:16 18,4 C 26,1 C 78 % 1013,0 hPa 0,0 l/m 0,8 km/h (0 Bft) O-SO 108 0 min 0,000 mm 0,0 UV-I 0 W/m 14,5 C 18,4 C 3,2 km/h (1 Bft) 95,74 %
22.06.2017 04:18 18,3 C 26,1 C 78 % 1012,9 hPa 0,0 l/m 0,1 km/h (0 Bft) O-SO 108 0 min 0,000 mm 0,0 UV-I 0 W/m 14,4 C 18,3 C 1,6 km/h (1 Bft) 97,87 %
22.06.2017 04:20 18,3 C 26,1 C 79 % 1013,0 hPa 0,0 l/m 0,8 km/h (0 Bft) O-SO 108 0 min 0,000 mm 0,0 UV-I 0 W/m 14,6 C 18,3 C 3,2 km/h (1 Bft) 93,62 %
22.06.2017 04:22 18,3 C 26,1 C 78 % 1013,0 hPa 0,0 l/m 0,5 km/h (0 Bft) O-SO 108 0 min 0,000 mm 0,0 UV-I 0 W/m 14,4 C 18,3 C 1,6 km/h (1 Bft) 95,74 %
22.06.2017 04:24 18,3 C 26,1 C 79 % 1013,0 hPa 0,0 l/m 1,5 km/h (1 Bft) O-SO 108 0 min 0,000 mm 0,0 UV-I 0 W/m 14,6 C 18,3 C 4,8 km/h (1 Bft) 97,87 %
22.06.2017 04:26 18,2 C 26,1 C 79 % 1013,0 hPa 0,0 l/m 2,8 km/h (1 Bft) O-SO 109 0 min 0,000 mm 0,0 UV-I 0 W/m 14,5 C 18,2 C 4,8 km/h (1 Bft) 95,83 %
22.06.2017 04:28 18,2 C 26,1 C 79 % 1012,9 hPa 0,0 l/m 1,9 km/h (1 Bft) O-SO 109 0 min 0,000 mm 0,0 UV-I 0 W/m 14,5 C 18,2 C 3,2 km/h (1 Bft) 97,87 %
22.06.2017 04:30 18,2 C 26,1 C 79 % 1013,0 hPa 0,0 l/m 0,0 km/h (0 Bft) O-SO 109 0 min 0,000 mm 0,0 UV-I 0 W/m 14,5 C 18,2 C 1,6 km/h (1 Bft) 93,62 %
22.06.2017 04:32 18,1 C 26,1 C 80 % 1013,0 hPa 0,0 l/m 0,2 km/h (0 Bft) O-SO 109 0 min 0,000 mm 0,0 UV-I 0 W/m 14,6 C 18,1 C 1,6 km/h (1 Bft) 93,62 %
22.06.2017 04:34 17,9 C 26,1 C 80 % 1012,9 hPa 0,0 l/m 1,7 km/h (1 Bft) O-SO 109 0 min 0,000 mm 0,0 UV-I 0 W/m 14,4 C 17,9 C 4,8 km/h (1 Bft) 95,74 %
22.06.2017 04:36 17,8 C 26,1 C 80 % 1013,0 hPa 0,0 l/m 3,6 km/h (1 Bft) O-SO 112 0 min 0,000 mm 0,0 UV-I 0 W/m 14,3 C 17,8 C 6,4 km/h (2 Bft) 92,00 %
22.06.2017 04:38 17,7 C 26,1 C 81 % 1013,0 hPa 0,0 l/m 2,5 km/h (1 Bft) O-SO 112 0 min 0,000 mm 0,0 UV-I 0 W/m 14,4 C 17,7 C 4,8 km/h (1 Bft) 95,74 %
22.06.2017 04:40 17,7 C 26,1 C 80 % 1013,0 hPa 0,0 l/m 1,4 km/h (1 Bft) O-SO 112 0 min 0,000 mm 0,0 UV-I 0 W/m 14,2 C 17,7 C 4,8 km/h (1 Bft) 96,00 %
22.06.2017 04:42 17,8 C 26,1 C 79 % 1012,9 hPa 0,0 l/m 0,5 km/h (0 Bft) O-SO 112 0 min 0,000 mm 0,0 UV-I 0 W/m 14,1 C 17,8 C 1,6 km/h (1 Bft) 95,74 %
22.06.2017 04:44 17,8 C 26,1 C 78 % 1012,9 hPa 0,0 l/m 0,1 km/h (0 Bft) O-SO 112 0 min 0,000 mm 0,0 UV-I 0 W/m 13,9 C 17,8 C 1,6 km/h (1 Bft) 97,14 %
22.06.2017 04:46 17,9 C 26,1 C 78 % 1012,9 hPa 0,0 l/m 0,0 km/h (0 Bft) O-SO 112 0 min 0,000 mm 0,0 UV-I 0 W/m 14,0 C 17,9 C 1,6 km/h (1 Bft) 94,00 %
22.06.2017 04:48 18,0 C 26,1 C 78 % 1013,0 hPa 0,0 l/m 0,4 km/h (0 Bft) O-SO 112 0 min 0,000 mm 0,0 UV-I 0 W/m 14,1 C 18,0 C 3,2 km/h (1 Bft) 100,00 %
22.06.2017 04:50 18,0 C 26,1 C 78 % 1012,9 hPa 0,0 l/m 0,4 km/h (0 Bft) O-SO 112 0 min 0,000 mm 0,0 UV-I 0 W/m 14,1 C 18,0 C 1,6 km/h (1 Bft) 97,87 %
22.06.2017 04:52 18,1 C 26,1 C 78 % 1012,9 hPa 0,0 l/m 0,0 km/h (0 Bft) O-SO 112 0 min 0,000 mm 0,0 UV-I 0 W/m 14,2 C 18,1 C 0,0 km/h (0 Bft) 97,87 %
22.06.2017 04:54 17,9 C 26,1 C 78 % 1012,9 hPa 0,0 l/m 0,0 km/h (0 Bft) O-SO 112 0 min 0,000 mm 0,0 UV-I 5 W/m 14,0 C 17,9 C 0,0 km/h (0 Bft) 97,87 %
22.06.2017 04:56 17,8 C 26,1 C 79 % 1012,9 hPa 0,0 l/m 0,0 km/h (0 Bft) O-SO 112 0 min 0,000 mm 0,0 UV-I 5 W/m 14,1 C 17,8 C 0,0 km/h (0 Bft) 100,00 %
22.06.2017 04:58 17,6 C 26,1 C 80 % 1013,0 hPa 0,0 l/m 0,0 km/h (0 Bft) O-SO 112 0 min 0,000 mm 0,0 UV-I 5 W/m 14,1 C 17,6 C 0,0 km/h (0 Bft) 97,87 %
22.06.2017 05:00 17,4 C 26,1 C 80 % 1013,0 hPa 0,0 l/m 0,4 km/h (0 Bft) O-SO 112 0 min 0,000 mm 0,0 UV-I 5 W/m 13,9 C 17,4 C 1,6 km/h (1 Bft) 100,00 %
22.06.2017 05:02 17,3 C 26,1 C 81 % 1013,0 hPa 0,0 l/m 0,1 km/h (0 Bft) O-SO 112 0 min 0,000 mm 0,0 UV-I 5 W/m 14,0 C 17,3 C 1,6 km/h (1 Bft) 97,87 %
22.06.2017 05:04 17,2 C 26,1 C 81 % 1013,0 hPa 0,0 l/m 0,0 km/h (0 Bft) O-SO 112 0 min 0,000 mm 0,0 UV-I 6 W/m 13,9 C 17,2 C 0,0 km/h (0 Bft) 97,87 %
22.06.2017 05:06 17,2 C 26,1 C 82 % 1013,1 hPa 0,0 l/m 0,0 km/h (0 Bft) O-SO 112 0 min 0,000 mm 0,0 UV-I 7 W/m 14,1 C 17,2 C 0,0 km/h (0 Bft) 98,00 %
22.06.2017 05:08 17,2 C 26,1 C 82 % 1013,0 hPa 0,0 l/m 0,0 km/h (0 Bft) O-SO 112 0 min 0,000 mm 0,0 UV-I 7 W/m 14,1 C 17,2 C 0,0 km/h (0 Bft) 97,87 %
22.06.2017 05:10 17,2 C 26,1 C 82 % 1013,1 hPa 0,0 l/m 0,0 km/h (0 Bft) O-SO 112 0 min 0,000 mm 0,0 UV-I 8 W/m 14,1 C 17,2 C 0,0 km/h (0 Bft) 100,00 %
22.06.2017 05:12 17,2 C 26,1 C 82 % 1013,1 hPa 0,0 l/m 0,0 km/h (0 Bft) O-SO 112 0 min 0,000 mm 0,0 UV-I 9 W/m 14,1 C 17,2 C 0,0 km/h (0 Bft) 100,00 %
22.06.2017 05:14 17,2 C 26,1 C 81 % 1013,1 hPa 0,0 l/m 0,0 km/h (0 Bft) O-SO 112 0 min 0,000 mm 0,0 UV-I 10 W/m 13,9 C 17,2 C 0,0 km/h (0 Bft) 100,00 %
22.06.2017 05:16 17,2 C 26,1 C 81 % 1013,1 hPa 0,0 l/m 0,0 km/h (0 Bft) O-SO 112 0 min 0,000 mm 0,0 UV-I 11 W/m 13,9 C 17,2 C 0,0 km/h (0 Bft) 100,00 %
22.06.2017 05:18 17,2 C 26,1 C 81 % 1013,1 hPa 0,0 l/m 0,0 km/h (0 Bft) O-SO 112 2 min 0,000 mm 0,0 UV-I 12 W/m 13,9 C 17,2 C 0,0 km/h (0 Bft) 95,74 %
22.06.2017 05:20 17,1 C 25,6 C 81 % 1013,1 hPa 0,0 l/m 0,0 km/h (0 Bft) O-SO 112 2 min 0,000 mm 0,0 UV-I 13 W/m 13,8 C 17,1 C 0,0 km/h (0 Bft) 95,74 %
22.06.2017 05:22 17,1 C 25,6 C 82 % 1013,1 hPa 0,0 l/m 0,0 km/h (0 Bft) O-SO 112 0 min 0,000 mm 0,0 UV-I 15 W/m 14,0 C 17,1 C 0,0 km/h (0 Bft) 100,00 %
22.06.2017 05:24 17,1 C 25,6 C 82 % 1013,1 hPa 0,0 l/m 0,0 km/h (0 Bft) O-SO 112 0 min 0,000 mm 0,0 UV-I 16 W/m 14,0 C 17,1 C 0,0 km/h (0 Bft) 95,74 %
22.06.2017 05:26 17,2 C 25,6 C 81 % 1013,1 hPa 0,0 l/m 0,0 km/h (0 Bft) O-SO 112 0 min 0,000 mm 0,0 UV-I 18 W/m 13,9 C 17,2 C 0,0 km/h (0 Bft) 100,00 %
22.06.2017 05:28 17,2 C 25,6 C 81 % 1013,1 hPa 0,0 l/m 0,0 km/h (0 Bft) O-SO 112 0 min 0,000 mm 0,0 UV-I 20 W/m 13,9 C 17,2 C 0,0 km/h (0 Bft) 100,00 %
22.06.2017 05:30 17,3 C 25,6 C 81 % 1013,2 hPa 0,0 l/m 0,0 km/h (0 Bft) O-SO 112 0 min 0,000 mm 0,0 UV-I 22 W/m 14,0 C 17,3 C 0,0 km/h (0 Bft) 96,00 %
22.06.2017 05:32 17,3 C 25,6 C 81 % 1013,2 hPa 0,0 l/m 0,0 km/h (0 Bft) O-SO 112 0 min 0,000 mm 0,0 UV-I 23 W/m 14,0 C 17,3 C 0,0 km/h (0 Bft) 100,00 %
22.06.2017 05:34 17,3 C 25,6 C 81 % 1013,2 hPa 0,0 l/m 0,0 km/h (0 Bft) O-SO 112 0 min 0,000 mm 0,0 UV-I 25 W/m 14,0 C 17,3 C 0,0 km/h (0 Bft) 97,87 %
22.06.2017 05:36 17,3 C 25,6 C 81 % 1013,2 hPa 0,0 l/m 0,0 km/h (0 Bft) O-SO 112 0 min 0,000 mm 0,0 UV-I 25 W/m 14,0 C 17,3 C 0,0 km/h (0 Bft) 95,74 %
22.06.2017 05:38 17,3 C 25,6 C 82 % 1013,2 hPa 0,0 l/m 0,0 km/h (0 Bft) O-SO 112 0 min 0,000 mm 0,0 UV-I 26 W/m 14,2 C 17,3 C 0,0 km/h (0 Bft) 100,00 %
22.06.2017 05:40 17,2 C 25,6 C 82 % 1013,1 hPa 0,0 l/m 0,0 km/h (0 Bft) O-SO 112 0 min 0,000 mm 0,0 UV-I 26 W/m 14,1 C 17,2 C 0,0 km/h (0 Bft) 100,00 %
22.06.2017 05:42 17,2 C 25,6 C 82 % 1013,1 hPa 0,0 l/m 0,0 km/h (0 Bft) O-SO 112 0 min 0,000 mm 0,0 UV-I 27 W/m 14,1 C 17,2 C 0,0 km/h (0 Bft) 91,49 %
22.06.2017 05:44 17,2 C 25,6 C 83 % 1013,1 hPa 0,0 l/m 0,0 km/h (0 Bft) O-SO 112 0 min 0,000 mm 0,0 UV-I 30 W/m 14,3 C 17,2 C 0,0 km/h (0 Bft) 97,87 %
22.06.2017 05:46 17,1 C 25,6 C 83 % 1013,1 hPa 0,0 l/m 0,0 km/h (0 Bft) O-SO 112 0 min 0,000 mm 0,0 UV-I 33 W/m 14,2 C 17,1 C 0,0 km/h (0 Bft) 93,62 %
22.06.2017 05:48 17,0 C 25,6 C 83 % 1013,1 hPa 0,0 l/m 0,0 km/h (0 Bft) O-SO 112 0 min 0,000 mm 0,0 UV-I 37 W/m 14,1 C 17,0 C 0,0 km/h (0 Bft) 91,67 %
22.06.2017 05:50 16,9 C 25,6 C 84 % 1013,2 hPa 0,0 l/m 0,0 km/h (0 Bft) O-SO 112 0 min 0,000 mm 0,0 UV-I 38 W/m 14,2 C 16,9 C 0,0 km/h (0 Bft) 96,00 %
22.06.2017 05:52 16,9 C 25,6 C 83 % 1013,2 hPa 0,0 l/m 0,0 km/h (0 Bft) O-SO 112 0 min 0,000 mm 0,0 UV-I 41 W/m 14,0 C 16,9 C 0,0 km/h (0 Bft) 94,74 %
22.06.2017 05:54 16,8 C 25,6 C 83 % 1013,2 hPa 0,0 l/m 0,0 km/h (0 Bft) O-SO 112 0 min 0,000 mm 0,0 UV-I 41 W/m 13,9 C 16,8 C 0,0 km/h (0 Bft) 95,74 %
22.06.2017 05:56 16,8 C 25,6 C 83 % 1013,2 hPa 0,0 l/m 0,0 km/h (0 Bft) O-SO 112 0 min 0,000 mm 0,0 UV-I 41 W/m 13,9 C 16,8 C 0,0 km/h (0 Bft) 93,62 %
22.06.2017 05:58 16,9 C 25,6 C 83 % 1013,3 hPa 0,0 l/m 0,0 km/h (0 Bft) O-SO 112 0 min 0,000 mm 0,0 UV-I 47 W/m 14,0 C 16,9 C 0,0 km/h (0 Bft) 97,87 %
22.06.2017 06:00 16,9 C 25,6 C 82 % 1013,3 hPa 0,0 l/m 0,1 km/h (0 Bft) O-SO 112 0 min 0,025 mm 0,0 UV-I 54 W/m 13,8 C 16,9 C 1,6 km/h (1 Bft) 91,49 %
22.06.2017 06:02 17,0 C 25,6 C 83 % 1013,3 hPa 0,0 l/m 0,3 km/h (0 Bft) O-SO 112 0 min 0,000 mm 0,0 UV-I 58 W/m 14,1 C 17,0 C 1,6 km/h (1 Bft) 96,08 %
22.06.2017 06:04 17,1 C 25,6 C 83 % 1013,3 hPa 0,0 l/m 0,0 km/h (0 Bft) O-SO 112 0 min 0,000 mm 0,0 UV-I 57 W/m 14,2 C 17,1 C 1,6 km/h (1 Bft) 95,74 %
22.06.2017 06:06 17,1 C 25,6 C 82 % 1013,3 hPa 0,0 l/m 0,0 km/h (0 Bft) O-SO 112 0 min 0,000 mm 0,0 UV-I 60 W/m 14,0 C 17,1 C 0,0 km/h (0 Bft) 91,49 %
22.06.2017 06:08 17,3 C 25,6 C 82 % 1013,4 hPa 0,0 l/m 0,0 km/h (0 Bft) O-SO 112 0 min 0,000 mm 0,0 UV-I 68 W/m 14,2 C 17,3 C 0,0 km/h (0 Bft) 97,87 %
22.06.2017 06:10 17,4 C 25,6 C 82 % 1013,5 hPa 0,0 l/m 0,9 km/h (0 Bft) O-SO 112 0 min 0,000 mm 0,0 UV-I 74 W/m 14,3 C 17,4 C 1,6 km/h (1 Bft) 95,74 %
22.06.2017 06:12 17,4 C 25,6 C 82 % 1013,5 hPa 0,0 l/m 1,1 km/h (1 Bft) O-SO 112 0 min 0,000 mm 0,0 UV-I 80 W/m 14,3 C 17,4 C 1,6 km/h (1 Bft) 90,00 %
22.06.2017 06:14 17,4 C 25,6 C 82 % 1013,5 hPa 0,0 l/m 0,1 km/h (0 Bft) O-SO 112 0 min 0,000 mm 0,0 UV-I 85 W/m 14,3 C 17,4 C 1,6 km/h (1 Bft) 95,74 %
22.06.2017 06:16 17,4 C 25,6 C 82 % 1013,5 hPa 0,0 l/m 1,0 km/h (0 Bft) O-SO 112 0 min 0,000 mm 0,0 UV-I 85 W/m 14,3 C 17,4 C 3,2 km/h (1 Bft) 93,62 %
22.06.2017 06:18 17,4 C 25,6 C 82 % 1013,5 hPa 0,0 l/m 0,0 km/h (0 Bft) O-SO 112 0 min 0,000 mm 0,0 UV-I 84 W/m 14,3 C 17,4 C 1,6 km/h (1 Bft) 100,00 %
22.06.2017 06:20 17,4 C 25,6 C 82 % 1013,6 hPa 0,0 l/m 0,0 km/h (0 Bft) O-SO 112 0 min 0,000 mm 0,0 UV-I 71 W/m 14,3 C 17,4 C 0,0 km/h (0 Bft) 97,87 %
22.06.2017 06:22 17,6 C 25,6 C 82 % 1013,5 hPa 0,0 l/m 0,0 km/h (0 Bft) O-SO 112 0 min 0,000 mm 0,0 UV-I 69 W/m 14,5 C 17,6 C 1,6 km/h (1 Bft) 100,00 %
22.06.2017 06:24 17,6 C 25,6 C 83 % 1013,6 hPa 0,0 l/m 1,5 km/h (1 Bft) O-SO 112 0 min 0,000 mm 0,0 UV-I 85 W/m 14,7 C 17,6 C 1,6 km/h (1 Bft) 98,00 %
22.06.2017 06:26 17,6 C 25,6 C 83 % 1013,6 hPa 0,0 l/m 2,2 km/h (1 Bft) O-SO 112 0 min 0,000 mm 0,0 UV-I 92 W/m 14,7 C 17,6 C 3,2 km/h (1 Bft) 100,00 %
22.06.2017 06:28 17,7 C 25,6 C 81 % 1013,6 hPa 0,0 l/m 1,9 km/h (1 Bft) O-SO 112 0 min 0,000 mm 0,0 UV-I 87 W/m 14,4 C 17,7 C 3,2 km/h (1 Bft) 97,92 %
22.06.2017 06:30 17,8 C 25,6 C 81 % 1013,6 hPa 0,0 l/m 0,0 km/h (0 Bft) O-SO 112 0 min 0,000 mm 0,0 UV-I 100 W/m 14,5 C 17,8 C 0,0 km/h (0 Bft) 100,00 %
22.06.2017 06:32 17,9 C 25,6 C 81 % 1013,6 hPa 0,0 l/m 1,1 km/h (1 Bft) O-SO 112 2 min 0,000 mm 0,0 UV-I 122 W/m 14,6 C 17,9 C 3,2 km/h (1 Bft) 95,74 %
22.06.2017 06:34 18,1 C 25,6 C 80 % 1013,6 hPa 0,0 l/m 0,9 km/h (0 Bft) O-SO 112 2 min 0,000 mm 0,0 UV-I 126 W/m 14,6 C 18,1 C 3,2 km/h (1 Bft) 95,74 %
22.06.2017 06:36 18,2 C 25,6 C 80 % 1013,7 hPa 0,0 l/m 1,1 km/h (1 Bft) O-SO 112 2 min 0,000 mm 0,0 UV-I 125 W/m 14,7 C 18,2 C 3,2 km/h (1 Bft) 95,74 %
22.06.2017 06:38 18,3 C 25,6 C 80 % 1013,7 hPa 0,0 l/m 1,2 km/h (1 Bft) O-SO 112 2 min 0,000 mm 0,0 UV-I 127 W/m 14,8 C 18,3 C 3,2 km/h (1 Bft) 100,00 %
22.06.2017 06:40 18,4 C 25,6 C 80 % 1013,7 hPa 0,0 l/m 0,0 km/h (0 Bft) O-SO 112 2 min 0,000 mm 0,0 UV-I 136 W/m 14,9 C 18,4 C 1,6 km/h (1 Bft) 97,87 %
22.06.2017 06:42 18,6 C 25,6 C 78 % 1013,8 hPa 0,0 l/m 0,3 km/h (0 Bft) O-SO 112 2 min 0,000 mm 0,0 UV-I 141 W/m 14,7 C 18,6 C 1,6 km/h (1 Bft) 100,00 %
22.06.2017 06:44 18,7 C 25,6 C 77 % 1013,8 hPa 0,0 l/m 0,4 km/h (0 Bft) O-SO 112 2 min 0,000 mm 0,0 UV-I 143 W/m 14,6 C 18,7 C 1,6 km/h (1 Bft) 97,87 %
22.06.2017 06:46 18,9 C 25,6 C 77 % 1013,8 hPa 0,0 l/m 0,1 km/h (0 Bft) O-SO 112 2 min 0,000 mm 0,0 UV-I 147 W/m 14,8 C 18,9 C 1,6 km/h (1 Bft) 95,74 %
22.06.2017 06:48 18,9 C 25,6 C 76 % 1013,8 hPa 0,0 l/m 0,5 km/h (0 Bft) O-SO 112 2 min 0,000 mm 0,0 UV-I 148 W/m 14,6 C 18,9 C 3,2 km/h (1 Bft) 100,00 %
22.06.2017 06:50 19,1 C 25,6 C 75 % 1013,8 hPa 0,0 l/m 0,4 km/h (0 Bft) O-SO 112 0 min 0,000 mm 0,0 UV-I 136 W/m 14,6 C 19,1 C 3,2 km/h (1 Bft) 100,00 %
22.06.2017 06:52 19,1 C 25,6 C 75 % 1013,7 hPa 0,0 l/m 0,4 km/h (0 Bft) O-SO 112 0 min 0,000 mm 0,0 UV-I 126 W/m 14,6 C 19,1 C 3,2 km/h (1 Bft) 97,87 %
22.06.2017 06:54 19,2 C 25,6 C 76 % 1013,8 hPa 0,0 l/m 0,1 km/h (0 Bft) O-SO 112 2 min 0,000 mm 0,0 UV-I 149 W/m 14,9 C 19,2 C 1,6 km/h (1 Bft) 100,00 %
22.06.2017 06:56 19,3 C 25,6 C 76 % 1013,8 hPa 0,0 l/m 0,0 km/h (0 Bft) O-SO 112 2 min 0,000 mm 0,0 UV-I 174 W/m 15,0 C 19,3 C 1,6 km/h (1 Bft) 100,00 %
22.06.2017 06:58 19,5 C 25,6 C 75 % 1013,8 hPa 0,0 l/m 0,2 km/h (0 Bft) O-SO 112 2 min 0,000 mm 0,0 UV-I 184 W/m 14,9 C 19,5 C 1,6 km/h (1 Bft) 93,62 %
22.06.2017 07:00 19,7 C 25,6 C 75 % 1013,8 hPa 0,0 l/m 0,0 km/h (0 Bft) O-SO 112 2 min 0,077 mm 0,0 UV-I 191 W/m 15,1 C 19,7 C 0,0 km/h (0 Bft) 100,00 %
22.06.2017 07:02 19,7 C 25,6 C 74 % 1013,8 hPa 0,0 l/m 0,0 km/h (0 Bft) O-SO 112 2 min 0,000 mm 0,0 UV-I 199 W/m 14,9 C 19,7 C 0,0 km/h (0 Bft) 90,00 %
22.06.2017 07:04 19,8 C 25,6 C 74 % 1013,8 hPa 0,0 l/m 1,0 km/h (0 Bft) O-SO 112 2 min 0,000 mm 0,0 UV-I 199 W/m 15,0 C 19,8 C 3,2 km/h (1 Bft) 95,74 %
22.06.2017 07:06 19,8 C 25,6 C 74 % 1013,9 hPa 0,0 l/m 0,1 km/h (0 Bft) O-SO 112 2 min 0,000 mm 0,0 UV-I 202 W/m 15,0 C 19,8 C 1,6 km/h (1 Bft) 100,00 %
22.06.2017 07:08 19,9 C 25,6 C 73 % 1013,9 hPa 0,0 l/m 1,7 km/h (1 Bft) O-SO 112 2 min 0,000 mm 0,0 UV-I 217 W/m 14,9 C 19,9 C 4,8 km/h (1 Bft) 97,92 %
22.06.2017 07:10 20,1 C 25,6 C 72 % 1013,9 hPa 0,0 l/m 1,4 km/h (1 Bft) O-SO 112 2 min 0,000 mm 0,3 UV-I 228 W/m 14,9 C 20,1 C 3,2 km/h (1 Bft) 95,74 %
22.06.2017 07:12 20,2 C 25,6 C 72 % 1013,9 hPa 0,0 l/m 0,7 km/h (0 Bft) O-SO 112 2 min 0,000 mm 0,5 UV-I 230 W/m 15,0 C 20,2 C 3,2 km/h (1 Bft) 97,87 %
22.06.2017 07:14 20,3 C 25,6 C 72 % 1013,9 hPa 0,0 l/m 1,6 km/h (1 Bft) O-SO 112 2 min 0,000 mm 0,5 UV-I 231 W/m 15,1 C 20,3 C 4,8 km/h (1 Bft) 100,00 %
22.06.2017 07:16 20,4 C 25,6 C 73 % 1013,9 hPa 0,0 l/m 1,8 km/h (1 Bft) O-SO 112 2 min 0,000 mm 0,5 UV-I 234 W/m 15,4 C 20,4 C 4,8 km/h (1 Bft) 96,08 %
22.06.2017 07:18 20,4 C 25,6 C 72 % 1013,9 hPa 0,0 l/m 2,8 km/h (1 Bft) O-SO 116 2 min 0,000 mm 0,5 UV-I 222 W/m 15,2 C 20,4 C 6,4 km/h (2 Bft) 93,62 %
22.06.2017 07:20 20,5 C 25,6 C 72 % 1014,0 hPa 0,0 l/m 2,0 km/h (1 Bft) O-SO 116 2 min 0,000 mm 0,5 UV-I 240 W/m 15,3 C 20,5 C 4,8 km/h (1 Bft) 91,49 %
22.06.2017 07:22 20,5 C 25,6 C 72 % 1013,9 hPa 0,0 l/m 1,4 km/h (1 Bft) O-SO 116 2 min 0,000 mm 0,6 UV-I 248 W/m 15,3 C 20,5 C 3,2 km/h (1 Bft) 97,87 %
22.06.2017 07:24 20,6 C 25,6 C 73 % 1013,9 hPa 0,0 l/m 1,8 km/h (1 Bft) O-SO 116 2 min 0,000 mm 0,6 UV-I 255 W/m 15,6 C 20,6 C 3,2 km/h (1 Bft) 95,74 %
22.06.2017 07:26 20,5 C 25,6 C 73 % 1013,9 hPa 0,0 l/m 2,4 km/h (1 Bft) O-SO 116 2 min 0,000 mm 0,6 UV-I 268 W/m 15,5 C 20,5 C 4,8 km/h (1 Bft) 96,00 %
22.06.2017 07:28 20,6 C 25,6 C 72 % 1013,9 hPa 0,0 l/m 1,1 km/h (1 Bft) O-SO 116 2 min 0,000 mm 0,6 UV-I 278 W/m 15,4 C 20,6 C 1,6 km/h (1 Bft) 96,00 %
22.06.2017 07:30 20,6 C 25,6 C 72 % 1013,9 hPa 0,0 l/m 0,4 km/h (0 Bft) O-SO 116 2 min 0,000 mm 0,6 UV-I 289 W/m 15,4 C 20,6 C 1,6 km/h (1 Bft) 95,74 %
22.06.2017 07:32 20,7 C 25,6 C 72 % 1014,0 hPa 0,0 l/m 0,9 km/h (0 Bft) O-SO 116 2 min 0,000 mm 0,6 UV-I 263 W/m 15,5 C 20,7 C 3,2 km/h (1 Bft) 95,74 %
22.06.2017 07:34 20,8 C 25,6 C 71 % 1014,0 hPa 0,0 l/m 1,8 km/h (1 Bft) O-SO 116 0 min 0,000 mm 0,7 UV-I 183 W/m 15,3 C 20,8 C 3,2 km/h (1 Bft) 97,87 %
22.06.2017 07:36 20,9 C 25,6 C 72 % 1014,0 hPa 0,0 l/m 3,1 km/h (1 Bft) SW 227 2 min 0,000 mm 0,7 UV-I 341 W/m 15,7 C 20,9 C 6,4 km/h (2 Bft) 97,87 %
22.06.2017 07:38 20,9 C 25,6 C 71 % 1014,0 hPa 0,0 l/m 5,4 km/h (1 Bft) W-SW 241 2 min 0,000 mm 0,7 UV-I 342 W/m 15,4 C 20,9 C 8,0 km/h (2 Bft) 91,49 %
22.06.2017 07:40 21,1 C 25,6 C 72 % 1014,0 hPa 0,0 l/m 4,6 km/h (1 Bft) S-SW 201 2 min 0,000 mm 0,7 UV-I 290 W/m 15,8 C 21,1 C 8,0 km/h (2 Bft) 100,00 %
22.06.2017 07:42 21,3 C 25,6 C 71 % 1014,0 hPa 0,0 l/m 4,4 km/h (1 Bft) SW 218 2 min 0,000 mm 0,7 UV-I 346 W/m 15,8 C 21,3 C 8,0 km/h (2 Bft) 94,00 %
22.06.2017 07:44 21,4 C 25,6 C 71 % 1014,0 hPa 0,0 l/m 3,8 km/h (1 Bft) SW 219 2 min 0,000 mm 0,7 UV-I 310 W/m 15,9 C 21,4 C 4,8 km/h (1 Bft) 93,62 %
22.06.2017 07:46 21,5 C 25,6 C 70 % 1014,0 hPa 0,0 l/m 4,5 km/h (1 Bft) SW 229 2 min 0,000 mm 0,8 UV-I 277 W/m 15,8 C 21,5 C 6,4 km/h (2 Bft) 97,87 %
22.06.2017 07:48 21,6 C 25,6 C 70 % 1014,1 hPa 0,0 l/m 4,1 km/h (1 Bft) SW 226 2 min 0,000 mm 0,8 UV-I 290 W/m 15,9 C 21,6 C 6,4 km/h (2 Bft) 94,00 %
22.06.2017 07:50 21,7 C 25,6 C 71 % 1014,1 hPa 0,0 l/m 2,8 km/h (1 Bft) SW 218 2 min 0,000 mm 0,8 UV-I 378 W/m 16,2 C 21,7 C 6,4 km/h (2 Bft) 94,00 %
22.06.2017 07:52 21,8 C 25,6 C 71 % 1014,1 hPa 0,0 l/m 5,8 km/h (2 Bft) SW 219 2 min 0,000 mm 0,9 UV-I 378 W/m 16,3 C 21,8 C 9,7 km/h (2 Bft) 93,62 %
22.06.2017 07:54 21,9 C 25,6 C 70 % 1014,1 hPa 0,0 l/m 4,1 km/h (1 Bft) W-SW 240 2 min 0,000 mm 0,9 UV-I 379 W/m 16,2 C 21,9 C 6,4 km/h (2 Bft) 88,57 %
22.06.2017 07:56 21,9 C 25,6 C 70 % 1014,1 hPa 0,0 l/m 3,4 km/h (1 Bft) SW 229 2 min 0,000 mm 0,9 UV-I 410 W/m 16,2 C 21,9 C 6,4 km/h (2 Bft) 96,00 %
22.06.2017 07:58 21,9 C 25,6 C 70 % 1014,1 hPa 0,0 l/m 4,9 km/h (1 Bft) S-SW 207 2 min 0,000 mm 0,9 UV-I 370 W/m 16,2 C 21,9 C 6,4 km/h (2 Bft) 94,00 %
22.06.2017 08:00 22,0 C 25,6 C 69 % 1014,1 hPa 0,0 l/m 4,9 km/h (1 Bft) SW 226 0 min 0,177 mm 0,9 UV-I 202 W/m 16,0 C 22,0 C 6,4 km/h (2 Bft) 93,62 %
22.06.2017 08:02 21,9 C 25,6 C 70 % 1014,0 hPa 0,0 l/m 3,9 km/h (1 Bft) SW 226 0 min 0,000 mm 0,9 UV-I 194 W/m 16,2 C 21,9 C 4,8 km/h (1 Bft) 89,36 %
22.06.2017 08:04 21,8 C 25,6 C 69 % 1014,1 hPa 0,0 l/m 3,9 km/h (1 Bft) SW 227 0 min 0,000 mm 1,0 UV-I 193 W/m 15,9 C 21,8 C 4,8 km/h (1 Bft) 96,00 %
22.06.2017 08:06 21,9 C 25,6 C 70 % 1014,1 hPa 0,0 l/m 4,9 km/h (1 Bft) SW 223 2 min 0,000 mm 1,0 UV-I 360 W/m 16,2 C 21,9 C 6,4 km/h (2 Bft) 92,68 %
22.06.2017 08:08 22,0 C 25,6 C 70 % 1014,1 hPa 0,0 l/m 5,1 km/h (1 Bft) SW 225 2 min 0,000 mm 1,1 UV-I 406 W/m 16,3 C 22,0 C 8,0 km/h (2 Bft) 94,00 %
22.06.2017 08:10 22,1 C 25,6 C 69 % 1014,1 hPa 0,0 l/m 3,9 km/h (1 Bft) SW 216 2 min 0,000 mm 1,1 UV-I 365 W/m 16,1 C 22,1 C 6,4 km/h (2 Bft) 94,00 %
22.06.2017 08:12 22,1 C 25,6 C 70 % 1014,1 hPa 0,0 l/m 5,0 km/h (1 Bft) S-SW 202 2 min 0,000 mm 1,1 UV-I 359 W/m 16,4 C 22,1 C 8,0 km/h (2 Bft) 96,00 %
22.06.2017 08:14 22,2 C 25,6 C 69 % 1014,1 hPa 0,0 l/m 5,8 km/h (2 Bft) W-SW 237 2 min 0,000 mm 1,2 UV-I 428 W/m 16,2 C 22,2 C 9,7 km/h (2 Bft) 97,14 %
22.06.2017 08:16 22,3 C 25,6 C 69 % 1014,1 hPa 0,0 l/m 5,8 km/h (2 Bft) S-SW 198 2 min 0,000 mm 1,2 UV-I 443 W/m 16,3 C 22,3 C 9,7 km/h (2 Bft) 96,00 %
22.06.2017 08:18 22,3 C 25,6 C 69 % 1014,1 hPa 0,0 l/m 5,6 km/h (1 Bft) S-SW 202 2 min 0,000 mm 1,3 UV-I 458 W/m 16,3 C 22,3 C 8,0 km/h (2 Bft) 98,00 %
22.06.2017 08:20 22,4 C 25,6 C 68 % 1014,1 hPa 0,0 l/m 6,4 km/h (2 Bft) S-SW 209 2 min 0,000 mm 1,2 UV-I 445 W/m 16,2 C 22,4 C 9,7 km/h (2 Bft) 97,87 %
22.06.2017 08:22 22,3 C 25,6 C 68 % 1014,1 hPa 0,0 l/m 5,7 km/h (1 Bft) SW 214 0 min 0,000 mm 1,2 UV-I 268 W/m 16,1 C 22,3 C 8,0 km/h (2 Bft) 97,44 %
22.06.2017 08:24 22,3 C 25,6 C 69 % 1014,2 hPa 0,0 l/m 5,5 km/h (1 Bft) S-SW 209 0 min 0,000 mm 1,3 UV-I 232 W/m 16,3 C 22,3 C 8,0 km/h (2 Bft) 100,00 %
22.06.2017 08:26 22,4 C 25,6 C 69 % 1014,1 hPa 0,0 l/m 4,1 km/h (1 Bft) S 190 2 min 0,000 mm 1,4 UV-I 376 W/m 16,4 C 22,4 C 6,4 km/h (2 Bft) 95,74 %
22.06.2017 08:28 22,5 C 25,6 C 69 % 1014,2 hPa 0,0 l/m 3,6 km/h (1 Bft) S 188 2 min 0,000 mm 1,4 UV-I 462 W/m 16,5 C 22,5 C 6,4 km/h (2 Bft) 97,87 %
22.06.2017 08:30 22,7 C 25,6 C 69 % 1014,2 hPa 0,0 l/m 5,2 km/h (1 Bft) S-SW 210 2 min 0,000 mm 1,4 UV-I 462 W/m 16,7 C 22,7 C 8,0 km/h (2 Bft) 100,00 %
22.06.2017 08:32 22,8 C 25,6 C 68 % 1014,2 hPa 0,0 l/m 4,9 km/h (1 Bft) W-SW 240 2 min 0,000 mm 1,3 UV-I 432 W/m 16,6 C 22,8 C 6,4 km/h (2 Bft) 98,00 %
22.06.2017 08:34 22,7 C 25,6 C 67 % 1014,2 hPa 0,0 l/m 5,3 km/h (1 Bft) SW 234 0 min 0,000 mm 1,3 UV-I 272 W/m 16,2 C 22,7 C 8,0 km/h (2 Bft) 100,00 %
22.06.2017 08:36 22,7 C 25,6 C 68 % 1014,2 hPa 0,0 l/m 2,6 km/h (1 Bft) SW 215 0 min 0,000 mm 1,4 UV-I 257 W/m 16,5 C 22,7 C 4,8 km/h (1 Bft) 97,87 %
22.06.2017 08:38 22,8 C 25,6 C 70 % 1014,1 hPa 0,0 l/m 3,3 km/h (1 Bft) SW 217 0 min 0,000 mm 1,5 UV-I 276 W/m 17,0 C 22,8 C 6,4 km/h (2 Bft) 100,00 %
22.06.2017 08:40 22,9 C 25,6 C 68 % 1014,1 hPa 0,0 l/m 3,3 km/h (1 Bft) SW 227 2 min 0,000 mm 1,6 UV-I 434 W/m 16,7 C 22,9 C 4,8 km/h (1 Bft) 97,87 %
22.06.2017 08:42 22,9 C 25,6 C 68 % 1014,1 hPa 0,0 l/m 3,3 km/h (1 Bft) SW 231 2 min 0,000 mm 1,7 UV-I 462 W/m 16,7 C 22,9 C 8,0 km/h (2 Bft) 100,00 %
22.06.2017 08:44 23,0 C 25,6 C 68 % 1014,2 hPa 0,0 l/m 5,4 km/h (1 Bft) S 187 2 min 0,000 mm 1,7 UV-I 458 W/m 16,8 C 23,0 C 9,7 km/h (2 Bft) 100,00 %
22.06.2017 08:46 23,2 C 25,6 C 67 % 1014,1 hPa 0,0 l/m 4,8 km/h (1 Bft) S-SW 194 2 min 0,000 mm 1,7 UV-I 456 W/m 16,7 C 23,2 C 9,7 km/h (2 Bft) 97,87 %
22.06.2017 08:48 23,3 C 25,6 C 67 % 1014,1 hPa 0,0 l/m 5,3 km/h (1 Bft) S-SW 211 2 min 0,000 mm 1,8 UV-I 482 W/m 16,8 C 23,3 C 9,7 km/h (2 Bft) 97,87 %
22.06.2017 08:50 23,4 C 25,6 C 67 % 1014,1 hPa 0,0 l/m 2,4 km/h (1 Bft) S-SW 212 2 min 0,000 mm 1,8 UV-I 491 W/m 16,9 C 23,4 C 4,8 km/h (1 Bft) 97,87 %
22.06.2017 08:52 23,5 C 26,1 C 67 % 1014,1 hPa 0,0 l/m 5,2 km/h (1 Bft) S-SW 213 2 min 0,000 mm 1,9 UV-I 492 W/m 17,0 C 23,5 C 8,0 km/h (2 Bft) 95,74 %
22.06.2017 08:54 23,6 C 26,1 C 65 % 1014,1 hPa 0,0 l/m 3,9 km/h (1 Bft) S-SW 213 2 min 0,000 mm 1,9 UV-I 506 W/m 16,6 C 23,6 C 8,0 km/h (2 Bft) 100,00 %
22.06.2017 08:56 23,7 C 26,1 C 65 % 1014,2 hPa 0,0 l/m 3,7 km/h (1 Bft) SW 217 2 min 0,000 mm 2,0 UV-I 501 W/m 16,7 C 23,7 C 8,0 km/h (2 Bft) 97,87 %
22.06.2017 08:58 23,8 C 26,1 C 66 % 1014,2 hPa 0,0 l/m 3,6 km/h (1 Bft) SW 217 2 min 0,000 mm 1,9 UV-I 479 W/m 17,1 C 23,8 C 6,4 km/h (2 Bft) 97,87 %
22.06.2017 09:00 23,9 C 26,1 C 64 % 1014,2 hPa 0,0 l/m 2,8 km/h (1 Bft) SW 215 2 min 0,254 mm 2,1 UV-I 550 W/m 16,7 C 23,9 C 8,0 km/h (2 Bft) 97,87 %
22.06.2017 09:02 24,1 C 26,1 C 64 % 1014,2 hPa 0,0 l/m 5,7 km/h (1 Bft) SW 229 2 min 0,000 mm 2,1 UV-I 583 W/m 16,9 C 24,1 C 9,7 km/h (2 Bft) 100,00 %
22.06.2017 09:04 24,2 C 26,1 C 64 % 1014,2 hPa 0,0 l/m 3,9 km/h (1 Bft) W-SW 240 2 min 0,000 mm 2,0 UV-I 554 W/m 16,9 C 24,2 C 6,4 km/h (2 Bft) 97,92 %
22.06.2017 09:06 24,3 C 25,6 C 64 % 1014,2 hPa 0,0 l/m 6,0 km/h (2 Bft) S 190 2 min 0,000 mm 1,9 UV-I 393 W/m 17,0 C 24,3 C 9,7 km/h (2 Bft) 97,87 %
22.06.2017 09:08 24,3 C 25,6 C 65 % 1014,2 hPa 0,0 l/m 4,0 km/h (1 Bft) W-SW 250 0 min 0,000 mm 1,9 UV-I 302 W/m 17,3 C 24,3 C 8,0 km/h (2 Bft) 100,00 %
22.06.2017 09:10 24,3 C 26,1 C 64 % 1014,2 hPa 0,0 l/m 4,7 km/h (1 Bft) SW 236 2 min 0,000 mm 2,1 UV-I 388 W/m 17,0 C 24,3 C 8,0 km/h (2 Bft) 97,87 %
22.06.2017 09:12 24,3 C 25,6 C 62 % 1014,2 hPa 0,0 l/m 2,9 km/h (1 Bft) SW 218 2 min 0,000 mm 2,2 UV-I 510 W/m 16,5 C 24,3 C 6,4 km/h (2 Bft) 92,31 %
22.06.2017 09:14 24,4 C 26,1 C 63 % 1014,2 hPa 0,0 l/m 3,1 km/h (1 Bft) S-SO 167 2 min 0,000 mm 2,3 UV-I 531 W/m 16,9 C 24,4 C 6,4 km/h (2 Bft) 100,00 %
22.06.2017 09:16 24,4 C 26,1 C 63 % 1014,1 hPa 0,0 l/m 3,4 km/h (1 Bft) S-SW 210 2 min 0,000 mm 2,4 UV-I 563 W/m 16,9 C 24,4 C 8,0 km/h (2 Bft) 95,74 %
22.06.2017 09:18 24,6 C 26,1 C 63 % 1014,1 hPa 0,0 l/m 5,9 km/h (2 Bft) SW 220 2 min 0,000 mm 2,5 UV-I 556 W/m 17,1 C 24,6 C 9,7 km/h (2 Bft) 100,00 %
22.06.2017 09:20 24,7 C 26,1 C 63 % 1014,1 hPa 0,0 l/m 1,5 km/h (1 Bft) SW 220 2 min 0,000 mm 2,5 UV-I 560 W/m 17,2 C 24,7 C 6,4 km/h (2 Bft) 100,00 %
22.06.2017 09:22 24,7 C 26,1 C 61 % 1014,1 hPa 0,0 l/m 3,4 km/h (1 Bft) SW 221 2 min 0,000 mm 2,5 UV-I 567 W/m 16,7 C 24,7 C 8,0 km/h (2 Bft) 93,62 %
22.06.2017 09:24 24,6 C 26,1 C 63 % 1014,1 hPa 0,0 l/m 2,3 km/h (1 Bft) SW 221 2 min 0,000 mm 2,6 UV-I 579 W/m 17,1 C 24,6 C 4,8 km/h (1 Bft) 100,00 %
22.06.2017 09:26 24,7 C 26,1 C 62 % 1014,1 hPa 0,0 l/m 2,2 km/h (1 Bft) SW 221 2 min 0,000 mm 2,7 UV-I 597 W/m 16,9 C 24,7 C 6,4 km/h (2 Bft) 97,87 %
22.06.2017 09:28 24,7 C 26,1 C 63 % 1014,1 hPa 0,0 l/m 2,6 km/h (1 Bft) SW 229 2 min 0,000 mm 2,7 UV-I 595 W/m 17,2 C 24,7 C 4,8 km/h (1 Bft) 100,00 %
22.06.2017 09:30 24,8 C 26,1 C 61 % 1014,1 hPa 0,0 l/m 2,4 km/h (1 Bft) W 261 2 min 0,000 mm 2,8 UV-I 601 W/m 16,8 C 24,8 C 9,7 km/h (2 Bft) 97,87 %
22.06.2017 09:32 24,8 C 26,1 C 59 % 1014,1 hPa 0,0 l/m 5,3 km/h (1 Bft) W 268 2 min 0,000 mm 2,9 UV-I 615 W/m 16,2 C 24,8 C 11,3 km/h (2 Bft) 97,87 %
22.06.2017 09:34 24,8 C 26,1 C 61 % 1014,1 hPa 0,0 l/m 5,9 km/h (2 Bft) SW 236 2 min 0,000 mm 2,9 UV-I 623 W/m 16,8 C 24,8 C 9,7 km/h (2 Bft) 97,87 %
22.06.2017 09:36 25,0 C 26,1 C 60 % 1014,1 hPa 0,0 l/m 5,3 km/h (1 Bft) S-SW 213 2 min 0,000 mm 3,0 UV-I 626 W/m 16,7 C 25,0 C 8,0 km/h (2 Bft) 95,74 %
22.06.2017 09:38 25,2 C 26,1 C 61 % 1014,1 hPa 0,0 l/m 5,2 km/h (1 Bft) SW 235 2 min 0,000 mm 3,0 UV-I 631 W/m 17,1 C 25,2 C 9,7 km/h (2 Bft) 95,74 %
22.06.2017 09:40 25,4 C 26,1 C 62 % 1014,1 hPa 0,0 l/m 3,9 km/h (1 Bft) SW 229 2 min 0,000 mm 3,0 UV-I 633 W/m 17,6 C 25,4 C 8,0 km/h (2 Bft) 93,62 %
22.06.2017 09:42 25,5 C 26,1 C 60 % 1014,1 hPa 0,0 l/m 1,7 km/h (1 Bft) SW 229 2 min 0,000 mm 3,1 UV-I 626 W/m 17,2 C 25,5 C 4,8 km/h (1 Bft) 95,83 %
22.06.2017 09:44 25,6 C 26,1 C 59 % 1014,0 hPa 0,0 l/m 1,5 km/h (1 Bft) SW 229 2 min 0,000 mm 3,1 UV-I 606 W/m 17,0 C 25,6 C 4,8 km/h (1 Bft) 93,62 %
22.06.2017 09:46 25,7 C 26,1 C 59 % 1014,1 hPa 0,0 l/m 1,3 km/h (1 Bft) SW 236 2 min 0,000 mm 3,1 UV-I 628 W/m 17,1 C 25,7 C 3,2 km/h (1 Bft) 95,74 %
22.06.2017 09:48 25,7 C 26,1 C 58 % 1014,1 hPa 0,0 l/m 1,8 km/h (1 Bft) NW 320 2 min 0,000 mm 3,2 UV-I 635 W/m 16,8 C 25,7 C 3,2 km/h (1 Bft) 97,87 %
22.06.2017 09:50 25,9 C 26,1 C 58 % 1014,1 hPa 0,0 l/m 2,0 km/h (1 Bft) NW 321 2 min 0,000 mm 3,2 UV-I 609 W/m 17,0 C 25,9 C 6,4 km/h (2 Bft) 93,62 %
22.06.2017 09:52 26,1 C 26,1 C 58 % 1014,1 hPa 0,0 l/m 4,5 km/h (1 Bft) SW 231 2 min 0,000 mm 3,2 UV-I 611 W/m 17,2 C 26,1 C 6,4 km/h (2 Bft) 97,37 %
22.06.2017 09:54 26,2 C 26,1 C 57 % 1014,1 hPa 0,0 l/m 5,1 km/h (1 Bft) W-SW 252 2 min 0,000 mm 3,3 UV-I 621 W/m 17,0 C 26,2 C 9,7 km/h (2 Bft) 94,23 %
22.06.2017 09:56 26,2 C 26,1 C 56 % 1014,1 hPa 0,0 l/m 4,8 km/h (1 Bft) W 265 2 min 0,000 mm 3,3 UV-I 630 W/m 16,7 C 26,2 C 8,0 km/h (2 Bft) 92,00 %
22.06.2017 09:58 26,3 C 26,1 C 57 % 1014,1 hPa 0,0 l/m 1,3 km/h (1 Bft) N 355 2 min 0,000 mm 3,4 UV-I 645 W/m 17,1 C 26,3 C 3,2 km/h (1 Bft) 95,74 %
22.06.2017 10:00 26,4 C 26,1 C 56 % 1014,1 hPa 0,0 l/m 4,9 km/h (1 Bft) W 259 2 min 0,381 mm 3,5 UV-I 652 W/m 16,9 C 26,4 C 11,3 km/h (2 Bft) 97,87 %
22.06.2017 10:02 26,3 C 26,1 C 55 % 1014,1 hPa 0,0 l/m 6,6 km/h (2 Bft) SW 217 2 min 0,000 mm 3,5 UV-I 647 W/m 16,5 C 26,3 C 12,9 km/h (3 Bft) 97,87 %
22.06.2017 10:04 26,3 C 26,1 C 56 % 1014,1 hPa 0,0 l/m 4,4 km/h (1 Bft) W-SW 249 2 min 0,000 mm 3,5 UV-I 668 W/m 16,8 C 26,3 C 8,0 km/h (2 Bft) 97,37 %
22.06.2017 10:06 26,2 C 26,1 C 55 % 1014,1 hPa 0,0 l/m 6,8 km/h (2 Bft) W-SW 250 2 min 0,000 mm 3,6 UV-I 670 W/m 16,4 C 26,1 C 14,5 km/h (3 Bft) 97,87 %
22.06.2017 10:08 26,1 C 26,1 C 56 % 1014,1 hPa 0,0 l/m 5,9 km/h (2 Bft) W-SW 249 2 min 0,000 mm 3,7 UV-I 675 W/m 16,6 C 26,1 C 11,3 km/h (2 Bft) 100,00 %
22.06.2017 10:10 26,1 C 26,1 C 57 % 1014,1 hPa 0,0 l/m 8,8 km/h (2 Bft) SW 225 2 min 0,000 mm 3,7 UV-I 693 W/m 16,9 C 25,6 C 14,5 km/h (3 Bft) 93,62 %
22.06.2017 10:12 26,2 C 26,1 C 55 % 1014,0 hPa 0,0 l/m 7,9 km/h (2 Bft) W 259 2 min 0,000 mm 3,8 UV-I 689 W/m 16,4 C 25,9 C 12,9 km/h (3 Bft) 96,00 %
22.06.2017 10:14 26,2 C 26,1 C 56 % 1014,1 hPa 0,0 l/m 6,7 km/h (2 Bft) W 262 2 min 0,000 mm 3,8 UV-I 700 W/m 16,7 C 26,1 C 12,9 km/h (3 Bft) 95,74 %
22.06.2017 10:16 26,2 C 26,1 C 56 % 1014,1 hPa 0,0 l/m 6,8 km/h (2 Bft) W-SW 248 2 min 0,000 mm 3,9 UV-I 707 W/m 16,7 C 26,1 C 12,9 km/h (3 Bft) 97,87 %
22.06.2017 10:18 26,2 C 26,1 C 57 % 1014,1 hPa 0,0 l/m 5,9 km/h (2 Bft) W-SW 256 2 min 0,000 mm 3,9 UV-I 687 W/m 17,0 C 26,2 C 8,0 km/h (2 Bft) 100,00 %
22.06.2017 10:20 26,3 C 26,1 C 56 % 1014,1 hPa 0,0 l/m 5,0 km/h (1 Bft) W-SW 248 2 min 0,000 mm 3,9 UV-I 690 W/m 16,8 C 26,3 C 9,7 km/h (2 Bft) 96,08 %
22.06.2017 10:22 26,3 C 26,1 C 56 % 1014,1 hPa 0,0 l/m 4,2 km/h (1 Bft) W-NW 298 2 min 0,000 mm 4,0 UV-I 706 W/m 16,8 C 26,3 C 9,7 km/h (2 Bft) 97,30 %
22.06.2017 10:24 26,4 C 26,1 C 55 % 1014,1 hPa 0,0 l/m 3,7 km/h (1 Bft) W-NW 297 2 min 0,000 mm 4,0 UV-I 717 W/m 16,6 C 26,4 C 6,4 km/h (2 Bft) 100,00 %
22.06.2017 10:26 26,4 C 26,1 C 56 % 1014,1 hPa 0,0 l/m 2,6 km/h (1 Bft) W 269 2 min 0,000 mm 4,1 UV-I 718 W/m 16,9 C 26,4 C 4,8 km/h (1 Bft) 97,87 %
22.06.2017 10:28 26,6 C 26,1 C 56 % 1014,1 hPa 0,0 l/m 3,0 km/h (1 Bft) W-NW 293 2 min 0,000 mm 4,1 UV-I 718 W/m 17,1 C 26,6 C 6,4 km/h (2 Bft) 97,87 %
22.06.2017 10:30 26,7 C 26,1 C 55 % 1014,1 hPa 0,0 l/m 1,3 km/h (1 Bft) SW 234 2 min 0,000 mm 4,1 UV-I 715 W/m 16,9 C 26,7 C 3,2 km/h (1 Bft) 100,00 %
22.06.2017 10:32 26,7 C 26,1 C 54 % 1014,0 hPa 0,0 l/m 1,3 km/h (1 Bft) S 183 2 min 0,000 mm 4,1 UV-I 713 W/m 16,6 C 26,7 C 4,8 km/h (1 Bft) 100,00 %
22.06.2017 10:34 26,8 C 26,1 C 55 % 1014,0 hPa 0,0 l/m 3,4 km/h (1 Bft) SW 226 2 min 0,000 mm 4,2 UV-I 722 W/m 17,0 C 26,8 C 9,7 km/h (2 Bft) 100,00 %
22.06.2017 10:36 27,1 C 26,1 C 53 % 1014,1 hPa 0,0 l/m 2,5 km/h (1 Bft) NW 326 2 min 0,000 mm 4,3 UV-I 738 W/m 16,7 C 27,1 C 6,4 km/h (2 Bft) 100,00 %
22.06.2017 10:38 27,2 C 26,1 C 56 % 1014,0 hPa 0,0 l/m 2,4 km/h (1 Bft) N-NW 347 2 min 0,000 mm 4,4 UV-I 751 W/m 17,6 C 27,2 C 6,4 km/h (2 Bft) 96,00 %
22.06.2017 10:40 27,4 C 26,1 C 52 % 1014,0 hPa 0,0 l/m 4,9 km/h (1 Bft) W-NW 301 2 min 0,000 mm 4,5 UV-I 754 W/m 16,7 C 27,4 C 9,7 km/h (2 Bft) 100,00 %
22.06.2017 10:42 27,4 C 26,1 C 52 % 1014,0 hPa 0,0 l/m 3,9 km/h (1 Bft) NW 314 2 min 0,000 mm 4,5 UV-I 763 W/m 16,7 C 27,4 C 8,0 km/h (2 Bft) 97,87 %
22.06.2017 10:44 27,3 C 26,1 C 52 % 1014,0 hPa 0,0 l/m 3,1 km/h (1 Bft) W-NW 303 2 min 0,000 mm 4,6 UV-I 771 W/m 16,6 C 27,3 C 9,7 km/h (2 Bft) 95,74 %
22.06.2017 10:46 27,4 C 26,1 C 55 % 1014,0 hPa 0,0 l/m 3,4 km/h (1 Bft) W 268 2 min 0,000 mm 4,7 UV-I 773 W/m 17,5 C 27,4 C 6,4 km/h (2 Bft) 100,00 %
22.06.2017 10:48 27,5 C 26,1 C 53 % 1014,0 hPa 0,0 l/m 7,9 km/h (2 Bft) W-SW 253 2 min 0,000 mm 4,7 UV-I 770 W/m 17,0 C 27,2 C 12,9 km/h (3 Bft) 97,87 %
22.06.2017 10:50 27,4 C 26,1 C 52 % 1014,0 hPa 0,0 l/m 8,2 km/h (2 Bft) W 261 2 min 0,000 mm 4,6 UV-I 737 W/m 16,7 C 27,1 C 14,5 km/h (3 Bft) 100,00 %
22.06.2017 10:52 27,4 C 26,1 C 52 % 1014,0 hPa 0,0 l/m 7,0 km/h (2 Bft) W-NW 291 2 min 0,000 mm 4,8 UV-I 770 W/m 16,7 C 27,3 C 12,9 km/h (3 Bft) 97,14 %
22.06.2017 10:54 27,4 C 26,1 C 52 % 1013,9 hPa 0,0 l/m 5,0 km/h (1 Bft) NW 313 2 min 0,000 mm 4,8 UV-I 755 W/m 16,7 C 27,4 C 8,0 km/h (2 Bft) 96,08 %
22.06.2017 10:56 27,5 C 26,1 C 53 % 1014,0 hPa 0,0 l/m 6,3 km/h (2 Bft) S-SW 207 2 min 0,000 mm 4,7 UV-I 751 W/m 17,0 C 27,5 C 11,3 km/h (2 Bft) 98,00 %
22.06.2017 10:58 27,6 C 26,1 C 53 % 1013,9 hPa 0,0 l/m 7,3 km/h (2 Bft) S-SO 156 2 min 0,000 mm 4,8 UV-I 752 W/m 17,1 C 27,4 C 12,9 km/h (3 Bft) 100,00 %
22.06.2017 11:00 27,7 C 26,1 C 53 % 1013,9 hPa 0,0 l/m 4,3 km/h (1 Bft) S-SW 192 2 min 0,508 mm 4,9 UV-I 774 W/m 17,2 C 27,7 C 9,7 km/h (2 Bft) 100,00 %
22.06.2017 11:02 27,7 C 26,1 C 51 % 1013,9 hPa 0,0 l/m 3,4 km/h (1 Bft) S 182 2 min 0,000 mm 4,9 UV-I 771 W/m 16,6 C 27,7 C 8,0 km/h (2 Bft) 100,00 %
22.06.2017 11:04 27,7 C 26,1 C 53 % 1013,9 hPa 0,0 l/m 4,1 km/h (1 Bft) W 259 2 min 0,000 mm 5,0 UV-I 782 W/m 17,2 C 27,7 C 6,4 km/h (2 Bft) 97,87 %
22.06.2017 11:06 27,9 C 26,1 C 52 % 1013,9 hPa 0,0 l/m 3,8 km/h (1 Bft) S-SO 164 2 min 0,000 mm 5,0 UV-I 802 W/m 17,1 C 27,9 C 9,7 km/h (2 Bft) 100,00 %
22.06.2017 11:08 28,2 C 26,1 C 53 % 1013,9 hPa 0,0 l/m 5,2 km/h (1 Bft) W-NW 296 2 min 0,000 mm 5,1 UV-I 796 W/m 17,7 C 28,2 C 8,0 km/h (2 Bft) 97,87 %
22.06.2017 11:10 28,4 C 26,1 C 50 % 1014,0 hPa 0,0 l/m 6,0 km/h (2 Bft) W 278 2 min 0,000 mm 5,1 UV-I 806 W/m 17,0 C 28,4 C 11,3 km/h (2 Bft) 96,00 %
22.06.2017 11:12 28,3 C 26,1 C 49 % 1013,9 hPa 0,0 l/m 1,5 km/h (1 Bft) W-SW 258 2 min 0,000 mm 5,1 UV-I 809 W/m 16,5 C 28,3 C 4,8 km/h (1 Bft) 100,00 %
22.06.2017 11:14 28,6 C 26,1 C 51 % 1013,8 hPa 0,0 l/m 5,5 km/h (1 Bft) W-SW 244 2 min 0,000 mm 5,2 UV-I 799 W/m 17,4 C 28,6 C 9,7 km/h (2 Bft) 95,74 %
22.06.2017 11:16 28,7 C 26,1 C 49 % 1013,9 hPa 0,0 l/m 4,9 km/h (1 Bft) W-NW 293 2 min 0,000 mm 5,2 UV-I 792 W/m 16,9 C 28,7 C 8,0 km/h (2 Bft) 100,00 %
22.06.2017 11:18 28,7 C 26,1 C 51 % 1013,8 hPa 0,0 l/m 5,4 km/h (1 Bft) SW 225 2 min 0,000 mm 5,2 UV-I 803 W/m 17,5 C 28,7 C 12,9 km/h (3 Bft) 95,74 %
22.06.2017 11:20 29,0 C 26,1 C 50 % 1013,9 hPa 0,0 l/m 4,0 km/h (1 Bft) W 271 2 min 0,000 mm 5,3 UV-I 812 W/m 17,5 C 29,0 C 4,8 km/h (1 Bft) 93,62 %
22.06.2017 11:22 29,1 C 26,1 C 49 % 1013,8 hPa 0,0 l/m 4,3 km/h (1 Bft) SW 225 2 min 0,000 mm 5,3 UV-I 815 W/m 17,3 C 29,1 C 6,4 km/h (2 Bft) 100,00 %
22.06.2017 11:24 29,0 C 26,1 C 49 % 1013,9 hPa 0,0 l/m 4,9 km/h (1 Bft) W 265 2 min 0,000 mm 5,4 UV-I 823 W/m 17,2 C 29,0 C 9,7 km/h (2 Bft) 100,00 %
22.06.2017 11:26 28,8 C 26,1 C 48 % 1013,9 hPa 0,0 l/m 2,2 km/h (1 Bft) W 271 2 min 0,000 mm 5,4 UV-I 825 W/m 16,7 C 28,8 C 6,4 km/h (2 Bft) 100,00 %
22.06.2017 11:28 28,9 C 26,1 C 50 % 1013,8 hPa 0,0 l/m 3,1 km/h (1 Bft) NW 310 2 min 0,000 mm 5,5 UV-I 825 W/m 17,4 C 28,9 C 11,3 km/h (2 Bft) 95,74 %
22.06.2017 11:30 28,9 C 26,1 C 50 % 1013,9 hPa 0,0 l/m 2,9 km/h (1 Bft) W-NW 286 2 min 0,000 mm 5,5 UV-I 825 W/m 17,4 C 28,9 C 6,4 km/h (2 Bft) 97,87 %
22.06.2017 11:32 28,9 C 26,1 C 48 % 1013,9 hPa 0,0 l/m 11,6 km/h (2 Bft) W-SW 240 2 min 0,000 mm 5,5 UV-I 828 W/m 16,8 C 28,3 C 16,1 km/h (3 Bft) 93,62 %
22.06.2017 11:34 28,9 C 26,1 C 49 % 1013,9 hPa 0,0 l/m 6,6 km/h (2 Bft) W 265 2 min 0,000 mm 5,5 UV-I 837 W/m 17,1 C 28,9 C 11,3 km/h (2 Bft) 95,74 %
22.06.2017 11:36 29,2 C 26,1 C 48 % 1013,7 hPa 0,0 l/m 3,7 km/h (1 Bft) S-SW 207 2 min 0,000 mm 5,6 UV-I 835 W/m 17,0 C 29,2 C 8,0 km/h (2 Bft) 93,75 %
22.06.2017 11:38 29,3 C 26,1 C 48 % 1013,7 hPa 0,0 l/m 10,6 km/h (2 Bft) SW 216 2 min 0,000 mm 5,6 UV-I 843 W/m 17,1 C 28,9 C 14,5 km/h (3 Bft) 97,87 %
22.06.2017 11:40 29,2 C 26,1 C 48 % 1013,7 hPa 0,0 l/m 6,2 km/h (2 Bft) SW 223 2 min 0,000 mm 5,5 UV-I 807 W/m 17,0 C 29,2 C 12,9 km/h (3 Bft) 93,62 %
22.06.2017 11:42 29,2 C 26,1 C 48 % 1013,7 hPa 0,0 l/m 7,8 km/h (2 Bft) W-NW 282 2 min 0,000 mm 5,5 UV-I 812 W/m 17,0 C 29,0 C 12,9 km/h (3 Bft) 93,62 %
22.06.2017 11:44 29,1 C 26,1 C 48 % 1013,7 hPa 0,0 l/m 3,6 km/h (1 Bft) W 259 2 min 0,000 mm 5,7 UV-I 852 W/m 16,9 C 29,1 C 8,0 km/h (2 Bft) 91,49 %
22.06.2017 11:46 29,4 C 26,1 C 49 % 1013,6 hPa 0,0 l/m 2,6 km/h (1 Bft) NO 37 2 min 0,000 mm 5,8 UV-I 853 W/m 17,5 C 29,4 C 6,4 km/h (2 Bft) 95,74 %
22.06.2017 11:48 29,7 C 26,1 C 48 % 1013,7 hPa 0,0 l/m 3,9 km/h (1 Bft) W 271 2 min 0,000 mm 5,8 UV-I 849 W/m 17,5 C 29,7 C 11,3 km/h (2 Bft) 95,74 %
22.06.2017 11:50 29,6 C 26,1 C 46 % 1013,7 hPa 0,0 l/m 5,6 km/h (1 Bft) W 281 2 min 0,000 mm 5,7 UV-I 840 W/m 16,7 C 29,6 C 9,7 km/h (2 Bft) 93,62 %
22.06.2017 11:52 29,3 C 26,1 C 47 % 1013,7 hPa 0,0 l/m 5,4 km/h (1 Bft) S-SO 165 2 min 0,000 mm 5,8 UV-I 857 W/m 16,8 C 29,3 C 9,7 km/h (2 Bft) 89,36 %
22.06.2017 11:54 29,2 C 26,1 C 46 % 1013,6 hPa 0,0 l/m 1,6 km/h (1 Bft) S-SO 163 2 min 0,000 mm 5,9 UV-I 856 W/m 16,4 C 29,2 C 6,4 km/h (2 Bft) 97,87 %
22.06.2017 11:56 29,2 C 26,1 C 48 % 1013,6 hPa 0,0 l/m 0,3 km/h (0 Bft) S-SO 163 2 min 0,000 mm 5,8 UV-I 847 W/m 17,0 C 29,2 C 1,6 km/h (1 Bft) 93,62 %
22.06.2017 11:58 29,5 C 26,1 C 48 % 1013,6 hPa 0,0 l/m 3,8 km/h (1 Bft) S-SW 207 2 min 0,000 mm 5,9 UV-I 845 W/m 17,3 C 29,5 C 6,4 km/h (2 Bft) 91,49 %
22.06.2017 12:00 29,8 C 26,1 C 46 % 1013,6 hPa 0,0 l/m 6,1 km/h (2 Bft) W-SW 258 2 min 0,585 mm 5,9 UV-I 856 W/m 16,9 C 29,8 C 12,9 km/h (3 Bft) 95,74 %
22.06.2017 12:02 29,8 C 26,7 C 45 % 1013,6 hPa 0,0 l/m 10,3 km/h (2 Bft) W-SW 246 2 min 0,000 mm 6,0 UV-I 859 W/m 16,6 C 29,4 C 19,3 km/h (3 Bft) 97,87 %
22.06.2017 12:04 29,9 C 26,1 C 46 % 1013,5 hPa 0,0 l/m 7,8 km/h (2 Bft) SW 231 2 min 0,000 mm 6,0 UV-I 860 W/m 17,0 C 29,8 C 12,9 km/h (3 Bft) 89,36 %
22.06.2017 12:06 30,1 C 26,7 C 47 % 1013,6 hPa 0,0 l/m 3,6 km/h (1 Bft) SW 236 2 min 0,000 mm 6,0 UV-I 861 W/m 17,5 C 30,1 C 9,7 km/h (2 Bft) 89,36 %
22.06.2017 12:08 30,0 C 26,7 C 45 % 1013,5 hPa 0,0 l/m 6,1 km/h (2 Bft) SW 217 2 min 0,000 mm 6,1 UV-I 874 W/m 16,7 C 30,0 C 12,9 km/h (3 Bft) 98,00 %
22.06.2017 12:10 30,1 C 26,7 C 45 % 1013,6 hPa 0,0 l/m 9,1 km/h (2 Bft) W-SW 237 2 min 0,000 mm 6,2 UV-I 887 W/m 16,8 C 29,9 C 16,1 km/h (3 Bft) 95,83 %
22.06.2017 12:12 30,2 C 26,7 C 45 % 1013,5 hPa 0,0 l/m 9,7 km/h (2 Bft) W 261 2 min 0,000 mm 6,2 UV-I 887 W/m 16,9 C 29,9 C 19,3 km/h (3 Bft) 98,36 %
22.06.2017 12:14 30,3 C 26,7 C 45 % 1013,5 hPa 0,0 l/m 8,1 km/h (2 Bft) S-SW 212 2 min 0,000 mm 6,2 UV-I 876 W/m 17,0 C 30,2 C 16,1 km/h (3 Bft) 89,58 %
22.06.2017 12:16 30,2 C 26,7 C 44 % 1013,5 hPa 0,0 l/m 4,2 km/h (1 Bft) W 269 2 min 0,000 mm 6,2 UV-I 880 W/m 16,6 C 30,2 C 12,9 km/h (3 Bft) 93,62 %
22.06.2017 12:18 30,3 C 26,7 C 45 % 1013,5 hPa 0,0 l/m 7,7 km/h (2 Bft) S-SW 209 2 min 0,000 mm 6,3 UV-I 883 W/m 17,0 C 30,2 C 12,9 km/h (3 Bft) 95,74 %
22.06.2017 12:20 30,5 C 26,7 C 44 % 1013,5 hPa 0,0 l/m 9,2 km/h (2 Bft) W-SW 258 2 min 0,000 mm 6,3 UV-I 886 W/m 16,8 C 30,3 C 14,5 km/h (3 Bft) 97,87 %
22.06.2017 12:22 30,6 C 26,7 C 43 % 1013,4 hPa 0,0 l/m 7,4 km/h (2 Bft) SW 235 2 min 0,000 mm 6,4 UV-I 887 W/m 16,6 C 30,5 C 16,1 km/h (3 Bft) 91,49 %
22.06.2017 12:24 30,4 C 26,7 C 44 % 1013,4 hPa 0,0 l/m 3,1 km/h (1 Bft) NW 313 2 min 0,000 mm 6,3 UV-I 879 W/m 16,7 C 30,4 C 4,8 km/h (1 Bft) 98,00 %
22.06.2017 12:26 30,3 C 26,7 C 44 % 1013,3 hPa 0,0 l/m 2,5 km/h (1 Bft) NW 315 2 min 0,000 mm 6,3 UV-I 879 W/m 16,7 C 30,3 C 4,8 km/h (1 Bft) 97,87 %
22.06.2017 12:28 30,4 C 26,7 C 45 % 1013,3 hPa 0,0 l/m 5,6 km/h (1 Bft) SW 228 2 min 0,000 mm 6,4 UV-I 887 W/m 17,1 C 30,4 C 11,3 km/h (2 Bft) 92,00 %
22.06.2017 12:30 30,6 C 26,7 C 44 % 1013,3 hPa 0,0 l/m 8,4 km/h (2 Bft) S-SW 205 2 min 0,000 mm 6,4 UV-I 903 W/m 16,9 C 30,5 C 12,9 km/h (3 Bft) 95,74 %
22.06.2017 12:32 30,7 C 26,7 C 43 % 1013,3 hPa 0,0 l/m 6,4 km/h (2 Bft) W-SW 257 2 min 0,000 mm 6,4 UV-I 898 W/m 16,7 C 30,7 C 9,7 km/h (2 Bft) 97,87 %
22.06.2017 12:34 30,8 C 26,7 C 42 % 1013,2 hPa 0,0 l/m 6,0 km/h (2 Bft) S 176 2 min 0,000 mm 6,4 UV-I 885 W/m 16,4 C 30,8 C 9,7 km/h (2 Bft) 94,29 %
22.06.2017 12:36 30,7 C 26,7 C 46 % 1013,2 hPa 0,0 l/m 4,5 km/h (1 Bft) S-SO 163 2 min 0,000 mm 6,4 UV-I 878 W/m 17,7 C 30,7 C 9,7 km/h (2 Bft) 94,00 %
22.06.2017 12:38 30,8 C 26,7 C 45 % 1013,2 hPa 0,0 l/m 3,8 km/h (1 Bft) NW 309 2 min 0,000 mm 6,2 UV-I 836 W/m 17,5 C 30,8 C 9,7 km/h (2 Bft) 94,00 %
22.06.2017 12:40 30,8 C 26,7 C 43 % 1013,2 hPa 0,0 l/m 3,5 km/h (1 Bft) N-NO 33 2 min 0,000 mm 6,1 UV-I 814 W/m 16,7 C 30,8 C 6,4 km/h (2 Bft) 93,62 %
22.06.2017 12:42 30,6 C 26,7 C 43 % 1013,2 hPa 0,0 l/m 4,5 km/h (1 Bft) W-NW 291 2 min 0,000 mm 6,4 UV-I 868 W/m 16,6 C 30,6 C 9,7 km/h (2 Bft) 93,62 %
22.06.2017 12:44 30,6 C 26,7 C 44 % 1013,2 hPa 0,0 l/m 4,2 km/h (1 Bft) W 277 2 min 0,000 mm 6,3 UV-I 854 W/m 16,9 C 30,6 C 11,3 km/h (2 Bft) 93,62 %
22.06.2017 12:46 30,4 C 26,7 C 43 % 1013,2 hPa 0,0 l/m 2,1 km/h (1 Bft) W-NW 289 2 min 0,000 mm 6,4 UV-I 875 W/m 16,4 C 30,4 C 3,2 km/h (1 Bft) 94,00 %
22.06.2017 12:48 30,6 C 26,7 C 46 % 1013,2 hPa 0,0 l/m 1,7 km/h (1 Bft) N-NW 331 2 min 0,000 mm 6,5 UV-I 912 W/m 17,6 C 30,6 C 4,8 km/h (1 Bft) 93,62 %
22.06.2017 12:50 30,8 C 26,7 C 43 % 1013,2 hPa 0,0 l/m 1,6 km/h (1 Bft) N-NW 340 2 min 0,000 mm 6,4 UV-I 890 W/m 16,7 C 30,8 C 3,2 km/h (1 Bft) 89,47 %
22.06.2017 12:52 30,9 C 26,7 C 43 % 1013,2 hPa 0,0 l/m 4,0 km/h (1 Bft) W-NW 299 2 min 0,000 mm 6,2 UV-I 877 W/m 16,8 C 30,9 C 14,5 km/h (3 Bft) 93,75 %
22.06.2017 12:54 30,9 C 26,7 C 43 % 1013,2 hPa 0,0 l/m 7,7 km/h (2 Bft) SW 233 2 min 0,000 mm 6,2 UV-I 872 W/m 16,8 C 30,8 C 17,7 km/h (3 Bft) 95,74 %
22.06.2017 12:56 31,1 C 26,7 C 43 % 1013,1 hPa 0,0 l/m 7,1 km/h (2 Bft) N-NW 342 2 min 0,000 mm 6,2 UV-I 859 W/m 17,0 C 31,1 C 14,5 km/h (3 Bft) 91,49 %
22.06.2017 12:58 31,0 C 26,7 C 44 % 1013,0 hPa 0,0 l/m 2,0 km/h (1 Bft) W-NW 302 2 min 0,000 mm 6,3 UV-I 862 W/m 17,3 C 31,0 C 4,8 km/h (1 Bft) 93,62 %
22.06.2017 13:00 31,2 C 26,7 C 44 % 1013,0 hPa 0,0 l/m 5,5 km/h (1 Bft) S-SW 210 2 min 0,635 mm 6,4 UV-I 890 W/m 17,5 C 31,2 C 12,9 km/h (3 Bft) 100,00 %
22.06.2017 13:02 31,3 C 26,7 C 42 % 1013,1 hPa 0,0 l/m 7,3 km/h (2 Bft) W-SW 248 2 min 0,000 mm 6,5 UV-I 892 W/m 16,8 C 31,3 C 16,1 km/h (3 Bft) 100,00 %
22.06.2017 13:04 31,3 C 26,7 C 41 % 1013,1 hPa 0,0 l/m 9,5 km/h (2 Bft) SW 214 2 min 0,000 mm 6,4 UV-I 888 W/m 16,4 C 31,1 C 16,1 km/h (3 Bft) 100,00 %
22.06.2017 13:06 31,2 C 26,7 C 42 % 1013,0 hPa 0,0 l/m 7,5 km/h (2 Bft) W 262 2 min 0,000 mm 6,4 UV-I 893 W/m 16,7 C 31,1 C 12,9 km/h (3 Bft) 100,00 %
22.06.2017 13:08 31,1 C 26,7 C 40 % 1013,1 hPa 0,0 l/m 7,9 km/h (2 Bft) W-SW 252 2 min 0,000 mm 6,5 UV-I 895 W/m 15,9 C 31,0 C 12,9 km/h (3 Bft) 97,87 %
22.06.2017 13:10 30,8 C 26,7 C 40 % 1013,0 hPa 0,0 l/m 4,5 km/h (1 Bft) W-NW 296 2 min 0,000 mm 6,5 UV-I 908 W/m 15,6 C 30,8 C 11,3 km/h (2 Bft) 100,00 %
22.06.2017 13:12 30,7 C 26,7 C 41 % 1013,0 hPa 0,0 l/m 1,7 km/h (1 Bft) N-NO 33 2 min 0,000 mm 6,5 UV-I 897 W/m 15,9 C 30,7 C 6,4 km/h (2 Bft) 100,00 %
22.06.2017 13:14 30,7 C 26,7 C 42 % 1013,0 hPa 0,0 l/m 2,8 km/h (1 Bft) NW 318 2 min 0,000 mm 6,5 UV-I 899 W/m 16,3 C 30,7 C 8,0 km/h (2 Bft) 94,74 %
22.06.2017 13:16 30,8 C 26,7 C 42 % 1012,9 hPa 0,0 l/m 2,3 km/h (1 Bft) S 181 2 min 0,000 mm 6,5 UV-I 900 W/m 16,4 C 30,8 C 3,2 km/h (1 Bft) 94,00 %
22.06.2017 13:18 31,2 C 27,2 C 42 % 1012,9 hPa 0,0 l/m 2,3 km/h (1 Bft) NW 319 2 min 0,000 mm 6,5 UV-I 904 W/m 16,7 C 31,2 C 8,0 km/h (2 Bft) 94,00 %
22.06.2017 13:20 31,6 C 27,2 C 42 % 1012,9 hPa 0,0 l/m 6,0 km/h (2 Bft) W 268 2 min 0,000 mm 6,4 UV-I 894 W/m 17,1 C 31,6 C 17,7 km/h (3 Bft) 97,87 %
22.06.2017 13:22 31,5 C 27,2 C 40 % 1012,9 hPa 0,0 l/m 4,7 km/h (1 Bft) W 263 2 min 0,000 mm 6,4 UV-I 887 W/m 16,2 C 31,5 C 11,3 km/h (2 Bft) 93,62 %
22.06.2017 13:24 31,6 C 27,2 C 41 % 1012,9 hPa 0,0 l/m 4,5 km/h (1 Bft) NW 306 2 min 0,000 mm 6,4 UV-I 888 W/m 16,7 C 31,6 C 9,7 km/h (2 Bft) 97,37 %
22.06.2017 13:26 31,4 C 27,2 C 40 % 1013,0 hPa 0,0 l/m 5,5 km/h (1 Bft) NW 312 2 min 0,000 mm 6,3 UV-I 878 W/m 16,1 C 31,4 C 12,9 km/h (3 Bft) 98,00 %
22.06.2017 13:28 31,1 C 27,2 C 41 % 1012,8 hPa 0,0 l/m 4,0 km/h (1 Bft) N-NW 340 2 min 0,000 mm 6,4 UV-I 904 W/m 16,3 C 31,1 C 11,3 km/h (2 Bft) 96,00 %
22.06.2017 13:30 31,0 C 27,2 C 43 % 1012,8 hPa 0,0 l/m 4,5 km/h (1 Bft) N-NW 331 2 min 0,000 mm 6,4 UV-I 924 W/m 16,9 C 31,0 C 11,3 km/h (2 Bft) 95,74 %
22.06.2017 13:32 31,3 C 27,2 C 40 % 1012,8 hPa 0,0 l/m 4,3 km/h (1 Bft) N-NW 345 2 min 0,000 mm 6,3 UV-I 919 W/m 16,1 C 31,3 C 8,0 km/h (2 Bft) 94,44 %
22.06.2017 13:34 31,1 C 27,2 C 40 % 1012,8 hPa 0,0 l/m 3,8 km/h (1 Bft) O 79 2 min 0,000 mm 6,0 UV-I 916 W/m 15,9 C 31,1 C 6,4 km/h (2 Bft) 93,44 %
22.06.2017 13:36 30,8 C 27,2 C 41 % 1012,8 hPa 0,0 l/m 2,5 km/h (1 Bft) O 82 2 min 0,000 mm 5,3 UV-I 918 W/m 16,0 C 30,8 C 4,8 km/h (1 Bft) 95,74 %
22.06.2017 13:38 30,7 C 27,2 C 42 % 1012,8 hPa 0,0 l/m 5,5 km/h (1 Bft) NW 325 2 min 0,000 mm 6,0 UV-I 880 W/m 16,3 C 30,7 C 12,9 km/h (3 Bft) 94,74 %
22.06.2017 13:40 31,1 C 27,2 C 41 % 1012,8 hPa 0,0 l/m 4,9 km/h (1 Bft) W-NW 288 2 min 0,000 mm 6,3 UV-I 913 W/m 16,3 C 31,1 C 14,5 km/h (3 Bft) 97,87 %
22.06.2017 13:42 30,9 C 27,2 C 40 % 1012,7 hPa 0,0 l/m 3,1 km/h (1 Bft) W 273 2 min 0,000 mm 6,3 UV-I 885 W/m 15,7 C 30,9 C 12,9 km/h (3 Bft) 93,62 %
22.06.2017 13:44 30,9 C 27,2 C 42 % 1012,7 hPa 0,0 l/m 4,7 km/h (1 Bft) SW 222 2 min 0,000 mm 6,2 UV-I 868 W/m 16,5 C 30,9 C 9,7 km/h (2 Bft) 97,87 %
22.06.2017 13:46 31,2 C 27,2 C 41 % 1012,7 hPa 0,0 l/m 9,5 km/h (2 Bft) S-SW 200 2 min 0,000 mm 6,2 UV-I 878 W/m 16,4 C 31,0 C 14,5 km/h (3 Bft) 95,74 %
22.06.2017 13:48 31,5 C 27,2 C 42 % 1012,7 hPa 0,0 l/m 6,3 km/h (2 Bft) W-NW 288 2 min 0,000 mm 6,4 UV-I 899 W/m 17,0 C 31,5 C 11,3 km/h (2 Bft) 96,00 %
22.06.2017 13:50 31,6 C 27,2 C 41 % 1012,7 hPa 0,0 l/m 6,9 km/h (2 Bft) SW 236 2 min 0,000 mm 6,3 UV-I 897 W/m 16,7 C 31,6 C 12,9 km/h (3 Bft) 95,74 %
22.06.2017 13:52 31,7 C 27,2 C 41 % 1012,7 hPa 0,0 l/m 6,2 km/h (2 Bft) W-NW 292 2 min 0,000 mm 6,2 UV-I 906 W/m 16,8 C 31,7 C 12,9 km/h (3 Bft) 95,74 %
22.06.2017 13:54 31,7 C 27,2 C 40 % 1012,6 hPa 0,0 l/m 3,6 km/h (1 Bft) SW 230 2 min 0,000 mm 6,1 UV-I 901 W/m 16,4 C 31,7 C 9,7 km/h (2 Bft) 98,00 %
22.06.2017 13:56 31,6 C 27,2 C 40 % 1012,6 hPa 0,0 l/m 4,2 km/h (1 Bft) W 262 2 min 0,000 mm 5,5 UV-I 910 W/m 16,3 C 31,6 C 6,4 km/h (2 Bft) 100,00 %
22.06.2017 13:58 31,6 C 27,2 C 41 % 1012,6 hPa 0,0 l/m 5,0 km/h (1 Bft) W-NW 302 2 min 0,000 mm 5,7 UV-I 922 W/m 16,7 C 31,6 C 11,3 km/h (2 Bft) 95,74 %
22.06.2017 14:00 31,6 C 27,2 C 40 % 1012,6 hPa 0,0 l/m 5,7 km/h (1 Bft) W 260 2 min 0,000 mm 5,6 UV-I 901 W/m 16,3 C 31,6 C 12,9 km/h (3 Bft) 97,14 %
22.06.2017 14:02 31,7 C 27,2 C 40 % 1012,6 hPa 0,0 l/m 5,6 km/h (1 Bft) S-SW 209 2 min 0,635 mm 5,5 UV-I 888 W/m 16,4 C 31,7 C 9,7 km/h (2 Bft) 98,21 %
22.06.2017 14:04 31,9 C 27,2 C 40 % 1012,6 hPa 0,0 l/m 4,5 km/h (1 Bft) W-SW 244 2 min 0,000 mm 5,8 UV-I 919 W/m 16,6 C 31,9 C 8,0 km/h (2 Bft) 98,00 %
22.06.2017 14:06 31,9 C 27,2 C 40 % 1012,6 hPa 0,0 l/m 4,1 km/h (1 Bft) NW 304 2 min 0,000 mm 5,8 UV-I 864 W/m 16,6 C 31,9 C 9,7 km/h (2 Bft) 100,00 %
22.06.2017 14:08 31,9 C 27,2 C 40 % 1012,5 hPa 0,0 l/m 7,5 km/h (2 Bft) SW 235 2 min 0,000 mm 5,9 UV-I 857 W/m 16,6 C 31,9 C 12,9 km/h (3 Bft) 97,87 %
22.06.2017 14:10 31,9 C 27,2 C 40 % 1012,6 hPa 0,0 l/m 6,6 km/h (2 Bft) W 277 2 min 0,000 mm 6,0 UV-I 869 W/m 16,6 C 31,9 C 12,9 km/h (3 Bft) 97,92 %
22.06.2017 14:12 32,0 C 27,2 C 40 % 1012,5 hPa 0,0 l/m 4,3 km/h (1 Bft) W-NW 298 2 min 0,000 mm 5,9 UV-I 854 W/m 16,7 C 32,0 C 9,7 km/h (2 Bft) 97,87 %
22.06.2017 14:14 32,1 C 27,2 C 39 % 1012,4 hPa 0,0 l/m 4,7 km/h (1 Bft) S-SW 204 2 min 0,000 mm 5,9 UV-I 865 W/m 16,4 C 32,1 C 11,3 km/h (2 Bft) 97,87 %
22.06.2017 14:16 32,1 C 27,2 C 38 % 1012,4 hPa 0,0 l/m 6,1 km/h (2 Bft) SW 228 2 min 0,000 mm 5,9 UV-I 867 W/m 16,0 C 32,1 C 14,5 km/h (3 Bft) 100,00 %
22.06.2017 14:18 32,1 C 27,2 C 39 % 1012,4 hPa 0,0 l/m 4,9 km/h (1 Bft) W-SW 254 2 min 0,000 mm 5,9 UV-I 852 W/m 16,4 C 32,1 C 11,3 km/h (2 Bft) 97,14 %
22.06.2017 14:20 32,2 C 27,2 C 38 % 1012,4 hPa 0,0 l/m 9,8 km/h (2 Bft) SW 234 2 min 0,000 mm 5,7 UV-I 858 W/m 16,0 C 32,1 C 17,7 km/h (3 Bft) 95,38 %
22.06.2017 14:22 32,1 C 27,2 C 38 % 1012,4 hPa 0,0 l/m 8,8 km/h (2 Bft) SW 228 2 min 0,000 mm 5,8 UV-I 870 W/m 16,0 C 32,0 C 14,5 km/h (3 Bft) 97,87 %
22.06.2017 14:24 32,1 C 27,2 C 36 % 1012,4 hPa 0,0 l/m 8,6 km/h (2 Bft) SW 236 2 min 0,000 mm 5,6 UV-I 877 W/m 15,1 C 32,0 C 12,9 km/h (3 Bft) 100,00 %
22.06.2017 14:26 31,9 C 27,2 C 37 % 1012,3 hPa 0,0 l/m 3,5 km/h (1 Bft) W-SW 238 2 min 0,000 mm 4,6 UV-I 851 W/m 15,4 C 31,9 C 8,0 km/h (2 Bft) 100,00 %
22.06.2017 14:28 31,8 C 27,2 C 37 % 1012,3 hPa 0,0 l/m 9,3 km/h (2 Bft) SW 217 2 min 0,000 mm 4,5 UV-I 739 W/m 15,3 C 31,7 C 14,5 km/h (3 Bft) 89,47 %
22.06.2017 14:30 31,7 C 27,2 C 38 % 1012,2 hPa 0,0 l/m 4,5 km/h (1 Bft) S-SW 211 0 min 0,000 mm 3,5 UV-I 262 W/m 15,6 C 31,7 C 11,3 km/h (2 Bft) 98,00 %
22.06.2017 14:32 31,7 C 27,2 C 38 % 1012,3 hPa 0,0 l/m 6,6 km/h (2 Bft) W-SW 242 0 min 0,000 mm 5,0 UV-I 306 W/m 15,6 C 31,7 C 8,0 km/h (2 Bft) 95,74 %
22.06.2017 14:34 31,9 C 27,2 C 39 % 1012,2 hPa 0,0 l/m 9,6 km/h (2 Bft) SW 221 2 min 0,000 mm 5,6 UV-I 910 W/m 16,2 C 31,8 C 16,1 km/h (3 Bft) 98,00 %
22.06.2017 14:36 32,2 C 27,2 C 37 % 1012,2 hPa 0,0 l/m 11,0 km/h (2 Bft) W-SW 239 2 min 0,000 mm 5,6 UV-I 870 W/m 15,6 C 32,1 C 20,9 km/h (4 Bft) 100,00 %
22.06.2017 14:38 32,3 C 27,2 C 36 % 1012,1 hPa 0,0 l/m 6,1 km/h (2 Bft) W 263 2 min 0,000 mm 5,5 UV-I 871 W/m 15,3 C 32,3 C 14,5 km/h (3 Bft) 97,87 %
22.06.2017 14:40 32,3 C 27,2 C 37 % 1012,1 hPa 0,0 l/m 4,9 km/h (1 Bft) W-SW 246 2 min 0,000 mm 5,2 UV-I 858 W/m 15,7 C 32,3 C 14,5 km/h (3 Bft) 97,87 %
22.06.2017 14:42 32,4 C 27,2 C 38 % 1012,0 hPa 0,0 l/m 4,1 km/h (1 Bft) NW 317 2 min 0,000 mm 4,6 UV-I 807 W/m 16,2 C 32,4 C 8,0 km/h (2 Bft) 94,29 %
22.06.2017 14:44 32,3 C 27,2 C 37 % 1012,0 hPa 0,0 l/m 3,4 km/h (1 Bft) O-SO 114 2 min 0,000 mm 4,3 UV-I 798 W/m 15,7 C 32,3 C 9,7 km/h (2 Bft) 95,74 %
22.06.2017 14:46 32,3 C 27,2 C 37 % 1012,0 hPa 0,0 l/m 7,9 km/h (2 Bft) SW 227 2 min 0,000 mm 5,2 UV-I 842 W/m 15,7 C 32,3 C 12,9 km/h (3 Bft) 96,15 %
22.06.2017 14:48 32,6 C 27,2 C 38 % 1012,1 hPa 0,0 l/m 11,4 km/h (2 Bft) W 271 2 min 0,000 mm 5,3 UV-I 856 W/m 16,4 C 32,5 C 16,1 km/h (3 Bft) 98,00 %
22.06.2017 14:50 32,5 C 27,2 C 36 % 1012,0 hPa 0,0 l/m 10,7 km/h (2 Bft) SW 236 2 min 0,000 mm 5,3 UV-I 861 W/m 15,5 C 32,4 C 17,7 km/h (3 Bft) 97,87 %
22.06.2017 14:52 32,4 C 27,2 C 38 % 1012,0 hPa 0,0 l/m 6,0 km/h (2 Bft) W-SW 244 2 min 0,000 mm 5,3 UV-I 853 W/m 16,2 C 32,4 C 16,1 km/h (3 Bft) 95,74 %
22.06.2017 14:54 32,2 C 27,2 C 36 % 1012,0 hPa 0,0 l/m 5,4 km/h (1 Bft) W-NW 284 2 min 0,000 mm 4,5 UV-I 851 W/m 15,2 C 32,2 C 12,9 km/h (3 Bft) 97,87 %
22.06.2017 14:56 31,8 C 27,2 C 37 % 1011,9 hPa 0,0 l/m 9,6 km/h (2 Bft) W-SW 239 0 min 0,000 mm 3,5 UV-I 340 W/m 15,3 C 31,7 C 16,1 km/h (3 Bft) 95,83 %
22.06.2017 14:58 31,7 C 27,2 C 39 % 1011,9 hPa 0,0 l/m 6,0 km/h (2 Bft) W-NW 284 0 min 0,000 mm 3,1 UV-I 274 W/m 16,0 C 31,7 C 12,9 km/h (3 Bft) 91,49 %
22.06.2017 15:00 31,6 C 27,2 C 38 % 1012,0 hPa 0,0 l/m 5,1 km/h (1 Bft) W-SW 238 0 min 0,584 mm 3,4 UV-I 250 W/m 15,5 C 31,6 C 16,1 km/h (3 Bft) 93,62 %
22.06.2017 15:02 31,5 C 27,2 C 38 % 1011,9 hPa 0,0 l/m 5,0 km/h (1 Bft) S-SW 194 2 min 0,000 mm 4,4 UV-I 484 W/m 15,4 C 31,5 C 14,5 km/h (3 Bft) 100,00 %
22.06.2017 15:04 31,8 C 27,2 C 38 % 1011,9 hPa 0,0 l/m 7,6 km/h (2 Bft) W 271 2 min 0,000 mm 5,0 UV-I 838 W/m 15,7 C 31,8 C 17,7 km/h (3 Bft) 95,74 %
22.06.2017 15:06 32,2 C 27,2 C 38 % 1011,9 hPa 0,0 l/m 7,1 km/h (2 Bft) W-SW 257 2 min 0,000 mm 4,9 UV-I 784 W/m 16,0 C 32,2 C 14,5 km/h (3 Bft) 91,49 %
22.06.2017 15:08 32,3 C 27,2 C 36 % 1011,8 hPa 0,0 l/m 6,1 km/h (2 Bft) W-SW 246 2 min 0,000 mm 4,7 UV-I 724 W/m 15,3 C 32,3 C 14,5 km/h (3 Bft) 97,87 %
22.06.2017 15:10 32,2 C 27,2 C 37 % 1011,8 hPa 0,0 l/m 11,1 km/h (2 Bft) SW 224 2 min 0,000 mm 4,7 UV-I 742 W/m 15,6 C 32,1 C 16,1 km/h (3 Bft) 91,49 %
22.06.2017 15:12 32,4 C 27,2 C 37 % 1011,8 hPa 0,0 l/m 6,9 km/h (2 Bft) W-NW 298 2 min 0,000 mm 4,7 UV-I 739 W/m 15,8 C 32,4 C 14,5 km/h (3 Bft) 93,62 %
22.06.2017 15:14 32,5 C 27,2 C 37 % 1011,8 hPa 0,0 l/m 5,8 km/h (2 Bft) W 268 2 min 0,000 mm 4,7 UV-I 755 W/m 15,9 C 32,5 C 11,3 km/h (2 Bft) 91,49 %
22.06.2017 15:16 32,3 C 27,2 C 36 % 1011,7 hPa 0,0 l/m 6,3 km/h (2 Bft) W-SW 243 2 min 0,000 mm 4,7 UV-I 752 W/m 15,3 C 32,3 C 9,7 km/h (2 Bft) 95,12 %
22.06.2017 15:18 32,3 C 27,2 C 37 % 1011,7 hPa 0,0 l/m 7,0 km/h (2 Bft) W 271 2 min 0,000 mm 4,7 UV-I 773 W/m 15,7 C 32,3 C 14,5 km/h (3 Bft) 97,87 %
22.06.2017 15:20 32,6 C 27,8 C 37 % 1011,8 hPa 0,0 l/m 8,6 km/h (2 Bft) W 276 2 min 0,000 mm 4,6 UV-I 734 W/m 16,0 C 32,6 C 17,7 km/h (3 Bft) 93,62 %
22.06.2017 15:22 32,7 C 27,8 C 35 % 1011,8 hPa 0,0 l/m 17,2 km/h (3 Bft) SW 232 2 min 0,000 mm 4,6 UV-I 758 W/m 15,2 C 32,6 C 25,7 km/h (4 Bft) 90,00 %
22.06.2017 15:24 32,7 C 27,8 C 35 % 1011,8 hPa 0,0 l/m 17,3 km/h (3 Bft) W-SW 258 2 min 0,000 mm 4,6 UV-I 779 W/m 15,2 C 32,6 C 25,7 km/h (4 Bft) 95,74 %
22.06.2017 15:26 32,5 C 27,8 C 35 % 1011,7 hPa 0,0 l/m 12,3 km/h (3 Bft) W-NW 295 2 min 0,000 mm 4,2 UV-I 713 W/m 15,0 C 32,4 C 19,3 km/h (3 Bft) 91,49 %
22.06.2017 15:28 32,4 C 27,8 C 35 % 1011,7 hPa 0,0 l/m 6,1 km/h (2 Bft) N-NW 330 2 min 0,000 mm 4,2 UV-I 734 W/m 14,9 C 32,4 C 14,5 km/h (3 Bft) 93,62 %
22.06.2017 15:30 32,7 C 27,8 C 36 % 1011,6 hPa 0,0 l/m 2,7 km/h (1 Bft) NW 306 2 min 0,000 mm 4,4 UV-I 751 W/m 15,6 C 32,7 C 4,8 km/h (1 Bft) 93,62 %
22.06.2017 15:32 32,7 C 27,8 C 37 % 1011,6 hPa 0,0 l/m 2,2 km/h (1 Bft) SW 218 2 min 0,000 mm 4,4 UV-I 724 W/m 16,1 C 32,7 C 8,0 km/h (2 Bft) 94,44 %
22.06.2017 15:34 32,8 C 27,8 C 38 % 1011,6 hPa 0,0 l/m 6,7 km/h (2 Bft) W-NW 283 2 min 0,000 mm 4,2 UV-I 708 W/m 16,6 C 32,8 C 14,5 km/h (3 Bft) 90,57 %
22.06.2017 15:36 32,8 C 27,8 C 36 % 1011,6 hPa 0,0 l/m 12,2 km/h (2 Bft) W-SW 251 2 min 0,000 mm 3,9 UV-I 619 W/m 15,7 C 32,8 C 17,7 km/h (3 Bft) 93,62 %
22.06.2017 15:38 32,8 C 27,8 C 36 % 1011,6 hPa 0,0 l/m 7,4 km/h (2 Bft) W-NW 290 2 min 0,000 mm 4,0 UV-I 671 W/m 15,7 C 32,8 C 12,9 km/h (3 Bft) 93,62 %
22.06.2017 15:40 32,7 C 27,8 C 35 % 1011,6 hPa 0,0 l/m 7,4 km/h (2 Bft) W-SW 251 2 min 0,000 mm 4,2 UV-I 739 W/m 15,2 C 32,7 C 14,5 km/h (3 Bft) 92,00 %
22.06.2017 15:42 32,6 C 27,8 C 36 % 1011,6 hPa 0,0 l/m 4,5 km/h (1 Bft) W-SW 240 2 min 0,000 mm 3,8 UV-I 720 W/m 15,6 C 32,6 C 8,0 km/h (2 Bft) 96,00 %
22.06.2017 15:44 32,7 C 27,8 C 37 % 1011,6 hPa 0,0 l/m 3,6 km/h (1 Bft) W-NW 288 2 min 0,000 mm 3,9 UV-I 741 W/m 16,1 C 32,7 C 11,3 km/h (2 Bft) 95,74 %
22.06.2017 15:46 32,8 C 27,8 C 37 % 1011,6 hPa 0,0 l/m 6,8 km/h (2 Bft) W-SW 243 2 min 0,000 mm 3,5 UV-I 744 W/m 16,2 C 32,8 C 12,9 km/h (3 Bft) 88,57 %
22.06.2017 15:48 32,9 C 27,8 C 35 % 1011,6 hPa 0,0 l/m 5,9 km/h (2 Bft) W 272 2 min 0,000 mm 4,1 UV-I 744 W/m 15,4 C 32,9 C 11,3 km/h (2 Bft) 94,00 %
22.06.2017 15:50 32,9 C 27,8 C 36 % 1011,6 hPa 0,0 l/m 4,7 km/h (1 Bft) NW 305 2 min 0,000 mm 4,0 UV-I 709 W/m 15,8 C 32,9 C 8,0 km/h (2 Bft) 95,74 %
22.06.2017 15:52 32,7 C 27,8 C 37 % 1011,5 hPa 0,0 l/m 2,7 km/h (1 Bft) NW 309 2 min 0,000 mm 4,0 UV-I 726 W/m 16,1 C 32,7 C 4,8 km/h (1 Bft) 92,00 %
22.06.2017 15:54 32,6 C 27,8 C 36 % 1011,5 hPa 0,0 l/m 3,4 km/h (1 Bft) W-SW 238 2 min 0,000 mm 3,9 UV-I 697 W/m 15,6 C 32,6 C 6,4 km/h (2 Bft) 95,74 %
22.06.2017 15:56 32,7 C 27,8 C 37 % 1011,6 hPa 0,0 l/m 11,8 km/h (2 Bft) W 269 2 min 0,000 mm 3,8 UV-I 704 W/m 16,1 C 32,7 C 19,3 km/h (3 Bft) 95,74 %
22.06.2017 15:58 32,7 C 27,8 C 36 % 1011,4 hPa 0,0 l/m 11,7 km/h (2 Bft) W-SW 250 2 min 0,000 mm 3,7 UV-I 686 W/m 15,6 C 32,7 C 17,7 km/h (3 Bft) 95,74 %
22.06.2017 16:00 32,8 C 27,8 C 35 % 1011,4 hPa 0,0 l/m 9,3 km/h (2 Bft) W 272 2 min 0,584 mm 3,5 UV-I 626 W/m 15,3 C 32,8 C 16,1 km/h (3 Bft) 97,87 %
22.06.2017 16:02 32,8 C 27,8 C 37 % 1011,4 hPa 0,0 l/m 7,5 km/h (2 Bft) W-NW 289 2 min 0,000 mm 3,4 UV-I 620 W/m 16,2 C 32,8 C 14,5 km/h (3 Bft) 95,74 %
22.06.2017 16:04 32,7 C 27,8 C 35 % 1011,3 hPa 0,0 l/m 13,1 km/h (3 Bft) W-SW 248 2 min 0,000 mm 3,5 UV-I 625 W/m 15,2 C 32,6 C 20,9 km/h (4 Bft) 93,62 %
22.06.2017 16:06 32,6 C 27,8 C 37 % 1011,3 hPa 0,0 l/m 4,5 km/h (1 Bft) W-NW 298 2 min 0,000 mm 3,5 UV-I 645 W/m 16,0 C 32,6 C 16,1 km/h (3 Bft) 97,87 %
22.06.2017 16:08 32,7 C 27,8 C 35 % 1011,3 hPa 0,0 l/m 5,7 km/h (1 Bft) W 278 2 min 0,000 mm 3,2 UV-I 551 W/m 15,2 C 32,7 C 12,9 km/h (3 Bft) 97,87 %
22.06.2017 16:10 32,7 C 27,8 C 35 % 1011,2 hPa 0,0 l/m 5,1 km/h (1 Bft) S-SW 209 2 min 0,000 mm 3,2 UV-I 586 W/m 15,2 C 32,7 C 14,5 km/h (3 Bft) 95,74 %
22.06.2017 16:12 32,6 C 27,8 C 35 % 1011,2 hPa 0,0 l/m 5,7 km/h (1 Bft) W-SW 250 2 min 0,000 mm 3,1 UV-I 574 W/m 15,1 C 32,6 C 9,7 km/h (2 Bft) 100,00 %
22.06.2017 16:14 32,6 C 27,8 C 36 % 1011,2 hPa 0,0 l/m 4,7 km/h (1 Bft) W 281 2 min 0,000 mm 3,3 UV-I 667 W/m 15,6 C 32,6 C 12,9 km/h (3 Bft) 97,44 %
22.06.2017 16:16 32,6 C 27,8 C 37 % 1011,2 hPa 0,0 l/m 4,9 km/h (1 Bft) W-NW 296 2 min 0,000 mm 3,3 UV-I 641 W/m 16,0 C 32,6 C 6,4 km/h (2 Bft) 96,00 %
22.06.2017 16:18 32,7 C 27,8 C 38 % 1011,1 hPa 0,0 l/m 6,5 km/h (2 Bft) NW 312 2 min 0,000 mm 3,1 UV-I 592 W/m 16,5 C 32,7 C 12,9 km/h (3 Bft) 97,87 %
22.06.2017 16:20 32,8 C 27,8 C 35 % 1011,1 hPa 0,0 l/m 9,6 km/h (2 Bft) W 281 2 min 0,000 mm 3,3 UV-I 640 W/m 15,3 C 32,8 C 17,7 km/h (3 Bft) 100,00 %
22.06.2017 16:22 32,8 C 27,8 C 34 % 1011,1 hPa 0,0 l/m 4,1 km/h (1 Bft) W-NW 300 2 min 0,000 mm 3,3 UV-I 671 W/m 14,8 C 32,8 C 8,0 km/h (2 Bft) 97,87 %
22.06.2017 16:24 32,8 C 27,8 C 34 % 1011,1 hPa 0,0 l/m 4,1 km/h (1 Bft) W-SW 243 2 min 0,000 mm 3,3 UV-I 672 W/m 14,8 C 32,8 C 9,7 km/h (2 Bft) 97,87 %
22.06.2017 16:26 33,0 C 27,8 C 35 % 1011,1 hPa 0,0 l/m 10,8 km/h (2 Bft) W-NW 300 2 min 0,000 mm 3,2 UV-I 654 W/m 15,5 C 33,0 C 20,9 km/h (4 Bft) 95,74 %
22.06.2017 16:28 33,0 C 27,8 C 34 % 1011,1 hPa 0,0 l/m 8,9 km/h (2 Bft) W-NW 292 2 min 0,000 mm 3,0 UV-I 620 W/m 15,0 C 33,0 C 14,5 km/h (3 Bft) 98,11 %
22.06.2017 16:30 32,9 C 27,8 C 35 % 1011,0 hPa 0,0 l/m 6,7 km/h (2 Bft) W 263 2 min 0,000 mm 3,0 UV-I 633 W/m 15,4 C 32,9 C 11,3 km/h (2 Bft) 100,00 %
22.06.2017 16:32 32,8 C 27,8 C 36 % 1011,0 hPa 0,0 l/m 4,5 km/h (1 Bft) W 264 2 min 0,000 mm 3,0 UV-I 634 W/m 15,7 C 32,8 C 8,0 km/h (2 Bft) 94,74 %
22.06.2017 16:34 32,8 C 27,8 C 35 % 1011,0 hPa 0,0 l/m 4,1 km/h (1 Bft) N-NW 342 2 min 0,000 mm 2,9 UV-I 615 W/m 15,3 C 32,8 C 9,7 km/h (2 Bft) 100,00 %
22.06.2017 16:36 32,9 C 27,8 C 35 % 1010,9 hPa 0,0 l/m 4,3 km/h (1 Bft) W-NW 285 2 min 0,000 mm 2,8 UV-I 560 W/m 15,4 C 32,9 C 11,3 km/h (2 Bft) 96,00 %
22.06.2017 16:38 32,9 C 27,8 C 35 % 1010,9 hPa 0,0 l/m 7,1 km/h (2 Bft) S-SW 209 2 min 0,000 mm 2,7 UV-I 525 W/m 15,4 C 32,9 C 12,9 km/h (3 Bft) 97,87 %
22.06.2017 16:40 33,0 C 27,8 C 34 % 1010,9 hPa 0,0 l/m 7,7 km/h (2 Bft) W-SW 257 2 min 0,000 mm 2,6 UV-I 493 W/m 15,0 C 33,0 C 12,9 km/h (3 Bft) 100,00 %
22.06.2017 16:42 32,8 C 27,8 C 35 % 1010,9 hPa 0,0 l/m 2,4 km/h (1 Bft) W-NW 287 2 min 0,000 mm 2,5 UV-I 500 W/m 15,3 C 32,8 C 6,4 km/h (2 Bft) 97,87 %
22.06.2017 16:44 32,8 C 27,8 C 34 % 1010,9 hPa 0,0 l/m 4,1 km/h (1 Bft) W-SW 248 2 min 0,000 mm 2,6 UV-I 528 W/m 14,8 C 32,8 C 11,3 km/h (2 Bft) 100,00 %
22.06.2017 16:46 32,8 C 27,8 C 34 % 1010,9 hPa 0,0 l/m 4,9 km/h (1 Bft) W-SW 247 2 min 0,000 mm 2,6 UV-I 533 W/m 14,8 C 32,8 C 11,3 km/h (2 Bft) 96,00 %
22.06.2017 16:48 32,9 C 27,8 C 35 % 1010,9 hPa 0,0 l/m 5,2 km/h (1 Bft) W 264 2 min 0,000 mm 2,7 UV-I 597 W/m 15,4 C 32,9 C 12,9 km/h (3 Bft) 100,00 %
22.06.2017 16:50 33,1 C 27,8 C 34 % 1010,9 hPa 0,0 l/m 4,8 km/h (1 Bft) W-SW 250 2 min 0,000 mm 2,7 UV-I 598 W/m 15,1 C 33,1 C 8,0 km/h (2 Bft) 97,87 %
22.06.2017 16:52 33,3 C 27,8 C 33 % 1010,8 hPa 0,0 l/m 4,8 km/h (1 Bft) W-SW 242 2 min 0,000 mm 2,6 UV-I 565 W/m 14,8 C 33,3 C 8,0 km/h (2 Bft) 97,87 %
22.06.2017 16:54 33,3 C 27,8 C 33 % 1010,8 hPa 0,0 l/m 3,8 km/h (1 Bft) W-SW 238 2 min 0,000 mm 2,5 UV-I 522 W/m 14,8 C 33,3 C 6,4 km/h (2 Bft) 95,74 %
22.06.2017 16:56 33,3 C 27,8 C 34 % 1010,7 hPa 0,0 l/m 2,7 km/h (1 Bft) NW 315 2 min 0,000 mm 2,5 UV-I 553 W/m 15,3 C 33,3 C 6,4 km/h (2 Bft) 100,00 %
22.06.2017 16:58 33,3 C 27,8 C 34 % 1010,7 hPa 0,0 l/m 5,4 km/h (1 Bft) W-NW 286 2 min 0,000 mm 2,4 UV-I 557 W/m 15,3 C 33,3 C 11,3 km/h (2 Bft) 100,00 %
22.06.2017 17:00 33,1 C 27,8 C 34 % 1010,7 hPa 0,0 l/m 5,1 km/h (1 Bft) W-SW 241 2 min 0,000 mm 2,4 UV-I 547 W/m 15,1 C 33,1 C 11,3 km/h (2 Bft) 97,87 %
22.06.2017 17:02 33,0 C 27,8 C 34 % 1010,7 hPa 0,0 l/m 1,3 km/h (1 Bft) W-NW 284 2 min 0,483 mm 2,4 UV-I 530 W/m 15,0 C 33,0 C 3,2 km/h (1 Bft) 96,00 %
22.06.2017 17:04 32,9 C 27,8 C 33 % 1010,7 hPa 0,0 l/m 5,2 km/h (1 Bft) W-SW 249 2 min 0,000 mm 2,3 UV-I 508 W/m 14,5 C 32,9 C 9,7 km/h (2 Bft) 100,00 %
22.06.2017 17:06 32,8 C 27,8 C 35 % 1010,7 hPa 0,0 l/m 6,4 km/h (2 Bft) N-NW 340 2 min 0,000 mm 2,2 UV-I 497 W/m 15,3 C 32,8 C 11,3 km/h (2 Bft) 100,00 %
22.06.2017 17:08 32,7 C 27,8 C 35 % 1010,7 hPa 0,0 l/m 3,3 km/h (1 Bft) W-NW 283 2 min 0,000 mm 2,2 UV-I 499 W/m 15,2 C 32,7 C 6,4 km/h (2 Bft) 98,00 %
22.06.2017 17:10 32,8 C 27,8 C 35 % 1010,7 hPa 0,0 l/m 4,0 km/h (1 Bft) O-NO 66 2 min 0,000 mm 2,1 UV-I 477 W/m 15,3 C 32,8 C 8,0 km/h (2 Bft) 96,00 %
22.06.2017 17:12 32,8 C 27,8 C 34 % 1010,7 hPa 0,0 l/m 3,6 km/h (1 Bft) SW 227 2 min 0,000 mm 2,0 UV-I 442 W/m 14,8 C 32,8 C 8,0 km/h (2 Bft) 100,00 %
22.06.2017 17:14 32,8 C 27,8 C 34 % 1010,8 hPa 0,0 l/m 4,6 km/h (1 Bft) W 263 2 min 0,000 mm 2,1 UV-I 509 W/m 14,8 C 32,8 C 8,0 km/h (2 Bft) 96,00 %
22.06.2017 17:16 32,9 C 27,8 C 35 % 1010,8 hPa 0,0 l/m 3,5 km/h (1 Bft) W-NW 298 2 min 0,000 mm 2,0 UV-I 480 W/m 15,4 C 32,9 C 6,4 km/h (2 Bft) 93,62 %
22.06.2017 17:18 32,8 C 27,8 C 35 % 1010,8 hPa 0,0 l/m 5,0 km/h (1 Bft) W-NW 296 2 min 0,000 mm 2,0 UV-I 449 W/m 15,3 C 32,8 C 14,5 km/h (3 Bft) 96,00 %
22.06.2017 17:20 32,7 C 27,8 C 34 % 1010,8 hPa 0,0 l/m 6,6 km/h (2 Bft) W 265 2 min 0,000 mm 2,0 UV-I 503 W/m 14,8 C 32,7 C 14,5 km/h (3 Bft) 94,00 %
22.06.2017 17:22 32,7 C 27,8 C 34 % 1010,8 hPa 0,0 l/m 4,9 km/h (1 Bft) N-NW 330 2 min 0,000 mm 2,0 UV-I 508 W/m 14,8 C 32,7 C 9,7 km/h (2 Bft) 95,74 %
22.06.2017 17:24 32,8 C 27,8 C 36 % 1010,7 hPa 0,0 l/m 2,9 km/h (1 Bft) NW 306 2 min 0,000 mm 1,9 UV-I 511 W/m 15,7 C 32,8 C 6,4 km/h (2 Bft) 95,74 %
22.06.2017 17:26 32,8 C 27,8 C 34 % 1010,8 hPa 0,0 l/m 6,2 km/h (2 Bft) W-NW 282 2 min 0,000 mm 1,9 UV-I 477 W/m 14,8 C 32,8 C 12,9 km/h (3 Bft) 96,00 %
22.06.2017 17:28 32,8 C 27,8 C 34 % 1010,8 hPa 0,0 l/m 2,2 km/h (1 Bft) NW 325 2 min 0,000 mm 1,9 UV-I 476 W/m 14,8 C 32,8 C 6,4 km/h (2 Bft) 97,87 %
22.06.2017 17:30 32,7 C 27,8 C 35 % 1010,7 hPa 0,0 l/m 3,1 km/h (1 Bft) N-NW 338 2 min 0,000 mm 1,8 UV-I 484 W/m 15,2 C 32,7 C 4,8 km/h (1 Bft) 97,87 %
22.06.2017 17:32 32,7 C 27,8 C 34 % 1010,7 hPa 0,0 l/m 2,3 km/h (1 Bft) NO 42 2 min 0,000 mm 1,8 UV-I 481 W/m 14,8 C 32,7 C 6,4 km/h (2 Bft) 97,44 %
22.06.2017 17:34 32,7 C 27,8 C 35 % 1010,7 hPa 0,0 l/m 2,8 km/h (1 Bft) W-NW 282 2 min 0,000 mm 1,8 UV-I 473 W/m 15,2 C 32,7 C 8,0 km/h (2 Bft) 97,87 %
22.06.2017 17:36 32,8 C 27,8 C 35 % 1010,7 hPa 0,0 l/m 2,0 km/h (1 Bft) W 275 2 min 0,000 mm 1,7 UV-I 467 W/m 15,3 C 32,8 C 4,8 km/h (1 Bft) 95,74 %
22.06.2017 17:38 32,9 C 27,8 C 36 % 1010,7 hPa 0,0 l/m 3,1 km/h (1 Bft) W 281 2 min 0,000 mm 1,7 UV-I 455 W/m 15,8 C 32,9 C 6,4 km/h (2 Bft) 97,87 %
22.06.2017 17:40 32,8 C 27,8 C 36 % 1010,7 hPa 0,0 l/m 3,1 km/h (1 Bft) N-NW 343 2 min 0,000 mm 1,6 UV-I 437 W/m 15,7 C 32,8 C 8,0 km/h (2 Bft) 95,74 %
22.06.2017 17:42 32,8 C 27,8 C 36 % 1010,7 hPa 0,0 l/m 1,5 km/h (1 Bft) W 274 2 min 0,000 mm 1,6 UV-I 446 W/m 15,7 C 32,8 C 6,4 km/h (2 Bft) 100,00 %
22.06.2017 17:44 32,7 C 27,8 C 35 % 1010,7 hPa 0,0 l/m 3,4 km/h (1 Bft) NW 321 2 min 0,000 mm 1,6 UV-I 441 W/m 15,2 C 32,7 C 6,4 km/h (2 Bft) 97,87 %
22.06.2017 17:46 32,6 C 27,8 C 35 % 1010,6 hPa 0,0 l/m 8,7 km/h (2 Bft) SW 221 2 min 0,000 mm 1,5 UV-I 432 W/m 15,1 C 32,6 C 20,9 km/h (4 Bft) 94,00 %
22.06.2017 17:48 32,7 C 27,8 C 36 % 1010,8 hPa 0,0 l/m 2,1 km/h (1 Bft) W 271 2 min 0,000 mm 1,5 UV-I 415 W/m 15,6 C 32,7 C 8,0 km/h (2 Bft) 95,74 %
22.06.2017 17:50 32,8 C 27,8 C 35 % 1010,7 hPa 0,0 l/m 3,6 km/h (1 Bft) W 281 2 min 0,000 mm 1,4 UV-I 401 W/m 15,3 C 32,8 C 8,0 km/h (2 Bft) 92,11 %
22.06.2017 17:52 32,7 C 27,8 C 34 % 1010,8 hPa 0,0 l/m 5,1 km/h (1 Bft) N-NW 331 2 min 0,000 mm 1,4 UV-I 394 W/m 14,8 C 32,7 C 11,3 km/h (2 Bft) 98,11 %
22.06.2017 17:54 32,6 C 27,8 C 35 % 1010,7 hPa 0,0 l/m 4,3 km/h (1 Bft) W-NW 301 2 min 0,000 mm 1,4 UV-I 390 W/m 15,1 C 32,6 C 9,7 km/h (2 Bft) 97,87 %
22.06.2017 17:56 32,5 C 27,8 C 35 % 1010,7 hPa 0,0 l/m 3,1 km/h (1 Bft) NW 309 2 min 0,000 mm 1,3 UV-I 396 W/m 15,0 C 32,5 C 6,4 km/h (2 Bft) 87,23 %
22.06.2017 17:58 32,6 C 27,8 C 36 % 1010,7 hPa 0,0 l/m 1,5 km/h (1 Bft) NW 313 2 min 0,000 mm 1,3 UV-I 387 W/m 15,6 C 32,6 C 6,4 km/h (2 Bft) 93,62 %
22.06.2017 18:00 32,6 C 27,8 C 36 % 1010,7 hPa 0,0 l/m 5,8 km/h (2 Bft) N 355 2 min 0,000 mm 1,3 UV-I 393 W/m 15,6 C 32,6 C 14,5 km/h (3 Bft) 95,74 %
22.06.2017 18:02 32,5 C 27,8 C 36 % 1010,7 hPa 0,0 l/m 3,4 km/h (1 Bft) NO 52 2 min 0,381 mm 1,3 UV-I 384 W/m 15,5 C 32,5 C 6,4 km/h (2 Bft) 94,74 %
22.06.2017 18:04 32,5 C 27,8 C 37 % 1010,7 hPa 0,0 l/m 2,8 km/h (1 Bft) W 271 2 min 0,000 mm 1,2 UV-I 368 W/m 15,9 C 32,5 C 6,4 km/h (2 Bft) 87,50 %
22.06.2017 18:06 32,4 C 27,8 C 37 % 1010,7 hPa 0,0 l/m 5,3 km/h (1 Bft) W-NW 287 2 min 0,000 mm 1,2 UV-I 353 W/m 15,8 C 32,4 C 11,3 km/h (2 Bft) 91,49 %
22.06.2017 18:08 32,3 C 27,8 C 36 % 1010,8 hPa 0,0 l/m 4,0 km/h (1 Bft) W 272 2 min 0,000 mm 1,1 UV-I 336 W/m 15,3 C 32,3 C 9,7 km/h (2 Bft) 91,49 %
22.06.2017 18:10 32,3 C 27,8 C 36 % 1010,7 hPa 0,0 l/m 6,4 km/h (2 Bft) W 276 2 min 0,000 mm 1,1 UV-I 334 W/m 15,3 C 32,3 C 12,9 km/h (3 Bft) 97,87 %
22.06.2017 18:12 32,2 C 27,8 C 35 % 1010,7 hPa 0,0 l/m 5,5 km/h (1 Bft) W 273 2 min 0,000 mm 1,1 UV-I 358 W/m 14,8 C 32,2 C 14,5 km/h (3 Bft) 97,87 %
22.06.2017 18:14 32,3 C 27,8 C 36 % 1010,6 hPa 0,0 l/m 1,1 km/h (1 Bft) W 277 2 min 0,000 mm 1,1 UV-I 350 W/m 15,3 C 32,3 C 3,2 km/h (1 Bft) 92,00 %
22.06.2017 18:16 32,3 C 27,8 C 36 % 1010,6 hPa 0,0 l/m 2,0 km/h (1 Bft) W-SW 251 2 min 0,000 mm 1,0 UV-I 327 W/m 15,3 C 32,3 C 4,8 km/h (1 Bft) 95,74 %
22.06.2017 18:18 32,2 C 27,8 C 36 % 1010,6 hPa 0,0 l/m 2,4 km/h (1 Bft) SW 222 2 min 0,000 mm 1,0 UV-I 328 W/m 15,2 C 32,2 C 4,8 km/h (1 Bft) 96,00 %
22.06.2017 18:20 32,3 C 27,8 C 37 % 1010,5 hPa 0,0 l/m 1,0 km/h (0 Bft) SW 220 2 min 0,000 mm 1,0 UV-I 332 W/m 15,7 C 32,3 C 3,2 km/h (1 Bft) 97,87 %
22.06.2017 18:22 32,2 C 27,8 C 37 % 1010,5 hPa 0,0 l/m 4,3 km/h (1 Bft) W-NW 286 2 min 0,000 mm 0,9 UV-I 324 W/m 15,6 C 32,2 C 12,9 km/h (3 Bft) 95,74 %
22.06.2017 18:24 32,1 C 27,8 C 36 % 1010,4 hPa 0,0 l/m 5,7 km/h (1 Bft) W 264 2 min 0,000 mm 0,8 UV-I 255 W/m 15,1 C 32,1 C 9,7 km/h (2 Bft) 95,74 %
22.06.2017 18:26 32,0 C 27,8 C 36 % 1010,4 hPa 0,0 l/m 4,0 km/h (1 Bft) W-NW 292 2 min 0,000 mm 0,8 UV-I 226 W/m 15,0 C 32,0 C 6,4 km/h (2 Bft) 89,47 %
22.06.2017 18:28 31,9 C 27,8 C 37 % 1010,4 hPa 0,0 l/m 0,8 km/h (0 Bft) N 9 2 min 0,000 mm 0,8 UV-I 254 W/m 15,4 C 31,9 C 4,8 km/h (1 Bft) 95,74 %
22.06.2017 18:30 31,8 C 27,8 C 38 % 1010,3 hPa 0,0 l/m 2,1 km/h (1 Bft) N 10 2 min 0,000 mm 0,8 UV-I 287 W/m 15,7 C 31,8 C 6,4 km/h (2 Bft) 92,16 %
22.06.2017 18:32 31,8 C 27,8 C 38 % 1010,3 hPa 0,0 l/m 0,9 km/h (0 Bft) N-NW 336 2 min 0,000 mm 0,8 UV-I 255 W/m 15,7 C 31,8 C 4,8 km/h (1 Bft) 97,87 %
22.06.2017 18:34 31,7 C 27,8 C 37 % 1010,2 hPa 0,0 l/m 2,4 km/h (1 Bft) W 281 0 min 0,000 mm 0,7 UV-I 202 W/m 15,2 C 31,7 C 4,8 km/h (1 Bft) 100,00 %
22.06.2017 18:36 31,6 C 27,8 C 37 % 1010,2 hPa 0,0 l/m 3,2 km/h (1 Bft) W-SW 250 0 min 0,000 mm 0,7 UV-I 185 W/m 15,1 C 31,6 C 6,4 km/h (2 Bft) 96,00 %
22.06.2017 18:38 31,6 C 27,8 C 37 % 1010,2 hPa 0,0 l/m 1,3 km/h (1 Bft) SW 236 0 min 0,000 mm 0,6 UV-I 186 W/m 15,1 C 31,6 C 3,2 km/h (1 Bft) 93,62 %
22.06.2017 18:40 31,4 C 27,8 C 36 % 1010,1 hPa 0,0 l/m 6,4 km/h (2 Bft) W-SW 238 0 min 0,000 mm 0,6 UV-I 183 W/m 14,5 C 31,4 C 14,5 km/h (3 Bft) 97,50 %
22.06.2017 18:42 31,4 C 27,8 C 38 % 1010,1 hPa 0,0 l/m 1,4 km/h (1 Bft) W-SW 246 0 min 0,000 mm 0,6 UV-I 190 W/m 15,3 C 31,4 C 4,8 km/h (1 Bft) 100,00 %
22.06.2017 18:44 31,3 C 27,8 C 39 % 1010,1 hPa 0,0 l/m 1,0 km/h (0 Bft) W-SW 246 2 min 0,000 mm 0,6 UV-I 194 W/m 15,7 C 31,3 C 4,8 km/h (1 Bft) 95,74 %
22.06.2017 18:46 31,2 C 27,8 C 38 % 1010,1 hPa 0,0 l/m 4,2 km/h (1 Bft) W 261 2 min 0,000 mm 0,6 UV-I 209 W/m 15,2 C 31,2 C 11,3 km/h (2 Bft) 97,92 %
22.06.2017 18:48 31,2 C 27,8 C 38 % 1010,0 hPa 0,0 l/m 3,2 km/h (1 Bft) W-NW 283 2 min 0,000 mm 0,6 UV-I 211 W/m 15,2 C 31,2 C 4,8 km/h (1 Bft) 97,87 %
22.06.2017 18:50 31,2 C 27,8 C 39 % 1010,0 hPa 0,0 l/m 2,7 km/h (1 Bft) W-SW 250 2 min 0,000 mm 0,5 UV-I 203 W/m 15,6 C 31,2 C 8,0 km/h (2 Bft) 95,92 %
22.06.2017 18:52 31,2 C 27,8 C 38 % 1010,0 hPa 0,0 l/m 2,3 km/h (1 Bft) W 279 2 min 0,000 mm 0,5 UV-I 205 W/m 15,2 C 31,2 C 4,8 km/h (1 Bft) 96,00 %
22.06.2017 18:54 31,2 C 27,8 C 40 % 1010,0 hPa 0,0 l/m 0,4 km/h (0 Bft) W 279 2 min 0,000 mm 0,5 UV-I 177 W/m 16,0 C 31,2 C 1,6 km/h (1 Bft) 93,62 %
22.06.2017 18:56 31,1 C 27,8 C 39 % 1010,0 hPa 0,0 l/m 0,3 km/h (0 Bft) W 279 0 min 0,000 mm 0,5 UV-I 163 W/m 15,5 C 31,1 C 1,6 km/h (1 Bft) 97,37 %
22.06.2017 18:58 31,1 C 27,8 C 38 % 1010,0 hPa 0,0 l/m 1,2 km/h (1 Bft) W-NW 284 0 min 0,000 mm 0,5 UV-I 165 W/m 15,1 C 31,1 C 6,4 km/h (2 Bft) 95,74 %
22.06.2017 19:00 31,1 C 27,8 C 39 % 1010,0 hPa 0,0 l/m 1,5 km/h (1 Bft) W-NW 284 0 min 0,228 mm 0,2 UV-I 163 W/m 15,5 C 31,1 C 3,2 km/h (1 Bft) 95,74 %
22.06.2017 19:02 31,0 C 27,8 C 39 % 1010,0 hPa 0,0 l/m 1,1 km/h (1 Bft) W-NW 284 0 min 0,000 mm 0,0 UV-I 158 W/m 15,4 C 31,0 C 3,2 km/h (1 Bft) 97,87 %
22.06.2017 19:04 30,9 C 27,8 C 39 % 1010,1 hPa 0,0 l/m 1,9 km/h (1 Bft) W-NW 284 0 min 0,000 mm 0,0 UV-I 156 W/m 15,3 C 30,9 C 3,2 km/h (1 Bft) 95,74 %
22.06.2017 19:06 30,9 C 27,8 C 40 % 1010,1 hPa 0,0 l/m 3,5 km/h (1 Bft) W-NW 283 2 min 0,000 mm 0,0 UV-I 160 W/m 15,7 C 30,9 C 6,4 km/h (2 Bft) 96,00 %
22.06.2017 19:08 30,8 C 27,8 C 39 % 1010,1 hPa 0,0 l/m 3,8 km/h (1 Bft) W 272 0 min 0,000 mm 0,0 UV-I 145 W/m 15,2 C 30,8 C 12,9 km/h (3 Bft) 94,00 %
22.06.2017 19:10 30,7 C 27,8 C 38 % 1010,0 hPa 0,0 l/m 2,0 km/h (1 Bft) W 259 0 min 0,000 mm 0,0 UV-I 144 W/m 14,7 C 30,7 C 12,9 km/h (3 Bft) 95,74 %
22.06.2017 19:12 30,7 C 27,8 C 39 % 1010,0 hPa 0,0 l/m 0,8 km/h (0 Bft) W 259 0 min 0,000 mm 0,0 UV-I 150 W/m 15,1 C 30,7 C 3,2 km/h (1 Bft) 97,87 %
22.06.2017 19:14 30,6 C 27,8 C 39 % 1010,0 hPa 0,0 l/m 2,7 km/h (1 Bft) W 281 2 min 0,000 mm 0,0 UV-I 154 W/m 15,0 C 30,6 C 4,8 km/h (1 Bft) 97,87 %
22.06.2017 19:16 30,6 C 27,8 C 40 % 1010,1 hPa 0,0 l/m 0,5 km/h (0 Bft) W 281 2 min 0,000 mm 0,0 UV-I 156 W/m 15,4 C 30,6 C 3,2 km/h (1 Bft) 97,37 %
22.06.2017 19:18 30,6 C 27,8 C 40 % 1010,1 hPa 0,0 l/m 1,4 km/h (1 Bft) W 281 2 min 0,000 mm 0,0 UV-I 163 W/m 15,4 C 30,6 C 3,2 km/h (1 Bft) 93,62 %
22.06.2017 19:20 30,6 C 27,8 C 41 % 1010,0 hPa 0,0 l/m 0,7 km/h (0 Bft) W 281 2 min 0,000 mm 0,0 UV-I 153 W/m 15,8 C 30,6 C 1,6 km/h (1 Bft) 100,00 %
22.06.2017 19:22 30,5 C 27,8 C 39 % 1010,0 hPa 0,0 l/m 0,7 km/h (0 Bft) W 281 2 min 0,000 mm 0,0 UV-I 150 W/m 15,0 C 30,5 C 3,2 km/h (1 Bft) 98,00 %
22.06.2017 19:24 30,4 C 27,8 C 40 % 1010,0 hPa 0,0 l/m 1,3 km/h (1 Bft) W 281 2 min 0,000 mm 0,0 UV-I 151 W/m 15,3 C 30,4 C 3,2 km/h (1 Bft) 97,87 %
22.06.2017 19:26 30,4 C 27,8 C 40 % 1010,0 hPa 0,0 l/m 0,2 km/h (0 Bft) W 281 2 min 0,000 mm 0,0 UV-I 143 W/m 15,3 C 30,4 C 1,6 km/h (1 Bft) 97,92 %
22.06.2017 19:28 30,3 C 27,8 C 40 % 1010,0 hPa 0,0 l/m 0,2 km/h (0 Bft) W 281 2 min 0,000 mm 0,0 UV-I 142 W/m 15,2 C 30,3 C 1,6 km/h (1 Bft) 100,00 %
22.06.2017 19:30 30,3 C 27,8 C 40 % 1009,9 hPa 0,0 l/m 3,2 km/h (1 Bft) W 278 2 min 0,000 mm 0,0 UV-I 139 W/m 15,2 C 30,3 C 6,4 km/h (2 Bft) 97,87 %
22.06.2017 19:32 30,4 C 27,8 C 38 % 1009,9 hPa 0,0 l/m 3,8 km/h (1 Bft) W-SW 254 2 min 0,000 mm 0,0 UV-I 136 W/m 14,5 C 30,4 C 9,7 km/h (2 Bft) 100,00 %
22.06.2017 19:34 30,4 C 27,8 C 38 % 1009,9 hPa 0,0 l/m 3,0 km/h (1 Bft) W 273 2 min 0,000 mm 0,0 UV-I 135 W/m 14,5 C 30,4 C 6,4 km/h (2 Bft) 100,00 %
22.06.2017 19:36 30,4 C 27,8 C 39 % 1009,9 hPa 0,0 l/m 1,3 km/h (1 Bft) W 275 2 min 0,000 mm 0,0 UV-I 131 W/m 14,9 C 30,4 C 3,2 km/h (1 Bft) 98,00 %
22.06.2017 19:38 30,4 C 27,8 C 38 % 1009,9 hPa 0,0 l/m 0,5 km/h (0 Bft) W 275 2 min 0,000 mm 0,0 UV-I 128 W/m 14,5 C 30,4 C 3,2 km/h (1 Bft) 95,74 %
22.06.2017 19:40 30,4 C 27,8 C 38 % 1009,9 hPa 0,0 l/m 1,6 km/h (1 Bft) W 275 2 min 0,000 mm 0,0 UV-I 116 W/m 14,5 C 30,4 C 4,8 km/h (1 Bft) 100,00 %
22.06.2017 19:42 30,4 C 27,8 C 38 % 1009,9 hPa 0,0 l/m 1,7 km/h (1 Bft) W 276 0 min 0,000 mm 0,0 UV-I 107 W/m 14,5 C 30,4 C 4,8 km/h (1 Bft) 95,74 %
22.06.2017 19:44 30,3 C 27,8 C 40 % 1010,0 hPa 0,0 l/m 0,7 km/h (0 Bft) W 276 0 min 0,000 mm 0,0 UV-I 101 W/m 15,2 C 30,3 C 3,2 km/h (1 Bft) 97,87 %
22.06.2017 19:46 30,1 C 27,8 C 41 % 1010,0 hPa 0,0 l/m 0,9 km/h (0 Bft) W 276 0 min 0,000 mm 0,0 UV-I 95 W/m 15,4 C 30,1 C 1,6 km/h (1 Bft) 100,00 %
22.06.2017 19:48 29,9 C 27,8 C 41 % 1010,1 hPa 0,0 l/m 0,6 km/h (0 Bft) W 276 0 min 0,000 mm 0,0 UV-I 90 W/m 15,2 C 29,9 C 1,6 km/h (1 Bft) 100,00 %
22.06.2017 19:50 29,8 C 27,8 C 41 % 1010,0 hPa 0,0 l/m 0,5 km/h (0 Bft) W 276 0 min 0,000 mm 0,0 UV-I 83 W/m 15,1 C 29,8 C 1,6 km/h (1 Bft) 97,87 %
22.06.2017 19:52 29,7 C 27,8 C 42 % 1010,0 hPa 0,0 l/m 0,1 km/h (0 Bft) W 276 0 min 0,000 mm 0,0 UV-I 78 W/m 15,4 C 29,7 C 1,6 km/h (1 Bft) 100,00 %
22.06.2017 19:54 29,7 C 27,8 C 41 % 1010,0 hPa 0,0 l/m 1,2 km/h (1 Bft) W 276 0 min 0,000 mm 0,0 UV-I 72 W/m 15,0 C 29,7 C 3,2 km/h (1 Bft) 95,74 %
22.06.2017 19:56 29,7 C 27,8 C 42 % 1010,1 hPa 0,0 l/m 0,7 km/h (0 Bft) W 276 0 min 0,000 mm 0,0 UV-I 69 W/m 15,4 C 29,7 C 3,2 km/h (1 Bft) 100,00 %
22.06.2017 19:58 29,7 C 27,8 C 41 % 1010,1 hPa 0,0 l/m 1,0 km/h (0 Bft) W 276 0 min 0,000 mm 0,0 UV-I 66 W/m 15,0 C 29,7 C 3,2 km/h (1 Bft) 100,00 %
22.06.2017 20:00 29,6 C 27,8 C 43 % 1010,1 hPa 0,0 l/m 1,3 km/h (1 Bft) W 276 0 min 0,102 mm 0,0 UV-I 63 W/m 15,7 C 29,6 C 3,2 km/h (1 Bft) 97,87 %
22.06.2017 20:02 29,6 C 27,8 C 44 % 1010,1 hPa 0,0 l/m 0,2 km/h (0 Bft) W 276 0 min 0,000 mm 0,0 UV-I 62 W/m 16,0 C 29,6 C 1,6 km/h (1 Bft) 95,83 %
22.06.2017 20:04 29,6 C 27,8 C 44 % 1010,1 hPa 0,0 l/m 0,4 km/h (0 Bft) W 276 0 min 0,000 mm 0,0 UV-I 59 W/m 16,0 C 29,6 C 3,2 km/h (1 Bft) 100,00 %
22.06.2017 20:06 29,4 C 27,8 C 46 % 1010,0 hPa 0,0 l/m 0,0 km/h (0 Bft) W 276 0 min 0,000 mm 0,0 UV-I 58 W/m 16,5 C 29,4 C 0,0 km/h (0 Bft) 100,00 %
22.06.2017 20:08 29,3 C 27,8 C 46 % 1010,0 hPa 0,0 l/m 0,1 km/h (0 Bft) W 276 0 min 0,000 mm 0,0 UV-I 56 W/m 16,5 C 29,3 C 1,6 km/h (1 Bft) 100,00 %
22.06.2017 20:10 29,3 C 27,8 C 46 % 1009,9 hPa 0,0 l/m 0,0 km/h (0 Bft) W 276 0 min 0,000 mm 0,0 UV-I 54 W/m 16,5 C 29,3 C 0,0 km/h (0 Bft) 97,87 %
22.06.2017 20:12 29,2 C 27,8 C 46 % 1009,9 hPa 0,0 l/m 0,0 km/h (0 Bft) W 276 0 min 0,000 mm 0,0 UV-I 53 W/m 16,4 C 29,2 C 1,6 km/h (1 Bft) 97,87 %
22.06.2017 20:14 29,1 C 27,8 C 47 % 1009,9 hPa 0,0 l/m 0,9 km/h (0 Bft) W 276 0 min 0,000 mm 0,0 UV-I 51 W/m 16,6 C 29,1 C 1,6 km/h (1 Bft) 97,87 %
22.06.2017 20:16 29,0 C 27,8 C 45 % 1009,9 hPa 0,0 l/m 0,0 km/h (0 Bft) W 276 0 min 0,000 mm 0,0 UV-I 48 W/m 15,8 C 29,0 C 0,0 km/h (0 Bft) 98,00 %
22.06.2017 20:18 28,9 C 27,8 C 45 % 1009,8 hPa 0,0 l/m 0,3 km/h (0 Bft) W 276 0 min 0,000 mm 0,0 UV-I 47 W/m 15,8 C 28,9 C 1,6 km/h (1 Bft) 100,00 %
22.06.2017 20:20 28,9 C 27,8 C 45 % 1009,8 hPa 0,0 l/m 0,0 km/h (0 Bft) W 276 0 min 0,000 mm 0,0 UV-I 45 W/m 15,8 C 28,9 C 0,0 km/h (0 Bft) 100,00 %
22.06.2017 20:22 28,8 C 27,8 C 49 % 1009,9 hPa 0,0 l/m 0,0 km/h (0 Bft) W 276 0 min 0,000 mm 0,0 UV-I 42 W/m 17,0 C 28,8 C 0,0 km/h (0 Bft) 97,87 %
22.06.2017 20:24 28,6 C 27,8 C 49 % 1009,8 hPa 0,0 l/m 0,0 km/h (0 Bft) W 276 0 min 0,000 mm 0,0 UV-I 40 W/m 16,8 C 28,6 C 0,0 km/h (0 Bft) 95,74 %
22.06.2017 20:26 28,3 C 27,8 C 49 % 1009,8 hPa 0,0 l/m 0,2 km/h (0 Bft) W 276 0 min 0,000 mm 0,0 UV-I 38 W/m 16,5 C 28,3 C 1,6 km/h (1 Bft) 97,87 %
22.06.2017 20:28 28,0 C 27,8 C 51 % 1009,8 hPa 0,0 l/m 1,5 km/h (1 Bft) W 276 0 min 0,000 mm 0,0 UV-I 35 W/m 16,9 C 28,0 C 3,2 km/h (1 Bft) 100,00 %
22.06.2017 20:30 27,7 C 27,8 C 51 % 1009,8 hPa 0,0 l/m 1,4 km/h (1 Bft) W 276 0 min 0,000 mm 0,0 UV-I 32 W/m 16,6 C 27,7 C 3,2 km/h (1 Bft) 95,74 %
22.06.2017 20:32 27,6 C 27,8 C 52 % 1009,8 hPa 0,0 l/m 0,1 km/h (0 Bft) W 276 0 min 0,000 mm 0,0 UV-I 30 W/m 16,8 C 27,6 C 1,6 km/h (1 Bft) 100,00 %
22.06.2017 20:34 27,4 C 27,8 C 51 % 1009,7 hPa 0,0 l/m 0,0 km/h (0 Bft) W 276 0 min 0,000 mm 0,0 UV-I 27 W/m 16,3 C 27,4 C 0,0 km/h (0 Bft) 97,87 %
22.06.2017 20:36 27,3 C 27,8 C 50 % 1009,7 hPa 0,0 l/m 0,0 km/h (0 Bft) W 276 0 min 0,000 mm 0,0 UV-I 25 W/m 15,9 C 27,3 C 0,0 km/h (0 Bft) 95,74 %
22.06.2017 20:38 27,3 C 27,8 C 52 % 1009,7 hPa 0,0 l/m 0,0 km/h (0 Bft) W 276 0 min 0,000 mm 0,0 UV-I 24 W/m 16,6 C 27,3 C 0,0 km/h (0 Bft) 95,74 %
22.06.2017 20:40 27,2 C 27,8 C 53 % 1009,7 hPa 0,0 l/m 0,0 km/h (0 Bft) W 276 0 min 0,000 mm 0,0 UV-I 21 W/m 16,8 C 27,2 C 0,0 km/h (0 Bft) 97,87 %
22.06.2017 20:42 27,0 C 27,8 C 54 % 1009,8 hPa 0,0 l/m 0,0 km/h (0 Bft) W 276 0 min 0,000 mm 0,0 UV-I 20 W/m 16,9 C 27,0 C 0,0 km/h (0 Bft) 93,75 %
22.06.2017 20:44 26,8 C 27,8 C 55 % 1009,8 hPa 0,0 l/m 0,0 km/h (0 Bft) W 276 0 min 0,000 mm 0,0 UV-I 19 W/m 17,0 C 26,8 C 0,0 km/h (0 Bft) 95,74 %
22.06.2017 20:46 26,7 C 27,8 C 55 % 1009,8 hPa 0,0 l/m 0,0 km/h (0 Bft) W 276 0 min 0,000 mm 0,0 UV-I 18 W/m 16,9 C 26,7 C 0,0 km/h (0 Bft) 95,74 %
22.06.2017 20:48 26,7 C 27,8 C 55 % 1009,8 hPa 0,0 l/m 0,0 km/h (0 Bft) W 276 0 min 0,000 mm 0,0 UV-I 16 W/m 16,9 C 26,7 C 0,0 km/h (0 Bft) 89,36 %
22.06.2017 20:50 26,6 C 27,8 C 55 % 1009,8 hPa 0,0 l/m 0,0 km/h (0 Bft) W 276 2 min 0,000 mm 0,0 UV-I 15 W/m 16,8 C 26,6 C 0,0 km/h (0 Bft) 95,74 %
22.06.2017 20:52 26,6 C 27,8 C 56 % 1009,8 hPa 0,0 l/m 0,0 km/h (0 Bft) W 276 2 min 0,000 mm 0,0 UV-I 13 W/m 17,1 C 26,6 C 0,0 km/h (0 Bft) 97,87 %
22.06.2017 20:54 26,4 C 27,8 C 56 % 1009,8 hPa 0,0 l/m 0,1 km/h (0 Bft) W 276 2 min 0,000 mm 0,0 UV-I 12 W/m 16,9 C 26,4 C 1,6 km/h (1 Bft) 91,49 %
22.06.2017 20:56 26,3 C 27,8 C 54 % 1009,7 hPa 0,0 l/m 0,4 km/h (0 Bft) W 276 0 min 0,000 mm 0,0 UV-I 11 W/m 16,2 C 26,3 C 1,6 km/h (1 Bft) 95,74 %
22.06.2017 20:58 26,2 C 27,8 C 54 % 1009,8 hPa 0,0 l/m 0,2 km/h (0 Bft) W 276 0 min 0,000 mm 0,0 UV-I 10 W/m 16,1 C 26,2 C 1,6 km/h (1 Bft) 93,62 %
22.06.2017 21:00 26,2 C 27,8 C 54 % 1009,8 hPa 0,0 l/m 0,0 km/h (0 Bft) W 276 0 min 0,000 mm 0,0 UV-I 9 W/m 16,1 C 26,2 C 0,0 km/h (0 Bft) 93,62 %
22.06.2017 21:02 26,1 C 27,8 C 54 % 1009,8 hPa 0,0 l/m 0,0 km/h (0 Bft) W 276 0 min 0,025 mm 0,0 UV-I 7 W/m 16,0 C 26,1 C 1,6 km/h (1 Bft) 94,00 %
22.06.2017 21:04 26,1 C 27,8 C 55 % 1009,8 hPa 0,0 l/m 0,0 km/h (0 Bft) W 276 0 min 0,000 mm 0,0 UV-I 7 W/m 16,3 C 26,1 C 0,0 km/h (0 Bft) 89,36 %
22.06.2017 21:06 25,9 C 27,8 C 55 % 1009,8 hPa 0,0 l/m 0,0 km/h (0 Bft) W 276 0 min 0,000 mm 0,0 UV-I 5 W/m 16,2 C 25,9 C 0,0 km/h (0 Bft) 93,62 %
22.06.2017 21:08 25,9 C 27,8 C 56 % 1009,9 hPa 0,0 l/m 0,1 km/h (0 Bft) W 276 0 min 0,000 mm 0,0 UV-I 5 W/m 16,4 C 25,9 C 1,6 km/h (1 Bft) 95,74 %
22.06.2017 21:10 25,8 C 27,8 C 56 % 1010,0 hPa 0,0 l/m 0,1 km/h (0 Bft) W 276 0 min 0,000 mm 0,0 UV-I 5 W/m 16,3 C 25,8 C 1,6 km/h (1 Bft) 97,30 %
22.06.2017 21:12 25,7 C 27,8 C 57 % 1010,0 hPa 0,0 l/m 0,0 km/h (0 Bft) W 276 0 min 0,000 mm 0,0 UV-I 5 W/m 16,5 C 25,7 C 0,0 km/h (0 Bft) 91,49 %
22.06.2017 21:14 25,7 C 27,8 C 56 % 1009,9 hPa 0,0 l/m 0,5 km/h (0 Bft) W 276 0 min 0,000 mm 0,0 UV-I 5 W/m 16,2 C 25,7 C 1,6 km/h (1 Bft) 94,00 %
22.06.2017 21:16 25,7 C 27,8 C 56 % 1010,0 hPa 0,0 l/m 0,4 km/h (0 Bft) W 276 0 min 0,000 mm 0,0 UV-I 5 W/m 16,2 C 25,7 C 1,6 km/h (1 Bft) 95,74 %
22.06.2017 21:18 25,7 C 27,8 C 56 % 1010,0 hPa 0,0 l/m 0,8 km/h (0 Bft) W 276 0 min 0,000 mm 0,0 UV-I 4 W/m 16,2 C 25,7 C 3,2 km/h (1 Bft) 93,62 %
22.06.2017 21:20 25,6 C 27,8 C 57 % 1010,0 hPa 0,0 l/m 0,2 km/h (0 Bft) W 276 0 min 0,000 mm 0,0 UV-I 0 W/m 16,4 C 25,6 C 1,6 km/h (1 Bft) 97,87 %
22.06.2017 21:22 25,6 C 27,8 C 56 % 1010,1 hPa 0,0 l/m 0,4 km/h (0 Bft) W 276 0 min 0,000 mm 0,0 UV-I 0 W/m 16,2 C 25,6 C 1,6 km/h (1 Bft) 95,83 %
22.06.2017 21:24 25,6 C 27,8 C 56 % 1010,1 hPa 0,0 l/m 1,2 km/h (1 Bft) W 275 0 min 0,000 mm 0,0 UV-I 0 W/m 16,2 C 25,6 C 3,2 km/h (1 Bft) 97,96 %
22.06.2017 21:26 25,6 C 27,8 C 56 % 1010,2 hPa 0,0 l/m 0,9 km/h (0 Bft) W 275 0 min 0,000 mm 0,0 UV-I 0 W/m 16,2 C 25,6 C 3,2 km/h (1 Bft) 93,75 %
22.06.2017 21:28 25,6 C 27,8 C 56 % 1010,2 hPa 0,0 l/m 0,4 km/h (0 Bft) W 275 0 min 0,000 mm 0,0 UV-I 0 W/m 16,2 C 25,6 C 1,6 km/h (1 Bft) 95,74 %
22.06.2017 21:30 25,5 C 27,8 C 57 % 1010,3 hPa 0,0 l/m 0,4 km/h (0 Bft) W 275 0 min 0,000 mm 0,0 UV-I 0 W/m 16,3 C 25,5 C 1,6 km/h (1 Bft) 93,62 %
22.06.2017 21:32 25,4 C 27,8 C 57 % 1010,3 hPa 0,0 l/m 0,6 km/h (0 Bft) W 275 0 min 0,000 mm 0,0 UV-I 0 W/m 16,2 C 25,4 C 1,6 km/h (1 Bft) 97,87 %
22.06.2017 21:34 25,3 C 27,8 C 56 % 1010,3 hPa 0,0 l/m 1,0 km/h (0 Bft) W 275 0 min 0,000 mm 0,0 UV-I 0 W/m 15,9 C 25,3 C 1,6 km/h (1 Bft) 91,49 %
22.06.2017 21:36 25,3 C 27,8 C 57 % 1010,3 hPa 0,0 l/m 0,9 km/h (0 Bft) SW 234 0 min 0,000 mm 0,0 UV-I 0 W/m 16,2 C 25,3 C 3,2 km/h (1 Bft) 97,37 %
22.06.2017 21:38 25,2 C 27,8 C 58 % 1010,3 hPa 0,0 l/m 1,1 km/h (1 Bft) SW 233 0 min 0,000 mm 0,0 UV-I 0 W/m 16,3 C 25,2 C 3,2 km/h (1 Bft) 95,74 %
22.06.2017 21:40 25,2 C 27,8 C 57 % 1010,3 hPa 0,0 l/m 0,6 km/h (0 Bft) SW 232 0 min 0,000 mm 0,0 UV-I 0 W/m 16,1 C 25,2 C 1,6 km/h (1 Bft) 94,00 %
22.06.2017 21:43 25,2 C 27,8 C 56 % 1010,3 hPa 0,0 l/m 1,1 km/h (1 Bft) SW 231 0 min 0,000 mm 0,0 UV-I 0 W/m 15,8 C 25,2 C 3,2 km/h (1 Bft) 96,05 %
22.06.2017 21:44 25,3 C 27,8 C 56 % 1010,3 hPa 0,0 l/m 0,8 km/h (0 Bft) SW 231 0 min 0,000 mm 0,0 UV-I 0 W/m 15,9 C 25,3 C 3,2 km/h (1 Bft) 95,83 %
22.06.2017 21:46 25,3 C 27,8 C 56 % 1010,4 hPa 0,0 l/m 1,6 km/h (1 Bft) SW 231 0 min 0,000 mm 0,0 UV-I 0 W/m 15,9 C 25,3 C 4,8 km/h (1 Bft) 97,87 %
22.06.2017 21:48 25,3 C 27,8 C 57 % 1010,3 hPa 0,0 l/m 0,3 km/h (0 Bft) SW 231 0 min 0,000 mm 0,0 UV-I 0 W/m 16,2 C 25,3 C 1,6 km/h (1 Bft) 93,62 %
22.06.2017 21:50 25,3 C 27,8 C 56 % 1010,3 hPa 0,0 l/m 0,0 km/h (0 Bft) SW 231 0 min 0,000 mm 0,0 UV-I 0 W/m 15,9 C 25,3 C 1,6 km/h (1 Bft) 95,74 %
22.06.2017 21:53 25,3 C 27,8 C 57 % 1010,4 hPa 0,0 l/m 0,4 km/h (0 Bft) SW 231 0 min 0,000 mm 0,0 UV-I 0 W/m 16,2 C 25,3 C 1,6 km/h (1 Bft) 97,18 %
22.06.2017 21:54 25,3 C 27,8 C 57 % 1010,4 hPa 0,0 l/m 0,6 km/h (0 Bft) SW 231 0 min 0,000 mm 0,0 UV-I 0 W/m 16,2 C 25,3 C 1,6 km/h (1 Bft) 100,00 %
22.06.2017 21:56 25,2 C 27,8 C 57 % 1010,4 hPa 0,0 l/m 0,5 km/h (0 Bft) SW 231 0 min 0,000 mm 0,0 UV-I 0 W/m 16,1 C 25,2 C 1,6 km/h (1 Bft) 95,83 %
22.06.2017 21:58 25,2 C 27,8 C 58 % 1010,4 hPa 0,0 l/m 0,0 km/h (0 Bft) SW 231 0 min 0,000 mm 0,0 UV-I 0 W/m 16,3 C 25,2 C 1,6 km/h (1 Bft) 98,18 %
22.06.2017 22:00 25,1 C 27,8 C 58 % 1010,3 hPa 0,0 l/m 0,1 km/h (0 Bft) SW 231 0 min 0,026 mm 0,0 UV-I 0 W/m 16,2 C 25,1 C 1,6 km/h (1 Bft) 95,74 %
22.06.2017 22:02 25,1 C 27,8 C 59 % 1010,3 hPa 0,0 l/m 0,1 km/h (0 Bft) SW 231 0 min 0,000 mm 0,0 UV-I 0 W/m 16,5 C 25,1 C 1,6 km/h (1 Bft) 97,87 %
22.06.2017 22:04 24,9 C 27,8 C 58 % 1010,3 hPa 0,0 l/m 0,2 km/h (0 Bft) SW 231 0 min 0,000 mm 0,0 UV-I 0 W/m 16,1 C 24,9 C 1,6 km/h (1 Bft) 97,92 %
22.06.2017 22:06 24,9 C 27,8 C 59 % 1010,3 hPa 0,0 l/m 1,3 km/h (1 Bft) SW 231 0 min 0,000 mm 0,0 UV-I 0 W/m 16,3 C 24,9 C 3,2 km/h (1 Bft) 97,87 %
22.06.2017 22:08 24,8 C 27,8 C 58 % 1010,4 hPa 0,0 l/m 2,0 km/h (1 Bft) SW 231 0 min 0,000 mm 0,0 UV-I 0 W/m 16,0 C 24,8 C 4,8 km/h (1 Bft) 97,37 %
22.06.2017 22:10 24,8 C 27,8 C 58 % 1010,3 hPa 0,0 l/m 2,0 km/h (1 Bft) SW 230 0 min 0,000 mm 0,0 UV-I 0 W/m 16,0 C 24,8 C 4,8 km/h (1 Bft) 96,23 %
22.06.2017 22:12 24,8 C 27,8 C 59 % 1010,4 hPa 0,0 l/m 2,1 km/h (1 Bft) SW 228 0 min 0,000 mm 0,0 UV-I 0 W/m 16,2 C 24,8 C 4,8 km/h (1 Bft) 97,87 %
22.06.2017 22:14 24,8 C 27,8 C 59 % 1010,3 hPa 0,0 l/m 3,4 km/h (1 Bft) S-SW 204 0 min 0,000 mm 0,0 UV-I 0 W/m 16,2 C 24,8 C 6,4 km/h (2 Bft) 98,00 %
22.06.2017 22:16 24,8 C 27,8 C 59 % 1010,2 hPa 0,0 l/m 3,7 km/h (1 Bft) S-SW 204 0 min 0,000 mm 0,0 UV-I 0 W/m 16,2 C 24,8 C 6,4 km/h (2 Bft) 97,87 %
22.06.2017 22:18 24,8 C 27,8 C 59 % 1010,3 hPa 0,0 l/m 3,2 km/h (1 Bft) S-SW 204 0 min 0,000 mm 0,0 UV-I 0 W/m 16,2 C 24,8 C 4,8 km/h (1 Bft) 100,00 %
22.06.2017 22:20 24,8 C 27,8 C 59 % 1010,3 hPa 0,0 l/m 2,8 km/h (1 Bft) S-SW 204 0 min 0,000 mm 0,0 UV-I 0 W/m 16,2 C 24,8 C 4,8 km/h (1 Bft) 100,00 %
22.06.2017 22:22 24,7 C 27,8 C 60 % 1010,2 hPa 0,0 l/m 1,9 km/h (1 Bft) S-SW 204 0 min 0,000 mm 0,0 UV-I 0 W/m 16,4 C 24,7 C 3,2 km/h (1 Bft) 98,00 %
22.06.2017 22:24 24,6 C 27,8 C 61 % 1010,1 hPa 0,0 l/m 1,8 km/h (1 Bft) S-SW 202 0 min 0,000 mm 0,0 UV-I 0 W/m 16,6 C 24,6 C 3,2 km/h (1 Bft) 100,00 %
22.06.2017 22:26 24,4 C 27,8 C 61 % 1010,1 hPa 0,0 l/m 2,5 km/h (1 Bft) S-SW 202 0 min 0,000 mm 0,0 UV-I 0 W/m 16,4 C 24,4 C 4,8 km/h (1 Bft) 100,00 %
22.06.2017 22:28 24,4 C 27,8 C 62 % 1010,2 hPa 0,0 l/m 2,5 km/h (1 Bft) S-SW 201 0 min 0,000 mm 0,0 UV-I 0 W/m 16,6 C 24,4 C 6,4 km/h (2 Bft) 97,37 %
22.06.2017 22:30 24,4 C 27,8 C 62 % 1010,2 hPa 0,0 l/m 4,1 km/h (1 Bft) S-SW 200 0 min 0,000 mm 0,0 UV-I 0 W/m 16,6 C 24,4 C 6,4 km/h (2 Bft) 100,00 %
22.06.2017 22:32 24,4 C 27,8 C 62 % 1010,2 hPa 0,0 l/m 3,4 km/h (1 Bft) S-SW 198 0 min 0,000 mm 0,0 UV-I 0 W/m 16,6 C 24,4 C 6,4 km/h (2 Bft) 95,74 %
22.06.2017 22:34 24,5 C 27,8 C 62 % 1010,1 hPa 0,0 l/m 3,1 km/h (1 Bft) S-SW 195 0 min 0,000 mm 0,0 UV-I 0 W/m 16,7 C 24,5 C 6,4 km/h (2 Bft) 91,49 %
22.06.2017 22:36 24,4 C 27,8 C 62 % 1010,1 hPa 0,0 l/m 2,5 km/h (1 Bft) S 187 0 min 0,000 mm 0,0 UV-I 0 W/m 16,6 C 24,4 C 4,8 km/h (1 Bft) 93,62 %
22.06.2017 22:38 24,5 C 27,8 C 63 % 1010,1 hPa 0,0 l/m 4,0 km/h (1 Bft) S 179 0 min 0,000 mm 0,0 UV-I 0 W/m 17,0 C 24,5 C 8,0 km/h (2 Bft) 93,62 %
22.06.2017 22:40 24,5 C 27,8 C 63 % 1010,1 hPa 0,0 l/m 5,3 km/h (1 Bft) S 188 0 min 0,000 mm 0,0 UV-I 0 W/m 17,0 C 24,5 C 9,7 km/h (2 Bft) 97,92 %
22.06.2017 22:42 24,6 C 27,8 C 63 % 1010,1 hPa 0,0 l/m 5,8 km/h (2 Bft) S 190 0 min 0,000 mm 0,0 UV-I 0 W/m 17,1 C 24,6 C 8,0 km/h (2 Bft) 95,74 %
22.06.2017 22:44 24,6 C 27,8 C 63 % 1010,1 hPa 0,0 l/m 4,4 km/h (1 Bft) S 181 0 min 0,000 mm 0,0 UV-I 0 W/m 17,1 C 24,6 C 8,0 km/h (2 Bft) 95,74 %
22.06.2017 22:46 24,6 C 27,8 C 63 % 1010,1 hPa 0,0 l/m 4,3 km/h (1 Bft) S 188 0 min 0,000 mm 0,0 UV-I 0 W/m 17,1 C 24,6 C 8,0 km/h (2 Bft) 95,74 %
22.06.2017 22:48 24,6 C 27,8 C 63 % 1010,1 hPa 0,0 l/m 4,0 km/h (1 Bft) S 181 0 min 0,000 mm 0,0 UV-I 0 W/m 17,1 C 24,6 C 8,0 km/h (2 Bft) 96,00 %
22.06.2017 22:50 24,5 C 27,8 C 63 % 1010,0 hPa 0,0 l/m 3,9 km/h (1 Bft) S 184 0 min 0,000 mm 0,0 UV-I 0 W/m 17,0 C 24,5 C 6,4 km/h (2 Bft) 93,62 %
22.06.2017 22:52 24,4 C 27,8 C 63 % 1010,0 hPa 0,0 l/m 4,2 km/h (1 Bft) S 171 0 min 0,000 mm 0,0 UV-I 0 W/m 16,9 C 24,4 C 8,0 km/h (2 Bft) 91,49 %
22.06.2017 22:54 24,4 C 27,8 C 63 % 1010,0 hPa 0,0 l/m 5,0 km/h (1 Bft) S-SW 193 0 min 0,000 mm 0,0 UV-I 0 W/m 16,9 C 24,4 C 8,0 km/h (2 Bft) 97,87 %
22.06.2017 22:56 24,3 C 27,8 C 63 % 1010,1 hPa 0,0 l/m 5,4 km/h (1 Bft) S 178 0 min 0,000 mm 0,0 UV-I 0 W/m 16,8 C 24,3 C 9,7 km/h (2 Bft) 95,74 %
22.06.2017 22:58 24,3 C 27,8 C 64 % 1010,1 hPa 0,0 l/m 4,2 km/h (1 Bft) S 179 0 min 0,000 mm 0,0 UV-I 0 W/m 17,0 C 24,3 C 6,4 km/h (2 Bft) 95,74 %
22.06.2017 23:00 24,3 C 27,8 C 64 % 1010,1 hPa 0,0 l/m 3,8 km/h (1 Bft) S 179 0 min 0,000 mm 0,0 UV-I 0 W/m 17,0 C 24,3 C 6,4 km/h (2 Bft) 95,74 %
22.06.2017 23:02 24,2 C 27,8 C 64 % 1010,0 hPa 0,0 l/m 3,8 km/h (1 Bft) S 178 0 min 0,025 mm 0,0 UV-I 0 W/m 16,9 C 24,2 C 6,4 km/h (2 Bft) 89,47 %
22.06.2017 23:04 24,1 C 27,8 C 65 % 1010,0 hPa 0,0 l/m 2,6 km/h (1 Bft) S 178 0 min 0,000 mm 0,0 UV-I 0 W/m 17,1 C 24,1 C 4,8 km/h (1 Bft) 95,74 %
22.06.2017 23:06 24,0 C 27,8 C 65 % 1010,0 hPa 0,0 l/m 3,6 km/h (1 Bft) S 178 0 min 0,000 mm 0,0 UV-I 0 W/m 17,0 C 24,0 C 8,0 km/h (2 Bft) 97,87 %
22.06.2017 23:08 24,0 C 27,8 C 65 % 1009,9 hPa 0,0 l/m 3,4 km/h (1 Bft) S 176 0 min 0,000 mm 0,0 UV-I 0 W/m 17,0 C 24,0 C 8,0 km/h (2 Bft) 97,87 %
22.06.2017 23:10 23,9 C 27,8 C 65 % 1009,9 hPa 0,0 l/m 4,3 km/h (1 Bft) S 178 0 min 0,000 mm 0,0 UV-I 0 W/m 16,9 C 23,9 C 6,4 km/h (2 Bft) 97,87 %
22.06.2017 23:12 23,9 C 27,8 C 65 % 1009,9 hPa 0,0 l/m 4,0 km/h (1 Bft) S-SO 162 0 min 0,000 mm 0,0 UV-I 0 W/m 16,9 C 23,9 C 8,0 km/h (2 Bft) 96,00 %
22.06.2017 23:14 23,9 C 27,8 C 65 % 1009,9 hPa 0,0 l/m 4,8 km/h (1 Bft) S 172 0 min 0,000 mm 0,0 UV-I 0 W/m 16,9 C 23,9 C 8,0 km/h (2 Bft) 96,00 %
22.06.2017 23:16 23,9 C 27,8 C 64 % 1009,8 hPa 0,0 l/m 4,1 km/h (1 Bft) S 182 0 min 0,000 mm 0,0 UV-I 0 W/m 16,7 C 23,9 C 6,4 km/h (2 Bft) 100,00 %
22.06.2017 23:18 24,0 C 27,8 C 64 % 1009,9 hPa 0,0 l/m 4,3 km/h (1 Bft) S 170 0 min 0,000 mm 0,0 UV-I 0 W/m 16,8 C 24,0 C 8,0 km/h (2 Bft) 97,87 %
22.06.2017 23:20 24,0 C 27,8 C 64 % 1009,8 hPa 0,0 l/m 5,2 km/h (1 Bft) S-SO 164 0 min 0,000 mm 0,0 UV-I 0 W/m 16,8 C 24,0 C 9,7 km/h (2 Bft) 97,87 %
22.06.2017 23:22 24,0 C 27,2 C 64 % 1009,8 hPa 0,0 l/m 4,3 km/h (1 Bft) S-SO 159 0 min 0,000 mm 0,0 UV-I 0 W/m 16,8 C 24,0 C 8,0 km/h (2 Bft) 97,87 %
22.06.2017 23:24 24,1 C 27,2 C 63 % 1009,7 hPa 0,0 l/m 5,5 km/h (1 Bft) S-SW 194 0 min 0,000 mm 0,0 UV-I 0 W/m 16,6 C 24,1 C 8,0 km/h (2 Bft) 100,00 %
22.06.2017 23:26 24,1 C 27,2 C 63 % 1009,7 hPa 0,0 l/m 6,6 km/h (2 Bft) S-SO 160 0 min 0,000 mm 0,0 UV-I 0 W/m 16,6 C 24,1 C 12,9 km/h (3 Bft) 97,87 %
22.06.2017 23:28 24,1 C 27,2 C 63 % 1009,7 hPa 0,0 l/m 5,9 km/h (2 Bft) S-SW 196 0 min 0,000 mm 0,0 UV-I 0 W/m 16,6 C 24,1 C 9,7 km/h (2 Bft) 95,74 %
22.06.2017 23:30 24,2 C 27,2 C 63 % 1009,7 hPa 0,0 l/m 7,0 km/h (2 Bft) S-SW 194 0 min 0,000 mm 0,0 UV-I 0 W/m 16,7 C 24,0 C 11,3 km/h (2 Bft) 100,00 %
22.06.2017 23:32 24,2 C 27,2 C 63 % 1009,7 hPa 0,0 l/m 5,0 km/h (1 Bft) S 190 0 min 0,000 mm 0,0 UV-I 0 W/m 16,7 C 24,2 C 8,0 km/h (2 Bft) 97,87 %
22.06.2017 23:34 24,1 C 27,2 C 63 % 1009,7 hPa 0,0 l/m 4,4 km/h (1 Bft) S-SW 194 0 min 0,000 mm 0,0 UV-I 0 W/m 16,6 C 24,1 C 6,4 km/h (2 Bft) 100,00 %
22.06.2017 23:36 23,9 C 27,2 C 64 % 1009,7 hPa 0,0 l/m 5,1 km/h (1 Bft) S-SW 194 0 min 0,000 mm 0,0 UV-I 0 W/m 16,7 C 23,9 C 6,4 km/h (2 Bft) 97,87 %
22.06.2017 23:38 23,7 C 27,2 C 65 % 1009,7 hPa 0,0 l/m 5,0 km/h (1 Bft) S-SW 192 0 min 0,000 mm 0,0 UV-I 0 W/m 16,7 C 23,7 C 8,0 km/h (2 Bft) 93,62 %
22.06.2017 23:40 23,6 C 27,2 C 65 % 1009,7 hPa 0,0 l/m 5,7 km/h (1 Bft) S-SW 193 0 min 0,000 mm 0,0 UV-I 0 W/m 16,6 C 23,6 C 8,0 km/h (2 Bft) 100,00 %
22.06.2017 23:42 23,4 C 27,2 C 66 % 1009,7 hPa 0,0 l/m 5,7 km/h (1 Bft) S-SW 198 0 min 0,000 mm 0,0 UV-I 0 W/m 16,7 C 23,4 C 8,0 km/h (2 Bft) 100,00 %
22.06.2017 23:44 23,3 C 27,2 C 66 % 1009,7 hPa 0,0 l/m 5,7 km/h (1 Bft) S 173 0 min 0,000 mm 0,0 UV-I 0 W/m 16,6 C 23,3 C 9,7 km/h (2 Bft) 98,11 %
22.06.2017 23:46 23,3 C 27,2 C 66 % 1009,7 hPa 0,0 l/m 5,9 km/h (2 Bft) S-SW 201 0 min 0,000 mm 0,0 UV-I 0 W/m 16,6 C 23,3 C 11,3 km/h (2 Bft) 100,00 %
22.06.2017 23:48 23,2 C 27,2 C 66 % 1009,8 hPa 0,0 l/m 7,4 km/h (2 Bft) S-SW 192 0 min 0,000 mm 0,0 UV-I 0 W/m 16,5 C 22,9 C 11,3 km/h (2 Bft) 97,87 %
22.06.2017 23:50 23,2 C 27,2 C 66 % 1009,8 hPa 0,0 l/m 5,9 km/h (2 Bft) S-SW 208 0 min 0,000 mm 0,0 UV-I 0 W/m 16,5 C 23,2 C 8,0 km/h (2 Bft) 100,00 %
22.06.2017 23:52 23,2 C 27,2 C 66 % 1009,8 hPa 0,0 l/m 6,7 km/h (2 Bft) S-SW 203 0 min 0,000 mm 0,0 UV-I 0 W/m 16,5 C 23,1 C 11,3 km/h (2 Bft) 95,83 %
22.06.2017 23:54 23,1 C 27,2 C 66 % 1009,8 hPa 0,0 l/m 5,8 km/h (2 Bft) S-SW 206 0 min 0,000 mm 0,0 UV-I 0 W/m 16,4 C 23,1 C 11,3 km/h (2 Bft) 100,00 %
22.06.2017 23:56 23,1 C 27,2 C 66 % 1009,8 hPa 0,0 l/m 5,5 km/h (1 Bft) S 179 0 min 0,000 mm 0,0 UV-I 0 W/m 16,4 C 23,1 C 9,7 km/h (2 Bft) 97,87 %
22.06.2017 23:58 23,0 C 27,2 C 66 % 1009,8 hPa 0,0 l/m 4,9 km/h (1 Bft) S-SW 192 0 min 0,000 mm 0,0 UV-I 0 W/m 16,3 C 23,0 C 6,4 km/h (2 Bft) 100,00 %
_ Min-Zeit 05:54 05:20 16:52 20:34 - 00:34 - - - - - - 06:00 05:54 00:34 04:04
Minimum _ 16,8 C 25,6 C 33 % 1009,7 hPa - 0,0 km/h (0 Bft) - - - - - - 13,8 C 16,8 C 0,0 km/h (0 Bft) 87,23 %
_ Max-Zeit 16:54 15:20 02:28 08:24 00:00 15:24 - - 05:18 13:00 12:48 13:30 12:36 16:52 15:22 00:02
Maximum _ 33,4 C 27,8 C 86 % 1014,2 hPa 0,0 l/m 17,3 km/h
W-SW (3 Bft)
- - 2 min 0,635 mm 6,5 UV-I 924 W/m 17,7 C 33,3 C 25,7 km/h
SW (4 Bft)
100,00 %
Durchschnitt _ 25,4 C 26,8 C 59 % 1012,2 hPa #0,0 l/m 3,1 km/h (1 Bft) SW - #12:20 h #5,715 mm 3,5 UV-I 466 W/m 15,9 C 25,4 C 6,3 km/h (2 Bft) 96,52 %